GFSMA_850_thetae_000.txt.gz
Theta_e
347 347 346 344 344 349 348 347 347 346 345 345 344 338 338 338 335 338 340 338 339 339 339 341 341 343 342 330 330 334 331 327 327 325 325 337 337 331 324 321 326 330 327
348 350 349 348 348 349 348 346 345 345 346 344 341 340 337 336 337 334 338 340 339 340 340 339 339 341 343 343 334 329 336 339 337 333 328 327 327 326 325 324 323 323 325
346 344 349 348 348 347 339 345 347 347 343 342 340 338 339 339 338 338 337 337 340 343 340 338 339 340 341 343 343 343 333 332 332 337 332 326 324 337 333 325 325 325 326
346 346 348 348 347 344 348 348 346 344 341 340 338 338 339 338 338 338 338 338 336 337 341 341 340 340 340 341 343 343 342 342 341 336 333 337 332 326 326 326 328 327 328
345 347 348 349 345 342 344 346 344 342 339 337 337 336 339 338 338 336 338 340 340 338 335 340 340 341 341 340 340 340 341 342 342 342 340 335 333 334 337 331 327 327 326
348 346 348 346 343 344 346 345 341 339 338 337 335 335 339 338 338 337 336 335 337 340 341 340 341 343 342 342 342 342 341 341 339 341 342 341 338 336 333 335 331 329 327
347 344 348 347 345 345 344 342 338 338 335 337 335 335 337 338 337 336 334 330 331 333 337 341 342 343 343 340 340 340 340 340 341 339 340 341 341 338 336 334 330 328 330
348 347 347 347 345 341 342 339 338 336 336 336 337 335 334 339 338 336 332 327 325 328 331 334 337 332 340 344 339 337 338 338 339 340 340 340 341 342 341 340 338 337 329
349 346 343 342 342 335 334 338 338 336 335 340 338 336 334 334 333 335 336 329 327 326 327 329 331 326 326 332 333 334 337 338 338 338 339 339 340 340 341 341 342 341 339
348 345 342 342 332 333 338 337 336 335 332 335 335 336 335 334 334 333 332 330 328 326 326 325 327 328 320 327 326 323 325 327 330 333 335 335 335 337 338 340 341 340 341
346 344 341 333 324 329 338 334 336 335 335 334 333 334 336 333 333 331 329 329 329 329 327 325 325 325 325 325 323 322 319 320 320 321 324 326 328 330 332 335 337 341 342
347 345 343 334 324 334 336 333 327 333 330 334 334 335 332 331 331 330 329 329 329 328 328 327 327 324 324 325 323 318 316 316 317 318 319 319 320 321 324 328 331 334 337
343 346 341 336 335 336 336 327 324 334 333 334 335 334 334 333 331 330 330 330 330 330 329 329 329 327 325 325 326 322 319 316 316 317 318 318 318 318 319 319 321 326 332
340 341 334 337 334 337 336 327 332 333 334 333 334 334 333 334 332 331 331 331 331 329 329 332 331 327 326 326 326 322 325 324 319 317 317 317 317 317 317 317 318 319 320
341 344 332 333 334 338 334 333 332 333 332 332 331 332 333 330 329 330 332 332 331 329 327 327 327 327 328 327 328 327 327 326 321 320 317 317 317 317 317 318 318 318 318
336 342 334 330 327 334 334 332 333 333 332 328 328 330 332 330 330 331 331 330 329 329 329 327 327 327 329 329 329 328 328 321 320 320 317 317 317 317 317 317 319 318 318
322 327 327 323 329 321 331 334 333 331 332 331 330 332 334 335 332 329 329 329 329 328 328 327 327 327 329 329 329 329 328 328 327 325 323 319 316 317 316 317 319 317 318
319 316 321 322 329 325 331 335 334 331 332 331 332 334 334 333 333 333 331 332 330 329 329 328 327 328 327 327 328 329 328 326 326 325 324 321 321 316 316 318 317 316 318
317 318 330 325 325 331 332 335 335 334 331 331 333 334 334 334 333 332 331 329 329 328 328 328 328 328 327 326 326 325 327 325 326 325 324 324 322 321 321 320 320 320 318
318 323 329 329 328 329 335 335 335 335 330 331 333 334 334 335 333 333 331 332 332 330 328 328 327 327 326 325 325 325 325 324 323 324 324 322 321 322 322 322 322 321 320
323 324 326 326 328 331 325 331 334 333 330 328 334 335 335 335 332 328 329 329 327 328 327 327 326 326 324 325 326 325 325 325 323 324 323 322 320 322 324 323 322 321 321
333 329 325 324 327 326 323 329 327 333 334 336 336 336 330 327 329 328 328 327 327 326 324 325 326 325 326 327 326 325 325 324 324 323 323 320 323 323 323 322 321 320 319
341 334 325 328 329 325 328 328 324 327 334 335 334 327 327 329 331 330 330 328 327 326 324 324 326 327 326 326 325 324 324 324 322 320 322 323 323 322 321 321 319 319 320
340 331 330 332 331 332 328 333 332 329 329 332 330 329 328 329 328 328 329 327 327 326 328 327 325 323 323 322 319 319 320 320 319 321 322 323 321 320 319 319 319 319 319
338 339 336 336 336 336 332 331 330 332 333 329 327 326 327 325 327 327 326 325 327 326 325 324 321 317 316 315 314 316 320 321 320 320 320 321 319 319 319 318 319 319 321
340 339 338 336 335 333 328 327 329 331 328 326 326 326 326 325 327 326 326 326 326 325 324 320 319 320 318 319 318 319 318 318 319 318 317 319 318 318 318 318 319 320 322

GFSMA_850_thetae_003.txt.gz
Theta_e
349 348 348 349 349 348 348 347 347 347 347 346 345 342 341 338 337 336 339 340 337 339 340 340 341 343 340 330 334 338 327 326 327 324 325 326 335 332 327 323 322 330 336
351 351 349 349 348 346 347 346 348 346 345 344 341 342 340 339 339 339 337 340 338 338 340 339 340 340 343 342 332 333 338 337 333 325 325 331 330 334 326 323 322 322 324
351 348 349 348 348 346 346 346 346 344 342 339 339 338 339 339 338 339 338 337 339 340 340 340 339 340 340 342 341 337 330 337 339 335 335 325 323 322 330 330 326 325 325
350 352 350 349 347 348 347 348 345 344 340 338 337 338 338 338 339 339 338 337 336 337 342 342 340 339 340 340 342 342 342 341 336 335 334 335 333 329 327 329 327 328 330
353 352 349 347 349 346 347 348 344 342 337 337 337 336 338 339 338 338 337 339 340 340 337 340 339 338 340 341 340 341 341 342 342 341 341 337 334 335 333 332 331 327 327
352 352 350 349 348 347 347 346 343 339 338 339 336 334 339 340 338 336 335 333 337 339 342 342 344 345 341 340 341 341 340 341 340 340 341 341 340 336 334 333 335 334 330
352 348 348 349 348 346 347 341 340 337 338 338 335 337 339 338 338 336 332 331 332 332 337 340 343 344 343 340 339 341 342 341 341 341 339 339 340 340 338 336 333 332 329
351 351 350 348 348 347 345 343 340 337 337 338 337 336 338 341 339 336 334 330 328 329 333 336 339 331 342 339 338 338 338 339 338 338 340 340 340 339 340 340 337 334 334
353 350 349 343 350 343 334 341 339 337 336 339 336 338 336 339 336 337 337 332 329 328 329 331 334 331 326 335 335 333 335 338 339 339 338 338 339 339 339 340 340 341 341
352 352 349 348 347 335 338 338 337 334 334 336 336 337 332 335 337 337 335 334 331 329 328 327 327 329 328 328 326 323 323 325 328 331 333 335 336 336 335 336 337 339 340
351 349 348 348 344 333 336 334 338 330 340 336 335 334 337 334 332 332 331 332 330 331 329 327 327 326 326 326 326 323 318 318 320 321 322 323 325 327 328 329 330 332 334
350 347 345 348 343 334 339 339 338 338 335 337 336 335 334 332 333 331 330 330 330 330 330 329 329 328 326 325 326 324 321 316 316 316 317 318 318 319 319 320 322 325 327
346 349 346 345 343 335 339 338 336 339 337 337 333 336 334 333 333 331 330 331 331 331 331 331 330 331 328 327 327 326 325 320 319 316 316 316 317 317 317 317 317 318 319
346 345 348 346 342 340 340 338 335 335 336 336 336 335 336 334 334 333 331 332 331 331 330 329 331 329 328 328 328 326 326 329 326 322 319 317 316 316 317 316 316 316 317
345 343 346 338 339 339 340 338 334 335 332 335 334 334 334 333 332 331 332 331 332 331 330 330 328 328 328 330 330 329 330 330 328 325 319 319 318 317 317 317 317 316 316
344 343 345 330 326 330 336 326 335 335 334 333 332 330 333 332 331 332 333 332 330 329 329 329 329 329 329 329 329 329 330 329 327 327 325 324 322 319 316 316 317 316 316
349 335 317 318 322 335 336 332 335 335 336 336 335 330 332 334 333 331 331 331 330 330 330 328 330 329 329 329 329 329 331 329 329 327 327 325 324 322 320 318 316 315 317
326 320 315 317 329 326 331 325 336 335 334 334 333 333 334 334 335 335 333 332 333 331 331 331 329 330 330 329 329 327 328 327 327 326 325 323 324 324 323 322 318 319 319
325 321 318 315 319 320 323 321 324 336 335 334 334 334 335 335 334 334 333 333 331 331 332 329 329 328 328 327 327 327 327 326 325 324 326 326 324 324 323 322 320 322 323
321 321 321 316 318 324 322 331 327 335 337 336 334 334 335 335 334 333 334 335 332 332 332 330 329 329 328 326 327 326 326 326 326 325 326 325 323 324 323 321 321 323 323
319 319 320 316 320 332 335 338 336 335 337 337 334 335 335 334 336 334 334 330 331 331 331 330 329 327 328 327 327 327 327 326 326 325 324 323 324 323 323 321 322 324 324
328 326 322 317 318 330 333 330 331 331 335 335 334 334 335 334 333 332 327 328 331 329 329 328 328 327 326 327 327 326 326 325 323 323 323 323 322 321 322 322 324 323 322
337 333 324 320 324 333 333 326 321 327 333 334 333 333 333 335 330 327 330 329 327 325 328 328 327 327 327 325 323 323 324 323 322 321 322 321 321 322 322 324 323 321 320
343 338 332 327 334 337 334 328 327 326 327 329 334 336 336 333 328 327 327 327 324 326 328 328 328 326 326 324 318 317 318 317 318 320 321 322 321 320 321 321 320 320 318
347 343 337 335 337 338 334 332 332 327 331 332 334 335 333 327 326 326 325 324 326 327 330 328 326 325 323 317 317 317 319 318 318 319 319 319 319 317 316 316 317 319 319
349 344 341 338 340 340 339 336 334 330 331 332 333 334 326 326 325 325 323 325 327 329 327 326 326 323 319 320 317 318 318 320 319 318 316 314 313 314 318 319 319 318 319

GFSMA_850_thetae_006.txt.gz
Theta_e
350 348 349 347 348 350 347 346 344 345 342 341 339 342 341 338 339 336 338 338 338 334 339 339 341 341 333 331 337 334 328 328 325 325 329 327 326 324 329 325 323 325 335
349 349 350 347 344 347 344 346 345 343 342 345 341 340 338 340 338 340 338 339 338 338 338 339 339 339 343 339 329 334 337 329 327 326 324 324 327 335 332 324 322 321 323
345 349 348 346 347 346 344 345 346 344 344 339 339 338 339 338 339 335 337 338 339 338 339 339 338 339 339 342 341 335 333 339 338 335 332 326 328 325 324 325 326 325 325
345 347 347 350 347 347 344 347 346 344 342 338 337 339 337 339 336 339 339 334 337 338 337 340 341 339 339 340 341 341 340 334 333 335 333 336 332 327 324 330 333 328 328
350 348 348 349 348 348 344 345 346 343 339 337 337 336 338 338 336 338 336 339 337 339 341 342 340 336 337 340 340 340 342 342 341 341 340 338 334 334 335 331 328 328 327
347 349 348 349 346 344 345 345 344 341 337 338 339 335 338 340 339 335 334 336 339 339 342 343 340 344 340 339 339 340 340 340 340 341 341 341 341 339 336 335 333 334 334
348 345 345 344 348 344 348 345 338 330 338 337 336 337 339 339 336 335 331 332 331 332 334 339 342 342 343 339 337 339 340 341 342 341 341 339 339 340 340 339 338 337 332
347 347 345 345 349 347 345 344 336 328 338 337 333 336 340 339 338 335 333 330 328 330 334 336 334 336 339 338 334 333 337 338 339 339 338 339 339 339 338 339 339 338 335
348 351 350 347 346 348 337 339 339 331 337 340 338 337 341 340 339 338 335 332 329 328 329 330 330 326 329 335 330 329 328 331 336 338 339 339 338 338 339 339 339 339 340
348 351 343 345 349 340 339 337 334 327 332 338 337 337 332 332 339 338 336 334 331 330 329 326 327 328 327 328 328 325 321 321 323 326 329 331 332 334 335 336 335 336 337
351 352 350 347 344 328 335 333 334 323 337 335 336 336 337 332 330 331 336 332 332 331 330 329 328 324 326 326 326 326 324 319 317 317 319 320 321 322 323 324 326 328 330
350 347 351 343 344 327 332 330 326 323 335 338 336 336 335 334 334 334 331 330 330 331 331 330 330 329 329 326 326 326 326 324 318 317 317 316 316 317 317 318 318 318 319
349 349 344 342 341 330 331 328 327 335 329 329 333 335 334 333 332 332 331 331 330 330 330 332 331 331 331 329 326 326 326 325 322 323 321 317 316 316 316 316 316 316 316
346 348 348 345 341 337 329 325 324 326 332 332 331 330 336 333 332 333 333 331 329 330 329 329 330 331 330 329 329 328 328 327 324 326 325 323 320 320 319 317 317 317 316
347 346 346 343 336 333 333 332 327 335 337 337 334 328 328 333 334 332 332 332 331 330 331 329 329 330 329 329 329 329 329 329 327 326 325 324 323 322 319 317 317 317 317
348 347 345 341 335 333 335 335 328 335 332 329 332 333 333 333 334 332 331 331 332 331 329 329 328 329 329 329 329 329 330 329 326 326 325 326 327 326 324 323 321 317 315
352 348 344 341 334 333 335 331 329 332 335 335 331 330 331 332 331 331 332 333 331 330 329 331 327 327 327 328 328 329 328 327 327 328 328 327 328 325 324 323 324 323 321
351 349 346 339 336 337 329 327 321 330 335 332 334 333 328 328 329 333 331 329 330 331 333 330 330 330 328 328 328 329 328 328 328 327 325 327 327 326 326 324 324 324 322
347 341 345 339 330 334 327 325 321 321 326 327 330 333 331 333 333 333 335 334 333 333 331 332 331 330 328 327 324 325 326 327 327 325 325 326 326 326 325 324 323 324 323
346 342 340 337 330 325 324 325 325 323 322 322 333 334 333 334 334 333 331 329 329 331 332 330 332 331 330 329 327 328 328 328 327 328 327 326 325 325 323 324 325 324 323
350 348 348 347 339 324 323 329 331 329 328 329 336 334 333 334 335 329 328 330 331 331 328 329 330 327 325 328 328 327 326 325 323 322 326 326 324 324 324 324 323 322 321
357 355 350 346 340 330 320 333 333 337 336 333 330 331 333 335 334 330 330 332 329 327 330 328 327 324 323 328 325 325 326 326 324 321 324 322 318 321 318 318 318 322 323
357 356 352 344 338 333 330 337 338 336 334 333 330 332 333 331 331 330 330 327 327 327 327 326 323 324 326 324 325 325 322 319 317 316 313 315 321 323 323 320 320 321 323
357 356 351 345 339 333 328 329 333 331 332 328 328 330 330 327 328 332 329 327 326 325 325 325 326 325 325 326 325 325 321 316 315 317 319 321 318 318 319 321 320 319 316
360 355 350 343 337 333 332 334 333 331 326 324 326 327 327 326 325 327 327 326 325 325 323 325 325 326 327 327 325 320 318 317 317 318 318 318 318 316 315 315 309 317 319
351 350 349 344 339 337 335 336 339 333 331 330 328 329 329 330 328 327 326 325 326 324 324 327 324 324 325 323 321 320 318 317 318 320 318 316 315 312 309 317 319 319 320

GFSMA_850_thetae_009.txt.gz
Theta_e
347 344 343 345 346 347 342 343 344 343 340 341 341 339 336 339 339 336 337 337 338 336 338 339 341 339 331 329 332 331 330 326 332 333 335 332 328 324 332 333 328 326 333
344 347 347 347 345 344 346 343 343 342 341 340 342 338 337 338 336 338 336 338 338 338 338 338 339 340 339 333 333 336 332 325 326 324 326 333 328 334 332 328 323 321 322
347 343 344 345 345 346 345 342 342 344 342 338 337 336 337 337 337 334 337 337 339 337 339 338 339 339 339 342 338 330 332 335 334 330 324 324 328 329 333 333 327 325 325
348 345 344 345 347 347 347 344 341 343 340 338 335 337 336 337 335 337 336 335 337 336 336 338 338 338 338 339 341 340 335 333 336 337 336 335 334 329 325 324 330 333 328
348 345 346 346 349 346 348 344 343 345 340 330 335 337 336 336 337 335 336 335 339 339 338 341 340 338 338 339 339 341 341 341 338 337 335 333 334 334 334 333 328 327 327
348 342 348 345 347 348 343 343 341 337 333 337 337 334 335 337 338 334 334 338 336 338 339 342 338 342 336 338 339 339 339 341 341 341 341 341 341 340 336 334 333 332 334
347 348 346 346 345 347 343 345 339 330 337 336 336 336 336 338 335 332 331 331 331 331 334 336 339 340 343 339 336 336 339 339 339 340 340 340 339 340 341 340 338 335 334
348 344 346 343 345 345 345 342 335 325 337 337 336 333 338 339 336 334 334 329 329 331 331 331 329 330 337 335 333 329 334 337 338 339 339 338 338 339 338 338 339 339 339
349 344 347 345 344 346 345 339 335 328 338 337 336 336 340 340 339 337 335 331 330 328 326 324 328 327 326 328 327 328 325 324 330 335 337 338 338 338 338 338 339 339 339
349 347 344 345 346 346 343 337 333 322 335 337 337 336 331 337 339 339 337 333 331 330 329 327 326 325 326 325 324 322 320 318 317 320 323 325 327 330 331 334 335 336 336
351 347 347 345 343 345 336 324 325 319 334 337 337 337 335 331 330 334 337 334 332 331 330 330 330 328 326 326 326 324 323 322 320 316 316 316 317 318 319 320 321 323 325
349 344 349 347 341 339 328 327 327 319 326 336 335 335 335 334 333 335 334 332 332 331 331 331 331 331 329 329 328 326 325 325 322 317 317 317 317 316 316 316 317 317 317
349 349 346 341 339 337 323 323 322 320 322 330 333 334 335 334 332 331 330 330 330 330 329 330 332 331 330 330 328 328 327 327 327 325 323 321 320 318 318 317 317 316 316
349 349 344 342 338 340 333 321 321 320 322 320 323 329 333 333 332 331 331 331 329 328 329 329 330 331 331 330 328 328 328 329 328 328 328 323 322 320 318 318 318 318 318
350 345 346 347 347 343 338 323 321 322 322 328 324 320 331 333 331 332 332 332 331 330 330 327 329 328 331 329 329 330 330 328 327 325 326 326 326 326 325 325 324 323 320
349 346 346 346 346 344 337 324 323 324 328 328 326 323 325 326 331 334 331 331 330 331 331 328 329 328 329 329 328 328 329 328 328 326 324 323 327 326 327 327 324 323 323
353 349 347 346 346 344 331 322 323 325 328 330 330 326 327 328 332 333 332 331 333 331 331 329 330 330 329 326 326 325 326 327 329 327 327 325 326 325 327 327 326 325 324
352 352 351 348 346 342 335 323 320 326 323 329 333 332 328 331 328 325 328 331 331 330 331 332 332 330 330 330 330 327 325 326 326 326 328 327 325 325 324 325 326 325 325
349 351 352 351 350 347 339 330 323 326 321 331 332 334 332 325 323 322 332 331 331 332 333 332 328 329 329 329 330 330 328 327 327 328 329 327 326 325 327 325 325 323 324
350 351 351 350 350 348 346 337 327 329 325 330 331 331 331 331 327 329 331 330 331 328 327 328 328 327 329 329 330 329 329 329 328 326 325 324 324 326 326 326 324 324 324
350 353 353 352 352 350 348 341 330 329 324 328 331 333 335 334 331 331 332 331 328 327 328 328 327 328 328 327 326 322 327 326 322 321 321 319 319 323 322 320 320 320 318
350 354 356 354 352 351 349 345 336 332 327 326 329 330 334 333 333 331 332 331 330 329 331 328 327 327 326 324 323 325 325 323 324 320 319 316 315 313 313 316 318 318 317
358 357 357 356 354 353 351 348 339 332 328 330 333 333 336 334 331 331 334 330 328 328 328 327 326 325 325 323 326 325 325 324 323 319 317 316 315 319 317 317 318 319 320
359 358 357 358 356 355 351 344 335 329 337 336 335 336 332 331 333 332 329 328 327 327 326 326 324 323 325 324 324 324 325 323 320 317 317 317 318 319 318 317 316 315 313
360 360 358 357 354 351 347 340 334 335 336 335 337 336 332 333 329 327 325 327 328 327 325 325 322 322 324 324 323 324 324 321 320 318 318 318 319 318 316 314 308 314 318
355 354 359 354 352 348 342 340 335 330 331 333 333 333 333 329 327 329 329 328 328 326 327 326 325 325 325 323 321 320 321 322 322 321 317 318 314 311 307 306 313 316 317

GFSMA_850_thetae_012.txt.gz
Theta_e
344 344 343 344 345 344 342 342 342 341 341 340 341 338 336 337 335 336 336 335 337 335 334 339 336 331 330 329 332 332 329 324 327 331 332 331 330 326 330 330 328 327 332
344 344 344 345 345 344 346 343 344 343 342 339 340 337 336 336 336 338 336 336 338 337 336 338 339 340 332 332 331 328 327 328 327 334 332 334 333 330 325 330 329 325 323
347 345 344 346 345 343 342 344 342 341 341 338 335 337 336 335 335 335 335 338 338 337 337 337 339 339 340 339 331 334 336 332 326 326 324 328 333 327 335 335 332 325 323
349 347 343 342 344 347 344 346 344 341 343 338 330 337 335 337 336 336 335 334 336 339 336 337 337 339 339 340 341 335 330 335 337 336 333 328 326 327 326 325 325 328 329
349 346 345 343 344 345 346 346 344 341 341 328 332 337 335 335 334 333 335 335 337 336 337 340 338 337 337 339 339 341 340 338 334 334 335 336 334 334 333 331 328 327 330
348 348 346 346 344 346 346 342 342 339 327 334 336 337 335 337 336 333 336 334 336 337 337 338 339 339 337 338 338 339 340 340 342 341 340 339 339 339 337 334 333 333 332
349 347 347 346 345 346 343 343 343 330 333 336 335 334 333 338 334 332 333 334 333 332 333 336 335 340 339 339 336 336 338 339 339 339 340 340 340 340 340 340 340 338 335
347 347 344 344 344 343 344 342 342 326 335 334 335 334 335 338 336 331 332 329 329 327 326 331 331 332 335 336 335 329 331 336 338 339 340 340 340 339 339 339 338 338 339
345 348 345 345 341 344 343 343 341 327 336 336 335 335 339 339 337 334 332 331 328 329 327 325 326 325 324 324 323 323 324 322 326 333 336 337 337 337 337 338 338 338 338
350 350 346 345 343 338 340 344 336 328 332 336 335 335 334 338 338 335 331 333 332 330 330 329 328 327 324 325 325 323 322 320 317 317 320 323 326 328 331 333 334 335 336
350 349 348 346 343 337 341 339 327 321 329 336 336 335 334 332 336 338 336 333 332 331 330 330 330 331 328 328 327 325 324 323 321 318 315 316 316 317 318 319 321 322 323
349 349 348 343 342 338 342 332 325 326 322 336 336 335 334 330 331 331 333 335 333 331 331 331 331 330 330 329 329 327 327 325 326 324 321 319 318 317 316 316 316 316 316
349 349 347 343 345 340 338 335 323 324 319 330 335 334 334 334 333 333 332 330 330 330 329 330 329 331 331 330 330 328 328 328 329 327 326 327 323 321 320 319 319 319 319
346 348 348 347 343 338 336 329 320 321 319 322 330 333 333 334 333 332 331 330 329 329 327 328 329 330 331 331 331 329 329 329 329 328 327 325 326 325 324 323 322 323 322
346 348 348 348 344 339 337 337 321 320 320 321 320 323 327 332 333 332 332 333 333 330 328 329 328 328 328 329 329 329 329 329 329 328 328 326 325 326 327 326 327 326 324
350 349 350 345 344 345 345 337 328 320 321 321 324 323 321 327 333 331 332 330 331 330 331 330 329 328 329 328 327 326 324 325 327 327 327 327 326 325 328 326 326 327 326
353 352 350 346 344 344 345 344 333 322 321 322 322 324 323 324 328 332 333 332 331 332 332 331 330 329 329 329 328 327 328 325 325 325 326 326 327 328 327 326 325 324 325
351 353 351 348 347 346 345 344 341 324 321 320 320 325 328 328 329 330 333 332 332 332 330 330 330 329 329 328 329 329 328 329 327 327 328 327 327 328 328 326 325 326 326
347 354 353 351 349 348 347 346 342 332 322 322 320 326 329 331 330 328 328 329 329 331 330 329 330 329 327 328 327 328 330 330 329 329 328 328 327 327 325 326 327 327 326
344 345 353 353 352 351 350 349 347 343 331 323 322 325 331 332 333 331 327 326 332 333 332 330 326 327 327 328 328 327 327 326 325 327 325 321 321 321 320 323 325 325 325
342 344 349 351 351 351 351 350 349 346 341 328 325 320 325 327 332 333 330 328 331 330 330 327 327 329 328 327 325 325 325 324 324 323 321 321 319 317 317 316 316 315 315
344 346 347 350 351 352 351 351 350 347 345 335 329 321 325 328 334 335 328 330 331 332 328 330 329 328 326 325 325 325 326 326 325 322 323 319 317 316 316 318 316 314 314
344 350 351 353 355 353 353 352 350 348 347 339 332 324 327 330 333 335 331 330 328 329 330 329 328 327 325 323 323 324 324 325 324 322 321 318 317 317 317 317 316 315 315
351 352 353 354 354 351 349 350 352 351 346 340 333 325 330 333 333 333 332 331 330 329 328 328 327 326 324 321 323 325 325 325 324 322 320 320 319 318 316 316 315 313 309
355 355 355 357 352 333 353 355 353 348 342 333 327 335 336 337 334 331 331 332 328 325 327 328 328 326 324 323 324 324 323 323 321 321 322 322 318 315 313 313 311 306 312
355 357 358 357 342 343 354 353 347 342 337 333 336 337 337 334 335 333 330 326 327 329 328 328 327 326 324 322 321 320 319 320 321 321 317 313 313 310 308 308 307 306 314

GFSMA_850_thetae_015.txt.gz
Theta_e
345 344 344 343 344 344 341 341 341 341 341 341 340 335 336 336 335 335 335 333 335 336 335 339 340 336 331 332 334 333 328 329 332 332 329 332 329 326 327 327 327 327 329
345 346 344 344 344 342 344 342 342 342 342 340 339 334 334 334 335 335 336 335 337 337 335 339 341 331 333 333 333 336 334 327 324 329 331 332 331 328 324 330 332 328 328
345 346 346 343 344 343 341 343 343 343 341 338 332 335 335 333 336 335 334 337 338 335 337 337 339 340 341 333 336 335 333 332 327 328 329 327 333 331 331 330 332 329 324
347 348 347 342 344 344 345 344 346 342 342 339 334 335 335 336 334 334 335 335 335 336 336 336 338 339 339 340 339 334 335 336 334 331 328 325 324 328 326 329 332 330 330
348 348 347 345 343 344 345 345 343 342 342 336 329 335 335 335 333 333 335 334 334 333 336 339 337 335 336 338 340 341 337 333 334 337 338 337 335 332 332 331 329 326 327
348 349 347 344 344 342 344 343 341 341 333 333 336 336 336 337 335 332 332 334 333 336 336 336 335 337 338 336 338 338 340 340 340 339 336 336 336 334 335 335 333 333 333
347 347 347 345 345 343 344 341 341 338 328 335 335 335 335 337 333 331 335 334 333 331 333 335 336 337 339 337 336 336 337 338 339 339 341 340 340 341 341 340 340 339 337
347 347 347 346 344 343 343 342 341 340 330 335 333 334 335 336 334 331 332 329 327 326 325 327 328 330 335 335 335 331 328 331 335 337 338 339 339 339 339 339 338 338 338
347 347 346 346 343 343 341 343 343 341 327 334 335 334 336 337 335 331 331 330 328 328 327 327 325 324 324 324 323 322 321 321 322 328 333 335 336 337 337 336 336 337 337
346 346 346 346 344 343 340 343 342 339 328 336 335 335 335 338 338 335 331 330 331 329 329 330 330 327 325 325 324 324 322 321 320 317 316 319 322 326 329 331 333 334 334
345 346 350 349 346 344 341 340 342 333 325 332 335 333 332 336 338 337 334 331 332 330 330 330 329 330 329 328 328 326 326 323 322 321 317 316 316 316 316 317 318 319 320
346 348 350 349 348 346 340 339 334 326 322 328 334 334 333 331 332 337 337 336 335 332 331 331 330 330 330 329 329 328 328 327 327 327 325 326 323 320 319 317 316 316 316
348 348 348 348 347 341 342 341 333 324 325 321 332 334 334 333 331 331 333 333 335 330 331 329 330 330 331 330 330 330 328 328 329 328 328 326 324 324 323 321 319 319 319
348 347 346 348 346 343 343 339 335 323 323 320 327 332 333 334 334 332 331 330 330 329 329 328 329 329 330 330 330 330 329 328 329 329 329 329 327 326 325 325 326 326 325
349 346 346 347 348 346 344 340 336 322 321 320 320 326 330 333 333 333 332 331 331 331 329 328 328 327 328 327 328 328 329 325 326 328 328 328 328 327 325 327 328 327 327
349 348 344 346 348 348 344 339 337 332 321 321 321 320 320 324 328 333 332 332 332 331 330 330 330 329 328 327 328 329 327 326 325 324 326 327 328 328 327 326 326 326 325
344 345 343 347 348 348 343 344 343 340 327 321 321 321 322 323 322 328 333 333 331 330 331 329 330 331 329 328 330 328 329 329 328 328 326 326 326 326 326 327 328 327 326
341 346 349 349 349 348 344 344 344 344 339 324 321 321 321 324 323 326 328 332 333 332 331 331 330 330 329 329 329 328 327 328 328 329 329 329 328 327 329 328 328 327 326
343 345 349 351 351 350 347 346 346 345 344 337 321 321 320 325 328 327 326 330 331 330 331 331 331 329 329 328 327 327 326 325 325 328 328 329 328 326 321 322 322 322 322
342 345 346 349 351 351 349 348 347 346 346 343 332 322 321 323 326 331 331 329 329 331 329 331 331 330 327 327 328 327 325 324 324 325 323 324 322 321 320 318 317 317 319
341 341 344 347 347 352 352 350 349 349 347 346 343 330 325 321 323 326 331 332 332 329 331 332 331 330 328 329 328 325 324 323 323 323 323 322 320 319 317 317 316 315 315
342 342 343 343 345 346 349 352 351 350 347 346 344 340 329 326 321 326 330 333 332 331 332 330 329 328 329 328 327 325 322 324 324 323 323 323 322 319 317 317 315 315 315
349 342 343 344 343 343 342 346 350 348 339 347 345 344 335 330 322 326 330 333 334 331 329 328 329 329 328 327 326 324 321 324 324 324 325 325 322 320 319 319 316 314 313
348 347 342 342 344 342 343 346 353 335 334 344 345 345 340 334 325 327 332 333 334 332 330 330 328 326 327 328 326 323 321 323 324 323 323 323 320 321 319 316 315 313 310
350 348 348 342 342 342 345 349 355 340 349 348 346 341 338 336 329 332 335 333 330 331 330 327 327 327 328 327 326 324 323 323 321 319 319 321 317 315 315 315 310 306 306
351 351 349 345 346 350 353 355 338 338 352 348 341 336 330 331 335 336 336 334 332 328 326 328 329 328 327 325 323 319 319 319 320 317 315 313 314 311 308 307 306 307 309

GFSMA_850_thetae_021.txt.gz
Theta_e
345 342 342 342 342 341 341 340 340 339 342 341 342 335 332 333 334 337 338 334 334 336 335 337 337 332 335 335 333 331 331 328 329 332 330 332 326 328 327 328 328 331 327
344 343 343 343 343 342 341 342 340 340 339 339 340 334 333 334 334 333 337 339 335 336 335 337 339 336 333 332 333 333 333 329 329 332 333 329 332 331 327 327 330 331 329
343 345 344 344 344 344 342 342 343 344 338 338 336 333 332 334 332 333 335 336 340 336 335 337 339 337 336 334 334 334 333 333 332 325 326 331 332 331 331 329 325 328 328
344 344 346 346 344 344 343 343 342 342 342 340 334 334 334 335 332 332 333 333 334 340 339 336 338 339 338 339 335 335 335 334 333 331 327 328 328 325 331 329 328 331 331
347 347 346 347 345 344 343 344 344 343 341 339 333 331 332 333 333 334 333 333 334 335 339 333 335 335 336 337 338 339 337 336 336 336 336 335 335 330 327 328 329 329 329
347 347 343 344 346 345 344 345 344 341 339 328 335 334 335 335 334 331 335 336 332 333 337 335 336 339 338 335 335 337 338 339 336 335 335 335 335 336 335 335 335 335 335
346 346 346 347 346 346 345 344 344 341 339 329 336 336 334 336 332 332 333 335 327 329 333 333 335 334 338 336 336 334 334 335 337 339 339 340 340 340 339 339 339 340 339
345 345 345 348 347 348 345 345 344 341 341 331 337 336 337 337 334 332 330 328 326 326 324 324 326 330 334 335 332 328 325 326 327 331 334 337 338 338 338 339 339 338 338
345 344 344 347 348 348 346 344 344 343 343 332 333 335 336 335 337 333 332 329 328 328 328 327 322 323 323 323 323 322 321 319 318 318 321 326 330 333 335 335 335 336 336
346 345 345 346 347 348 347 345 342 342 343 337 333 333 333 335 337 337 334 332 330 329 329 329 329 326 326 324 326 324 322 320 319 318 316 315 315 316 316 318 320 321 322
346 347 345 346 346 346 347 345 343 340 342 340 331 333 333 334 336 338 337 334 331 331 330 329 329 330 328 327 327 326 327 327 326 326 325 324 323 321 319 317 316 316 316
345 346 347 346 346 346 348 349 344 340 340 335 327 332 335 336 336 336 338 337 335 333 332 330 330 330 330 330 329 328 328 328 328 328 328 327 325 323 323 322 320 320 319
344 342 344 345 344 345 348 349 346 341 337 328 322 325 333 335 335 332 332 335 336 334 333 333 330 329 329 329 330 330 329 328 328 328 328 328 328 328 326 324 325 324 324
343 340 342 343 343 347 348 348 345 340 336 329 325 322 325 332 333 333 333 334 334 334 332 330 329 327 328 329 330 330 330 329 328 326 324 325 326 327 327 326 324 326 327
346 340 341 343 343 345 346 347 343 338 334 333 324 324 322 328 331 332 333 333 333 332 332 332 330 328 327 326 326 327 328 328 327 326 326 325 325 324 324 326 327 326 325
348 346 342 342 343 345 344 346 345 341 334 331 325 322 321 321 324 328 331 331 332 333 332 333 331 329 329 330 328 328 330 328 328 328 328 328 329 328 327 326 325 325 326
348 348 345 342 343 345 344 345 347 345 339 332 327 322 322 321 321 322 322 326 331 332 333 334 330 330 330 331 331 329 329 329 328 327 326 325 325 328 329 329 328 328 326
347 348 347 344 342 345 343 344 347 347 341 333 332 328 322 322 321 321 321 321 322 329 333 333 334 331 331 331 330 330 330 328 328 327 325 324 325 327 329 328 328 325 322
346 347 348 344 342 343 344 343 345 347 344 339 338 339 338 327 322 322 322 323 323 325 328 331 333 332 328 330 331 330 329 328 328 328 325 323 322 323 323 322 322 320 318
346 347 347 345 341 342 343 342 344 347 345 341 341 342 343 341 329 323 323 325 327 326 327 330 333 333 329 331 331 332 332 330 329 327 325 322 320 321 322 321 321 320 318
346 346 347 347 340 341 340 340 342 345 346 345 344 345 345 345 343 332 326 326 328 330 330 333 334 333 332 332 332 332 330 331 329 327 326 323 323 324 325 323 320 320 319
346 346 347 347 345 338 336 337 342 345 346 347 347 346 346 346 346 344 332 329 329 331 332 335 335 334 334 328 331 330 331 330 329 329 326 327 327 324 326 326 323 318 320
345 346 346 347 347 337 336 336 340 344 347 347 348 349 348 348 347 346 344 333 331 332 333 334 334 333 333 329 328 329 329 327 330 330 326 327 326 326 324 322 319 319 317
345 345 346 347 347 344 335 335 338 341 345 347 348 350 350 349 349 347 346 340 335 332 330 333 334 334 331 330 329 327 327 328 327 326 325 324 323 323 321 319 317 316 315
346 345 346 346 346 344 338 335 338 342 345 345 346 347 347 350 350 342 346 342 335 332 331 334 334 333 331 330 327 328 328 326 327 325 323 321 320 320 317 316 313 309 305
345 346 346 347 346 344 341 339 340 343 345 346 346 346 346 350 340 343 345 342 336 329 331 334 332 330 329 327 328 327 324 323 322 321 320 317 317 315 312 311 310 308 308

GFSMA_850_thetae_024.txt.gz
Theta_e
350 350 347 348 347 347 348 344 344 343 342 346 345 339 335 336 336 336 339 332 334 335 333 338 337 332 334 335 333 329 326 324 329 331 330 333 326 330 327 327 327 331 326
348 351 350 349 349 349 351 343 342 347 338 343 343 338 336 336 336 337 337 336 335 334 334 337 339 334 333 332 332 333 333 332 328 333 334 330 333 332 329 326 328 330 330
344 346 351 350 348 348 344 346 345 348 343 340 335 337 337 336 335 336 338 340 341 335 335 337 339 338 337 333 333 333 334 333 332 328 325 329 330 332 332 330 327 325 329
343 346 349 347 350 343 347 348 347 346 343 341 338 338 336 336 336 335 336 339 340 342 337 336 338 339 336 339 334 334 333 334 332 330 328 328 331 327 325 331 329 328 331
345 346 347 349 347 351 346 347 346 346 342 339 336 337 337 336 335 337 338 337 338 340 341 333 336 335 336 338 338 338 336 336 335 336 336 335 335 334 329 327 328 330 331
346 347 352 345 346 352 349 346 345 344 341 334 334 337 337 337 335 336 337 336 338 339 341 342 340 339 337 335 336 337 339 339 337 335 334 334 335 335 336 335 336 335 335
347 345 352 348 348 349 348 343 346 344 341 337 338 337 338 338 336 336 335 334 334 335 337 338 341 342 339 336 335 334 334 336 338 339 339 339 340 340 339 340 339 339 340
344 345 345 345 348 350 344 344 341 345 342 336 338 338 338 337 336 336 336 335 334 332 333 336 339 340 340 342 334 328 326 326 328 331 334 336 338 338 338 338 339 339 338
346 346 343 344 350 348 350 345 344 345 343 338 336 339 337 337 337 337 337 335 336 333 334 335 335 336 335 332 329 323 321 320 319 319 321 326 330 332 334 334 335 335 336
345 347 344 343 345 351 351 347 348 346 344 340 338 338 335 339 338 338 337 337 335 335 335 334 334 335 334 332 327 323 321 320 320 318 316 315 315 315 316 316 317 319 320
344 352 347 345 345 346 350 347 346 342 347 342 336 339 339 338 338 338 339 337 337 335 335 334 334 334 335 334 334 328 327 327 327 327 326 324 323 322 321 319 317 316 316
352 350 351 345 344 349 349 349 348 344 342 339 336 338 338 337 337 337 336 338 336 335 335 334 334 333 334 334 333 330 328 328 328 328 328 328 327 325 323 323 322 321 320
350 351 347 344 349 345 348 347 348 348 340 335 324 336 338 339 338 336 334 335 335 335 335 334 334 334 333 334 334 332 330 329 328 326 325 326 327 328 327 326 324 324 324
351 352 352 344 342 345 344 347 349 348 344 332 324 325 336 338 339 338 336 335 336 335 335 335 334 333 333 333 334 331 331 328 328 325 322 323 324 324 325 326 327 326 325
352 353 352 342 346 342 342 347 349 346 342 333 328 322 325 336 338 337 336 335 335 335 334 335 333 333 333 332 332 328 330 332 327 327 326 327 328 328 327 326 325 325 327
350 353 352 347 347 343 341 344 349 348 338 336 336 328 323 333 337 336 335 335 334 334 334 333 333 333 333 333 333 328 334 330 328 328 327 327 326 325 325 328 328 327 326
349 348 348 344 345 346 342 344 344 352 337 335 334 332 324 326 335 336 337 335 334 334 334 333 334 334 331 330 334 333 334 334 334 332 328 326 325 324 324 326 329 329 329
347 347 348 348 345 346 344 343 341 350 344 341 337 333 333 329 323 328 337 336 335 336 334 336 335 335 334 336 334 337 335 334 334 332 329 328 326 323 322 325 327 326 324
345 346 347 348 347 344 344 342 341 341 347 342 342 337 340 335 324 332 331 335 336 336 334 334 335 337 336 336 336 334 336 336 334 332 330 328 327 324 321 321 320 320 320
345 346 346 346 347 346 346 342 341 340 344 345 344 342 344 341 338 334 325 324 330 333 336 335 334 334 336 336 335 333 335 337 335 333 331 330 328 326 322 321 321 321 321
344 345 346 346 346 347 350 341 338 339 340 343 344 343 345 344 342 342 339 332 330 329 333 336 335 334 334 335 336 334 333 333 332 333 333 331 331 331 330 328 328 328 326
344 345 346 346 346 347 348 341 335 337 337 339 344 344 346 345 344 345 345 342 336 328 332 334 335 335 336 336 336 335 334 333 332 332 332 332 330 330 329 328 327 326 325
348 345 345 346 346 346 346 340 333 335 334 336 340 345 350 349 345 346 346 346 344 337 329 337 338 337 338 338 337 335 334 333 333 332 332 331 329 327 326 325 324 323 319
348 346 345 345 346 346 345 345 341 336 339 343 344 348 351 351 347 348 348 347 346 345 338 330 335 338 338 338 336 332 332 330 332 332 331 330 326 324 324 322 321 319 317
350 348 348 345 345 345 346 345 345 344 341 346 351 352 352 350 348 349 350 348 346 345 341 334 331 336 336 334 333 334 334 332 332 331 328 327 323 321 321 319 317 315 311
348 355 355 348 345 345 345 344 345 347 345 344 349 347 344 347 347 348 350 349 346 345 342 339 332 333 335 334 331 329 331 331 329 325 324 323 319 318 318 316 313 312 311

GFSMA_850_thetae_027.txt.gz
Theta_e
349 350 350 350 349 348 349 346 345 342 340 347 340 337 338 336 338 341 341 333 331 332 333 339 336 334 332 333 334 327 322 323 329 331 331 333 326 330 329 327 327 328 327
351 351 350 350 347 347 349 347 345 348 342 344 340 337 338 338 335 338 342 335 330 331 333 337 338 333 332 333 332 331 330 329 328 331 334 331 333 331 330 327 326 329 331
347 350 351 347 349 350 344 348 348 347 342 339 337 337 340 337 337 337 341 343 340 332 332 338 339 337 335 331 330 332 332 331 329 326 326 327 329 331 331 331 329 326 328
351 347 351 351 351 348 348 347 346 342 342 341 338 339 336 337 336 336 337 341 344 343 336 334 339 338 335 336 333 333 332 333 333 332 328 326 329 329 326 327 330 327 326
351 350 351 350 347 350 347 346 346 345 341 338 337 336 337 336 338 338 336 339 339 342 341 333 334 337 338 339 339 336 335 336 335 335 335 336 334 334 332 329 328 329 331
348 350 351 351 348 351 349 350 346 344 340 336 335 338 338 336 337 338 338 338 337 339 340 342 337 339 335 335 336 338 339 339 336 335 335 334 334 335 337 337 336 336 335
352 353 354 353 349 351 347 347 348 342 340 339 338 338 338 337 337 337 336 334 335 338 338 340 342 342 339 335 335 335 335 336 338 339 339 339 340 340 340 339 339 339 339
354 352 346 353 353 351 348 349 347 344 340 338 343 339 337 337 336 336 336 335 334 334 334 339 340 341 342 339 335 329 327 326 328 332 334 335 337 338 338 338 339 339 338
353 354 353 349 353 351 349 350 344 347 345 337 340 342 338 338 337 337 337 337 336 334 335 336 337 338 338 335 329 325 321 320 319 319 321 325 328 330 332 332 332 332 332
353 353 352 352 351 351 350 347 349 348 345 341 337 340 343 344 341 339 338 337 337 336 336 336 336 336 335 334 331 327 320 319 319 318 317 316 316 315 315 315 315 315 316
353 353 354 353 352 347 351 347 351 341 348 347 339 339 338 337 339 341 340 338 338 336 337 335 336 336 335 335 336 329 326 326 326 327 326 325 323 322 321 320 319 318 317
355 353 353 353 352 352 353 352 350 350 345 345 341 340 341 340 340 340 339 340 339 337 336 335 335 334 336 336 335 334 328 327 327 326 326 327 327 327 327 325 323 323 323
350 352 349 353 353 346 354 352 351 352 342 347 331 340 340 340 340 339 338 338 337 338 337 335 336 335 335 335 336 335 331 329 328 327 323 324 324 325 326 326 326 326 324
350 350 351 351 353 354 347 352 354 353 351 343 338 328 340 341 341 340 339 338 338 337 337 336 336 335 336 335 335 335 334 330 329 328 325 325 326 326 326 326 326 326 327
351 350 352 354 354 354 354 352 353 353 351 346 346 327 328 339 340 340 339 338 337 338 338 338 336 335 334 335 334 334 334 333 331 328 327 327 326 325 325 325 326 327 326
354 354 353 355 353 353 352 351 353 353 351 351 348 344 330 337 337 340 338 337 336 335 336 337 338 336 335 334 335 331 334 334 330 328 327 326 326 325 325 324 324 326 328
356 351 356 353 349 347 350 351 350 352 351 345 346 346 341 330 338 338 338 337 336 336 335 335 336 336 335 331 337 335 334 336 335 335 334 331 327 327 325 323 322 325 328
347 355 351 355 351 347 349 352 348 351 353 350 350 346 345 331 326 335 339 338 337 337 336 335 336 338 336 337 332 338 337 335 336 336 334 332 328 328 325 323 321 321 324
343 345 351 352 350 350 348 345 344 341 347 350 350 351 342 339 331 331 330 338 339 338 339 337 337 338 338 339 338 339 337 336 333 335 333 333 330 330 329 327 323 321 320
340 342 347 349 349 348 348 345 338 338 339 339 343 348 351 346 336 332 330 328 335 338 338 338 337 336 336 338 338 337 336 336 337 336 334 333 332 331 330 330 329 327 328
339 339 342 345 346 348 353 350 348 343 339 337 343 348 353 352 346 334 335 336 334 334 335 337 338 337 336 336 337 336 337 335 335 334 334 334 334 332 331 331 330 329 328
340 341 341 342 344 345 349 353 351 346 343 347 350 353 351 354 353 345 339 341 342 340 338 337 336 338 337 337 338 337 337 336 334 335 334 335 334 333 331 329 327 326 324
352 346 343 344 343 344 345 346 351 350 346 346 352 353 353 353 352 350 342 342 344 344 344 341 336 337 338 338 338 337 337 337 336 335 334 334 333 332 329 326 326 325 324
352 354 352 349 346 344 344 345 346 349 349 351 352 351 352 347 352 351 347 344 345 346 346 345 341 335 333 338 340 337 336 336 334 332 333 334 332 329 326 324 324 323 320
357 355 358 358 351 345 345 344 346 347 350 350 349 350 351 350 348 351 348 345 345 347 347 347 345 337 335 338 332 336 337 336 335 334 332 332 329 325 322 322 321 319 316
359 360 357 355 350 345 348 346 345 349 350 349 350 350 350 348 350 351 350 348 348 347 349 348 345 341 333 334 329 333 336 336 334 332 331 327 327 323 320 320 319 316 314

GFSMA_850_thetae_030.txt.gz
Theta_e
351 349 351 348 348 344 335 348 346 339 345 338 336 336 339 336 341 342 339 329 329 330 334 335 329 334 332 332 327 323 321 328 332 331 330 331 326 330 329 326 327 326 327
350 348 350 349 348 347 347 348 343 336 345 342 341 339 337 337 335 340 341 339 329 329 330 337 335 331 332 333 332 328 326 324 327 329 333 331 332 331 331 329 325 327 329
351 347 349 350 349 350 345 345 342 343 342 339 335 339 337 337 336 339 342 342 338 334 333 338 339 334 332 332 334 333 332 331 329 327 330 327 329 330 332 331 330 330 330
352 345 351 350 345 349 345 344 343 345 342 342 336 339 338 336 334 337 340 343 343 342 335 336 339 338 337 334 335 336 333 333 332 332 330 326 327 330 328 327 328 331 328
341 352 349 348 347 348 348 346 343 346 340 339 340 336 338 336 338 337 337 340 340 340 339 337 334 337 338 338 337 335 334 334 335 334 334 336 334 333 334 333 331 330 332
342 342 350 352 348 349 350 346 346 342 338 336 338 338 337 335 337 338 338 339 336 338 340 339 339 340 335 333 335 338 338 339 337 336 335 335 334 335 335 336 336 335 335
344 345 350 351 348 346 349 341 341 343 338 338 335 336 334 336 336 337 335 334 337 337 342 339 339 341 338 337 335 334 334 335 337 339 339 339 339 339 339 339 339 340 339
349 346 346 348 353 348 348 340 348 345 340 339 341 339 339 337 336 336 335 335 334 334 335 338 339 338 340 339 332 329 325 326 326 327 329 331 333 334 336 337 338 338 337
347 349 351 347 353 349 349 341 342 344 342 336 342 343 338 338 337 336 335 336 334 334 334 335 338 339 338 335 328 323 320 320 319 319 319 319 320 321 323 323 324 324 324
349 351 352 348 348 350 350 348 342 344 346 343 332 340 342 344 339 339 338 338 335 336 336 336 336 332 334 335 333 324 320 320 319 319 319 319 318 318 317 316 316 316 315
349 348 355 351 345 346 352 350 346 345 342 347 340 337 337 338 340 342 339 339 338 337 337 337 337 337 336 336 336 334 326 325 325 326 326 325 325 324 323 322 322 321 321
352 351 353 352 349 345 352 352 347 341 346 344 344 341 341 339 340 338 340 340 339 338 336 336 336 334 337 336 334 334 332 327 326 323 321 322 323 324 325 325 325 324 323
353 353 348 353 351 346 348 350 348 344 338 345 342 339 341 342 341 341 339 340 340 338 337 336 336 335 335 336 336 336 335 331 326 324 321 324 326 326 326 326 326 326 326
351 352 352 349 347 345 346 351 347 350 349 337 330 339 340 340 341 341 340 338 339 338 338 337 336 336 336 335 335 335 335 333 327 326 325 326 326 326 326 326 326 326 326
352 351 350 350 350 350 345 346 351 347 350 349 333 325 336 340 341 341 340 339 338 338 338 338 337 336 335 335 335 334 333 330 330 330 328 327 326 326 325 325 325 325 326
350 353 351 351 350 351 349 351 346 347 351 350 349 334 325 330 338 340 340 339 337 336 336 339 337 336 335 335 335 334 330 331 333 331 328 328 327 326 326 326 325 323 324
357 350 357 353 351 351 346 350 349 347 345 350 350 347 336 329 329 337 339 338 337 336 334 334 338 337 336 334 334 336 334 333 334 332 334 334 333 331 327 327 325 323 322
347 357 351 357 354 354 345 344 342 345 352 350 347 347 344 336 332 334 339 338 337 337 336 335 335 338 337 337 336 332 330 334 336 337 337 335 334 331 328 330 329 327 323
345 344 351 351 356 354 350 345 340 340 341 353 351 349 348 339 333 330 333 337 338 338 337 336 336 336 336 337 338 337 336 336 331 333 335 334 333 333 332 330 329 328 327
338 341 342 348 351 349 348 348 348 342 338 340 350 355 350 346 338 331 330 328 331 337 336 336 335 334 338 338 338 339 336 336 335 335 337 336 334 333 333 331 330 330 329
339 337 339 341 346 349 346 345 348 347 346 339 338 350 353 349 341 336 335 333 329 335 338 337 337 337 337 336 338 338 338 336 336 335 336 336 335 334 333 333 332 331 330
346 345 342 342 343 343 343 342 343 346 347 347 344 342 350 350 345 343 339 340 334 331 331 333 335 336 338 337 336 336 338 337 337 335 335 334 334 334 334 333 330 327 325
354 350 350 348 343 341 339 340 341 343 347 348 346 345 344 344 348 347 346 343 343 337 339 339 339 337 337 337 337 338 338 337 336 336 336 335 334 333 333 329 327 325 324
358 356 354 351 350 343 342 340 341 344 347 348 350 347 345 344 349 349 347 348 345 343 340 342 343 343 339 338 339 338 338 338 335 334 334 335 331 330 330 328 325 324 323
363 360 356 358 355 350 351 350 351 353 351 350 351 351 351 350 347 353 353 348 345 346 343 342 343 345 345 343 336 338 340 338 332 331 331 332 332 332 330 323 322 321 320
362 364 361 358 360 358 359 358 360 359 356 353 355 354 353 353 351 350 354 354 353 347 345 344 344 344 344 343 339 339 337 337 334 335 332 332 332 331 327 323 320 320 317

GFSMA_850_thetae_033.txt.gz
Theta_e
347 348 349 346 345 345 338 345 343 339 339 336 337 338 339 342 342 340 338 328 330 331 337 329 333 332 331 329 323 323 326 330 332 331 330 328 326 329 327 326 327 327 329
347 347 347 345 347 347 343 343 343 338 338 335 338 337 338 336 338 340 341 331 330 329 330 338 332 332 331 331 330 325 322 323 326 329 332 330 331 331 331 330 326 325 326
348 348 346 348 347 344 343 342 340 342 339 336 336 338 335 337 337 341 341 341 339 333 334 338 337 332 331 331 331 331 329 329 326 325 331 328 332 330 331 331 331 330 330
347 347 351 346 346 346 345 343 343 345 343 339 337 338 337 336 336 336 337 338 341 340 334 336 338 337 336 332 331 333 332 331 331 331 331 326 326 329 329 327 331 327 329
342 343 349 348 346 346 345 343 343 342 339 340 337 337 336 337 335 337 338 339 339 339 340 337 334 337 337 337 334 333 332 332 333 332 331 333 334 333 334 334 333 333 333
338 346 348 349 344 346 344 344 344 341 338 337 337 337 336 335 337 337 338 339 338 340 338 336 339 338 335 333 336 337 337 338 337 335 335 335 334 334 334 335 335 335 335
343 341 345 348 348 347 345 344 338 338 336 338 338 336 334 337 337 338 338 334 336 339 341 338 340 338 339 336 334 333 333 334 336 338 338 338 338 339 339 339 339 339 339
344 341 342 350 347 347 347 342 344 341 337 337 338 337 336 336 337 335 334 335 335 334 336 337 336 336 337 336 331 324 324 325 326 328 329 331 332 333 333 334 335 335 335
345 341 344 345 350 351 349 341 344 343 339 339 342 342 339 337 337 336 335 333 334 335 334 334 334 334 333 331 328 323 320 319 319 319 319 319 319 319 319 319 319 318 318
346 345 343 349 347 350 346 347 341 343 341 339 340 343 340 341 337 337 337 337 337 335 336 336 335 332 333 334 334 326 321 320 319 318 318 318 319 319 319 319 318 318 318
347 345 345 350 348 346 344 349 345 341 345 344 340 335 341 342 338 342 338 338 338 336 336 336 337 336 336 334 335 335 330 324 323 324 323 323 323 323 323 323 323 322 322
347 349 345 350 350 344 344 349 346 340 343 345 341 340 338 338 338 339 339 340 339 337 337 335 335 335 334 336 335 336 335 333 323 319 320 322 323 325 325 325 325 325 325
348 349 351 348 349 346 343 345 350 345 340 344 345 340 341 340 341 341 340 340 340 339 337 336 336 335 335 335 336 335 335 334 327 320 322 325 325 325 325 325 325 325 326
348 350 349 351 344 345 345 341 344 346 343 337 342 339 340 341 341 341 340 338 338 339 337 337 336 336 336 335 335 334 334 335 333 326 325 325 326 326 326 325 325 325 324
352 351 350 350 351 349 346 341 343 346 346 344 331 332 336 341 341 341 338 338 339 339 338 338 337 336 336 335 335 335 334 331 329 328 329 327 326 326 326 326 326 325 323
351 353 352 350 351 350 349 348 342 342 346 345 338 332 325 334 339 340 340 335 336 338 337 338 338 337 336 335 335 334 334 334 330 329 329 328 330 327 328 327 326 327 324
352 351 353 354 350 350 350 350 343 343 344 345 346 343 333 326 337 339 340 338 335 333 333 335 336 337 336 336 335 334 335 335 334 330 333 333 334 334 333 330 329 329 327
350 350 349 351 356 353 351 351 343 339 345 343 344 347 340 337 329 333 335 338 337 334 332 330 334 338 337 336 336 336 335 332 332 331 335 336 336 335 332 331 330 328 326
335 345 356 352 351 355 355 353 351 338 336 338 339 346 346 344 338 334 331 334 338 337 335 334 333 334 337 337 337 337 337 335 334 331 332 334 335 334 333 332 331 330 329
334 336 342 355 354 352 352 354 352 348 341 336 338 338 347 349 340 337 336 332 335 337 337 335 334 335 335 336 337 337 337 337 334 334 333 334 334 335 334 333 332 332 329
336 335 336 339 346 351 351 350 349 348 346 344 342 338 337 336 337 336 336 335 332 334 335 335 335 334 334 334 335 336 337 337 337 335 334 334 335 335 335 334 333 333 332
335 336 336 337 341 343 344 344 345 347 346 346 343 342 342 339 337 337 339 339 338 334 332 332 329 332 332 333 333 335 337 337 338 336 335 335 335 335 335 333 332 330 329
342 340 341 341 341 339 341 345 346 348 346 345 344 343 341 342 342 341 340 345 346 342 341 336 331 330 333 334 336 336 336 336 337 337 336 335 334 335 334 334 333 331 327
352 349 347 347 347 343 343 344 348 352 354 352 350 346 345 343 343 343 342 345 349 348 345 345 341 333 332 335 336 337 337 337 337 338 337 336 334 334 333 330 329 329 325
358 358 357 356 354 352 353 354 355 355 355 356 357 356 353 350 349 349 350 350 348 348 346 349 348 345 337 336 336 339 340 339 339 338 337 335 331 331 332 330 331 329 321
359 359 359 359 358 358 359 360 360 360 358 358 358 357 358 358 358 357 355 354 353 350 349 347 350 349 347 341 340 337 338 340 339 338 338 334 330 332 333 332 331 327 320

GFSMA_850_thetae_036.txt.gz
Theta_e
347 346 345 346 344 342 344 343 339 340 338 338 338 337 339 342 339 336 330 328 330 333 337 330 332 330 326 322 325 329 331 332 334 330 329 326 327 330 327 326 326 327 329
348 345 344 345 345 344 343 343 337 337 337 338 337 337 335 337 340 339 335 334 329 329 335 333 332 331 331 330 325 323 321 326 328 330 330 330 331 331 329 329 326 325 325
346 347 345 345 345 342 343 340 342 338 334 334 339 337 336 337 341 340 336 340 339 333 335 339 332 330 331 332 330 327 326 325 325 325 331 329 331 331 330 328 329 329 329
343 347 346 345 346 343 343 342 344 341 338 337 338 337 336 336 338 337 337 340 338 334 334 337 338 334 334 330 334 331 331 331 330 329 332 328 326 328 328 326 332 328 327
340 344 346 346 345 344 343 342 343 339 341 338 338 337 336 335 336 336 338 338 338 338 336 334 336 337 336 336 333 333 332 331 331 331 330 330 334 333 333 335 335 335 335
338 341 345 346 345 346 344 342 342 339 338 337 337 335 336 337 337 336 339 338 339 338 333 336 338 338 334 333 336 337 336 336 336 335 335 335 335 334 334 335 335 335 335
342 340 343 346 344 345 344 343 344 337 337 338 337 335 336 337 338 337 339 337 337 338 337 337 336 337 337 335 333 332 332 333 335 337 338 336 337 338 338 338 338 339 338
344 342 341 343 346 345 344 342 339 336 338 337 336 335 335 336 338 335 334 335 334 334 334 334 333 333 336 331 323 322 322 322 326 327 330 330 331 333 334 334 335 334 332
344 344 342 344 347 347 347 345 341 338 336 337 337 336 335 336 334 335 335 334 334 335 334 335 334 332 330 332 328 321 319 318 319 319 319 320 320 320 320 318 317 316 315
347 345 342 342 344 348 349 345 341 341 336 337 341 341 337 337 336 335 335 333 335 335 335 335 335 335 334 334 334 331 323 321 319 318 318 318 318 318 318 318 318 318 319
347 346 346 342 346 345 348 347 340 342 339 338 339 341 340 340 337 338 337 336 336 336 336 335 336 336 335 335 334 334 334 328 321 321 322 322 322 323 323 323 323 324 323
344 346 347 343 348 346 345 346 348 341 343 344 340 333 339 341 339 340 339 338 338 338 337 336 335 335 335 334 335 335 335 334 322 318 321 323 324 325 325 325 325 325 325
346 347 347 347 344 348 345 342 349 339 342 344 344 338 339 336 337 338 338 339 340 340 338 336 335 335 335 335 335 335 335 334 332 320 324 325 325 325 325 325 325 325 325
347 347 347 349 348 346 347 343 346 346 342 341 343 342 340 339 341 341 341 339 339 339 339 337 337 336 335 335 335 335 334 334 333 327 324 325 326 325 325 325 325 326 325
348 347 348 349 348 348 344 344 342 345 346 342 339 343 339 340 341 341 341 340 338 338 338 338 337 337 336 336 335 335 334 333 331 326 327 327 326 326 326 326 325 326 327
345 347 350 350 349 350 349 347 344 341 346 345 341 333 335 335 338 340 340 339 337 338 338 338 338 338 337 336 335 335 334 334 334 330 327 327 327 329 327 332 329 327 328
345 348 351 351 350 350 350 350 349 347 341 343 344 341 329 326 331 335 335 336 335 335 334 334 336 338 337 336 335 335 334 334 334 334 330 330 330 333 334 333 330 330 327
344 350 350 351 352 353 351 350 350 349 346 342 339 341 337 334 326 328 333 333 334 337 334 330 329 333 336 337 336 335 335 335 334 333 332 332 335 335 335 334 332 330 329
341 348 354 351 350 351 353 353 350 350 350 339 338 340 335 338 339 332 327 332 333 334 336 336 333 332 332 336 337 336 335 336 336 334 334 331 333 335 335 334 333 331 331
336 339 345 351 350 348 349 350 353 352 350 347 338 336 336 335 334 338 341 335 330 333 336 337 336 335 333 333 336 336 336 336 336 336 333 331 331 332 333 333 334 333 332
333 334 335 342 343 349 351 350 351 350 350 348 346 343 339 336 333 332 334 339 343 341 335 336 338 337 336 335 334 334 335 335 336 336 335 333 333 333 334 335 334 333 332
334 334 334 334 335 336 341 349 351 351 352 350 348 346 346 345 343 341 338 336 335 341 344 340 336 337 336 334 333 334 334 335 336 336 337 336 334 334 334 334 335 334 333
334 334 334 334 334 335 335 336 339 343 347 348 348 348 347 347 346 346 344 344 342 339 341 342 344 339 335 333 332 333 334 334 333 336 336 336 336 335 333 334 334 334 333
348 344 339 337 336 337 338 339 341 343 346 347 348 349 349 348 347 347 347 347 346 345 343 343 344 340 341 340 340 336 331 333 334 336 336 337 337 336 335 333 333 334 333
355 355 355 354 353 352 351 351 351 352 353 353 353 352 350 350 351 354 355 355 353 349 349 348 347 346 345 345 345 345 337 335 335 336 337 336 338 337 336 333 331 331 330
356 356 357 357 357 357 358 359 360 360 359 358 358 357 357 359 360 360 360 358 357 355 357 356 355 353 351 351 351 350 347 337 335 337 337 338 338 337 336 333 330 331 331

GFSMA_850_thetae_039.txt.gz
Theta_e
344 345 345 343 343 342 343 340 340 340 337 337 336 339 340 339 338 332 328 329 335 338 332 331 330 326 321 325 327 330 334 332 329 328 327 325 327 328 326 326 326 327 327
344 344 345 346 344 341 342 339 339 338 337 336 335 334 338 339 338 334 335 331 329 339 338 329 332 331 329 324 323 323 325 328 329 330 331 332 331 332 330 329 329 327 328
345 344 344 345 343 342 339 340 338 338 338 337 336 336 336 339 339 337 339 337 335 333 338 338 331 332 335 333 329 325 324 322 325 326 332 330 328 334 330 328 329 329 332
343 345 345 345 342 342 340 343 340 338 337 339 338 336 335 337 339 338 338 337 335 334 334 337 339 333 333 331 333 332 330 330 330 329 331 333 327 327 328 327 331 333 330
343 345 346 345 345 343 341 343 342 340 336 338 337 336 335 336 336 336 337 337 338 333 335 334 336 337 336 336 333 334 333 332 331 331 330 329 332 335 335 335 335 336 336
342 341 345 345 346 344 341 342 341 338 339 337 336 337 336 335 335 336 338 338 338 335 334 336 337 337 334 332 334 336 336 336 336 336 335 334 335 335 334 335 336 336 336
342 338 341 345 344 344 343 344 343 339 337 336 336 335 337 337 337 336 339 338 336 336 335 337 335 337 336 333 329 332 331 332 333 335 337 337 336 337 337 337 337 337 337
343 343 339 343 346 344 345 344 342 337 337 337 336 335 336 336 337 337 335 337 336 334 334 332 331 331 334 325 322 320 320 321 322 326 328 330 329 328 329 331 331 330 326
344 344 343 341 342 344 344 345 339 337 337 337 335 334 335 336 336 334 334 335 335 335 334 334 334 331 329 332 327 320 319 318 318 318 319 320 319 319 318 317 315 315 315
345 345 344 343 343 346 347 345 340 339 336 336 336 335 335 336 335 335 335 334 334 336 334 335 335 335 334 333 333 331 326 321 319 318 317 317 317 317 318 319 319 320 320
345 345 346 345 342 343 346 347 340 342 338 336 339 340 338 339 336 336 336 336 335 336 335 336 335 336 334 335 334 334 334 325 318 321 321 321 321 322 322 323 324 325 325
344 344 346 346 343 345 345 347 346 342 340 336 337 339 340 341 338 336 339 338 338 338 337 336 336 335 335 334 334 334 334 332 321 320 320 321 323 324 324 324 324 324 324
346 343 343 346 344 344 346 345 346 345 340 341 342 338 334 337 338 340 339 338 339 338 338 338 336 336 335 335 334 334 334 334 332 323 324 325 325 325 325 325 325 325 325
347 346 345 346 347 344 345 346 343 348 343 341 344 343 336 338 336 337 339 340 338 339 339 338 337 337 336 335 335 335 334 333 333 332 324 324 325 325 325 325 325 325 326
347 347 346 346 347 348 347 348 345 342 347 340 339 340 342 338 337 339 340 340 339 339 338 335 337 337 337 336 336 335 334 334 333 331 327 327 326 326 326 326 326 327 327
345 347 347 347 347 348 349 347 346 344 342 344 342 338 340 340 338 340 340 340 340 339 338 335 334 336 337 337 337 335 335 334 334 333 332 326 327 326 327 327 329 330 328
344 344 344 346 348 349 349 349 347 346 345 340 342 341 335 333 336 337 338 339 339 338 337 332 331 333 335 336 336 336 335 335 334 334 334 333 328 328 329 333 333 331 330
343 342 343 344 349 349 349 349 350 350 348 347 340 341 340 339 330 328 333 335 337 336 337 334 332 332 331 331 333 335 336 335 335 335 334 333 331 331 331 334 335 333 331
343 344 342 345 347 349 350 351 352 350 350 349 348 343 335 337 337 331 327 327 330 334 336 336 333 333 334 333 331 331 335 336 335 335 335 333 333 331 332 333 334 334 333
339 340 342 341 348 349 348 350 351 352 351 350 349 349 345 336 335 334 334 335 334 331 329 331 332 332 334 335 335 333 332 334 335 335 335 335 333 332 329 330 332 334 333
338 335 337 339 339 348 350 348 348 347 349 348 348 348 346 342 338 335 335 334 335 338 342 340 337 334 333 333 334 332 334 332 332 334 334 335 335 334 332 331 332 333 334
337 335 333 334 336 337 338 340 344 345 345 346 346 345 345 346 345 345 344 343 341 339 339 341 343 345 342 340 336 334 334 336 335 332 334 333 334 336 335 333 333 334 334
336 334 333 333 332 333 334 334 337 341 340 344 346 346 345 344 346 347 348 349 349 348 347 345 344 343 340 338 341 344 340 336 335 333 334 332 333 334 336 336 334 334 334
341 338 335 334 334 334 333 334 335 337 337 337 338 338 341 342 345 347 349 350 350 350 351 350 350 348 347 345 346 346 345 347 344 340 337 336 335 334 334 336 336 334 333
348 347 346 347 346 345 344 342 342 343 343 343 343 345 347 349 351 353 355 356 355 355 355 355 355 354 353 354 353 353 353 350 349 348 346 341 337 334 334 335 336 336 334
353 354 355 355 355 356 356 356 357 356 356 356 356 357 357 357 358 358 359 358 357 358 357 356 356 355 354 354 355 356 355 346 346 344 346 343 343 338 335 335 336 337 335

GFSMA_850_thetae_042.txt.gz
Theta_e
341 343 343 342 342 342 340 340 338 337 336 336 336 339 337 338 334 328 330 335 338 336 331 329 327 323 323 326 329 332 334 330 327 328 328 326 326 327 328 328 326 325 326
342 343 344 344 342 341 341 341 339 337 335 333 332 339 339 338 334 334 333 331 336 338 336 330 331 329 326 323 324 325 328 329 330 329 331 331 331 331 329 329 329 329 330
343 343 343 344 342 341 339 339 338 337 335 335 335 336 339 339 336 338 336 335 333 337 339 336 337 331 333 330 328 325 323 322 324 326 328 330 326 330 332 328 326 332 328
343 343 344 343 341 339 339 340 339 337 338 339 335 334 338 338 337 338 337 335 335 334 335 338 338 332 332 334 333 333 330 330 330 329 328 333 332 332 328 330 333 334 334
344 344 344 343 342 341 340 342 340 340 337 338 337 335 335 337 337 337 337 337 333 333 335 335 337 337 336 337 334 333 334 332 331 331 332 331 330 333 335 334 334 334 334
344 343 343 343 344 339 341 341 340 339 338 337 336 336 335 336 336 337 338 338 336 334 334 337 337 336 334 332 333 335 336 336 336 337 336 335 334 334 333 335 338 338 338
344 342 342 342 343 343 341 340 341 338 338 336 335 336 336 336 336 336 338 337 337 334 335 335 335 336 335 331 326 328 331 330 330 332 334 336 336 336 336 336 335 334 333
343 342 342 342 342 343 344 343 342 340 336 336 336 335 336 336 337 336 337 336 336 334 334 333 332 331 330 324 321 320 320 320 321 323 326 327 327 326 326 327 324 321 317
345 343 343 343 342 343 345 343 340 336 337 337 336 335 335 335 336 336 334 334 335 334 334 334 334 329 330 331 326 321 319 317 317 318 318 319 319 318 316 315 315 316 318
345 344 344 343 343 343 345 345 342 336 337 337 335 334 334 335 336 335 334 335 334 335 334 335 335 334 333 333 332 332 328 320 320 318 317 317 317 317 318 319 321 322 323
345 344 344 344 344 342 345 347 343 340 337 336 336 336 336 334 337 336 336 337 336 336 336 335 335 335 334 334 334 333 333 325 318 320 321 321 321 321 322 324 324 324 324
344 344 344 345 345 344 344 345 346 340 340 337 336 337 340 339 339 337 336 338 338 338 337 337 336 335 335 334 334 334 334 333 325 322 322 322 324 324 324 324 324 324 325
336 342 342 344 345 344 343 346 345 344 340 340 336 336 338 337 340 340 338 339 338 338 338 337 337 336 335 335 334 334 334 333 332 330 322 325 325 325 325 325 325 325 326
333 339 341 342 344 346 343 347 344 342 346 343 339 341 341 337 335 337 337 337 339 339 338 337 336 337 336 336 335 335 334 333 332 332 330 325 324 325 325 325 325 325 326
335 339 343 344 344 346 347 345 346 342 341 346 337 340 342 342 339 339 336 339 340 340 338 335 335 335 337 337 336 335 334 334 333 332 332 328 326 326 326 326 326 326 329
338 339 343 345 345 346 347 347 347 344 342 341 345 343 340 338 342 340 339 340 340 340 339 334 333 334 333 334 336 337 336 335 334 333 333 333 330 327 327 326 326 327 330
340 338 341 344 346 346 347 347 348 346 343 341 340 341 341 340 336 341 340 338 338 339 339 333 333 332 331 330 331 332 335 336 335 335 334 333 333 333 329 328 328 332 333
341 338 339 340 342 345 347 348 348 348 347 346 343 340 338 341 338 333 333 332 334 334 335 333 330 330 331 332 333 332 330 331 334 334 335 335 334 333 333 330 329 332 334
342 340 339 338 338 341 346 348 348 349 349 349 348 348 346 342 338 338 338 335 329 327 327 328 327 327 327 329 330 331 332 332 331 330 334 335 335 335 333 332 331 332 335
345 342 339 338 335 338 342 344 345 348 350 350 349 348 348 346 342 337 334 334 335 336 338 340 337 335 334 332 332 332 332 332 333 333 331 332 334 335 335 334 332 331 331
346 344 341 337 337 336 336 339 340 341 345 348 349 348 346 343 340 340 341 335 334 333 334 335 335 335 333 334 335 337 340 339 338 336 335 334 332 333 334 335 334 331 329
345 345 343 338 334 334 333 332 335 337 338 340 340 340 342 342 341 342 343 344 346 347 348 347 346 345 344 343 342 340 340 341 341 339 338 337 336 334 333 333 334 335 333
344 343 342 338 335 331 330 331 332 334 336 336 337 337 337 337 340 341 342 344 346 349 351 352 352 351 350 350 350 350 350 349 348 348 348 348 347 344 341 338 334 334 336
342 342 341 338 336 333 331 331 332 333 334 333 333 334 336 335 336 338 339 340 342 345 349 351 354 353 355 356 357 356 356 355 353 353 353 350 351 350 349 346 342 336 334
341 341 341 340 338 337 336 335 336 336 336 335 336 336 337 338 340 341 344 348 350 352 354 354 355 355 355 355 355 356 355 353 353 353 353 350 351 350 349 349 349 345 336
347 347 346 346 347 347 349 350 351 351 349 348 348 348 349 351 353 355 356 358 359 357 356 356 355 354 354 354 354 354 353 354 354 352 352 349 351 346 341 348 346 344 344

GFSMA_850_thetae_045.txt.gz
Theta_e
341 342 341 342 342 342 340 338 337 336 337 337 337 339 339 334 330 330 340 336 337 332 330 328 330 324 326 328 334 333 334 329 328 331 330 329 329 330 329 329 328 328 328
343 344 342 343 343 342 341 340 337 337 332 331 337 339 339 336 335 335 334 333 336 338 333 332 331 327 324 323 325 327 328 329 328 327 329 331 329 333 331 328 327 329 328
342 343 344 343 343 340 340 339 337 336 333 335 335 340 338 336 338 337 335 333 336 337 339 336 334 332 333 330 328 325 324 323 324 325 324 328 327 326 327 326 328 332 332
342 343 343 343 341 340 341 337 337 335 335 337 336 338 339 337 338 338 336 335 334 339 338 338 338 334 333 334 333 333 332 331 330 330 329 330 330 333 334 335 335 335 335
343 344 344 343 341 340 340 340 338 336 337 337 335 334 336 336 337 338 338 334 334 335 336 335 338 337 337 337 335 334 333 334 332 332 332 334 333 334 334 334 334 337 338
343 344 342 343 344 339 342 342 339 338 336 338 337 335 334 336 336 338 336 335 335 333 335 336 336 337 334 332 332 333 336 337 337 337 337 337 336 335 334 337 337 336 335
343 342 342 342 343 341 340 340 340 339 338 335 335 336 334 335 336 336 338 335 335 333 334 333 333 335 336 331 325 323 329 329 328 329 331 333 335 334 332 331 331 330 325
343 342 341 342 343 343 342 342 342 340 338 336 336 336 338 337 336 336 337 336 334 334 334 334 332 332 326 323 321 320 319 319 319 320 322 325 325 325 325 324 320 316 315
344 343 343 343 341 343 343 341 340 341 337 336 336 337 336 338 337 336 335 334 334 334 334 334 334 329 330 332 328 324 320 318 317 317 317 317 317 316 315 316 317 319 320
345 344 343 343 343 343 343 344 341 335 337 337 336 335 334 335 338 338 335 335 334 335 335 335 335 334 333 331 332 331 328 319 319 319 318 318 318 318 319 321 323 324 324
344 344 344 344 343 342 345 346 344 340 337 337 337 335 335 334 335 338 339 340 336 336 336 335 335 335 334 334 333 333 331 326 318 318 319 319 320 322 324 324 324 324 324
343 344 344 344 345 345 343 344 346 341 339 337 336 337 339 342 342 341 340 340 339 338 337 337 336 335 335 334 334 333 332 330 326 322 325 324 324 324 324 324 324 325 325
341 340 343 343 343 344 343 344 345 345 343 341 338 335 336 337 337 339 339 342 340 339 338 338 337 336 335 334 334 334 334 332 330 330 327 323 325 325 325 325 325 325 325
338 337 337 339 341 344 344 342 345 345 344 343 340 340 339 340 339 335 337 339 341 343 339 337 336 336 337 336 335 334 334 333 332 331 331 329 327 324 325 325 325 325 325
340 334 334 339 341 343 345 345 344 345 344 342 346 343 340 342 343 339 339 338 341 342 341 340 335 335 335 336 337 337 336 334 333 333 332 332 331 328 326 326 326 326 326
342 335 334 340 343 344 345 346 347 346 345 344 341 345 339 339 339 340 340 339 339 341 342 340 336 332 332 331 331 333 334 336 336 335 334 333 333 332 332 328 327 326 326
344 340 337 337 343 343 345 346 347 347 347 345 343 340 342 343 342 339 337 340 339 339 339 338 334 330 330 331 332 332 331 330 331 333 335 335 334 334 333 333 332 328 327
345 342 340 336 341 342 344 346 347 347 347 346 343 343 341 339 339 341 340 334 332 333 333 328 327 327 326 327 328 329 330 331 332 332 331 331 334 335 335 334 334 333 330
345 345 341 338 337 339 342 345 346 347 346 346 346 347 346 346 344 341 337 337 337 336 336 334 331 332 331 333 332 332 333 333 332 332 332 332 333 332 333 335 335 334 332
345 346 341 338 337 335 336 339 344 345 345 346 346 347 347 347 345 343 343 340 339 338 337 335 334 337 337 333 332 332 333 333 335 335 335 336 337 336 335 333 334 335 335
345 346 345 341 338 337 333 333 337 340 342 344 345 345 345 343 344 344 345 344 345 345 345 348 349 348 348 348 347 347 347 347 347 347 346 344 343 341 340 338 336 334 334
346 346 346 346 342 335 333 330 330 333 334 336 337 339 341 341 341 341 343 345 348 348 346 348 351 352 350 350 352 351 352 351 351 351 349 349 350 350 350 349 347 343 337
346 346 346 346 345 340 333 331 331 332 332 332 331 331 331 332 332 333 335 337 340 344 347 348 348 348 348 350 352 354 355 355 354 354 353 352 350 350 350 350 351 352 350
345 344 345 345 343 341 336 334 333 334 334 333 332 331 331 331 332 332 333 334 335 335 336 338 340 343 348 353 356 356 356 355 355 355 352 351 351 350 350 349 351 352 351
345 343 343 343 341 338 336 333 335 336 334 332 332 332 332 332 333 333 334 336 337 340 344 347 353 355 356 355 354 356 355 356 356 354 352 351 352 351 351 350 348 348 348
343 343 342 340 339 338 337 336 337 339 338 336 336 336 336 337 338 341 345 349 352 355 357 356 357 356 355 356 356 356 357 357 358 356 355 356 355 352 349 347 346 347 346

GFSMA_850_thetae_048.txt.gz
Theta_e
348 348 347 347 347 346 345 345 344 343 342 344 345 345 344 341 340 343 345 338 334 330 329 332 332 325 327 333 336 333 334 330 330 335 332 332 331 331 329 328 328 329 329
346 347 345 347 348 347 346 345 344 342 340 341 345 344 344 343 342 341 343 338 337 336 330 332 330 326 323 325 326 327 328 327 327 327 327 330 327 330 331 327 326 332 332
343 343 348 344 348 343 341 344 343 340 340 340 343 344 343 344 343 343 343 343 342 337 338 337 332 331 332 330 328 326 325 324 324 327 327 331 332 331 329 332 334 335 335
343 345 344 348 348 346 345 342 340 342 337 338 342 342 341 342 343 343 343 343 342 344 340 338 337 334 334 334 335 334 334 332 331 331 331 330 329 331 334 335 334 335 337
343 348 350 349 342 347 347 344 342 340 340 337 337 339 339 341 341 340 343 342 339 341 343 338 337 337 337 337 336 335 334 334 335 334 335 335 335 334 334 334 337 337 337
343 347 349 343 347 345 344 347 343 342 342 339 337 337 339 339 340 340 340 340 338 340 341 344 345 343 334 332 331 331 333 334 335 334 334 335 337 336 336 336 334 333 330
342 341 345 346 345 347 347 345 342 341 340 340 338 336 336 339 342 341 340 339 340 339 340 340 341 342 343 333 325 321 321 328 327 324 325 327 329 330 329 328 327 323 316
343 347 347 346 349 346 344 343 345 342 340 338 339 337 338 339 340 341 341 340 341 340 340 341 339 340 337 337 330 319 318 318 318 318 319 321 323 322 321 318 315 316 319
344 345 341 347 341 347 348 348 344 344 341 342 338 341 338 339 340 340 341 341 341 340 341 341 341 340 340 340 333 331 321 319 318 317 316 316 316 316 316 317 320 322 323
344 344 343 343 342 347 347 347 346 344 342 341 340 339 337 340 340 341 340 340 341 341 341 341 340 341 341 340 337 331 326 318 318 319 318 318 318 318 320 323 324 324 323
344 346 343 343 343 348 347 347 343 340 341 342 342 342 342 342 340 341 341 341 341 339 339 341 340 340 341 341 341 339 331 328 320 319 319 320 321 322 324 324 324 324 325
350 344 344 344 343 344 347 347 344 341 345 341 342 342 343 344 343 343 342 343 342 342 341 341 341 341 341 342 340 333 330 329 327 323 325 325 324 324 324 324 324 325 325
346 350 344 344 347 343 349 349 344 347 343 346 338 342 341 342 343 343 343 342 343 342 343 342 342 342 341 341 341 336 333 332 330 328 327 326 324 325 325 325 325 325 325
345 347 350 348 341 344 344 348 348 350 351 347 343 344 345 344 344 342 342 343 342 344 343 337 342 342 343 342 342 336 335 334 333 332 331 330 329 326 325 324 325 325 325
346 348 349 351 349 343 344 351 350 352 352 350 353 350 348 346 347 345 344 343 343 343 342 344 340 340 338 341 341 335 336 336 336 336 334 333 333 332 331 329 326 326 326
346 347 345 348 348 348 341 344 352 352 353 353 351 352 349 347 348 348 347 345 344 343 342 341 342 342 341 337 339 331 331 331 330 330 334 335 335 334 334 333 333 331 328
345 343 342 340 349 351 348 343 348 352 353 353 353 352 350 349 350 348 348 347 346 345 343 341 340 341 337 328 327 330 329 329 333 331 331 331 331 332 334 335 334 334 333
344 344 343 340 343 349 352 351 347 351 353 353 353 353 352 351 340 340 349 350 346 345 344 343 344 343 342 342 336 331 333 338 341 339 336 332 332 332 332 332 332 334 335
344 344 345 343 340 345 351 350 347 350 353 354 354 354 353 353 353 349 352 351 350 353 352 352 349 347 346 346 347 347 346 344 342 343 342 339 337 336 336 336 335 334 333
345 344 344 345 341 337 347 351 350 345 351 353 353 354 355 354 354 353 353 354 354 353 351 351 349 347 345 345 347 349 349 350 349 349 349 348 347 346 346 345 342 338 337
345 345 345 345 344 345 346 347 349 350 349 349 353 352 349 350 348 347 354 354 355 354 351 350 348 349 349 350 351 351 353 353 352 353 352 353 352 351 350 348 347 347 347
345 345 345 345 346 348 345 341 340 348 349 349 349 347 343 343 340 341 344 344 346 348 351 354 351 351 351 353 353 353 352 352 354 357 359 357 355 355 355 354 352 350 348
345 344 345 345 346 344 339 335 333 335 345 346 344 346 347 349 347 341 337 334 335 336 339 341 343 345 344 347 349 353 354 356 358 359 357 357 357 355 355 354 353 352 351
346 346 345 345 345 344 339 337 334 334 334 335 341 346 338 333 339 347 352 352 350 347 343 337 335 335 338 349 356 356 356 355 355 356 355 355 356 355 356 354 355 354 352
347 346 345 345 344 342 338 334 337 340 338 333 331 331 332 331 330 330 331 332 334 338 348 348 347 349 356 357 356 357 356 358 356 356 358 357 356 357 355 355 352 348 349
346 347 346 345 342 340 338 335 337 341 345 344 337 332 331 331 330 331 332 334 336 342 354 358 360 361 361 361 356 357 359 360 360 358 357 355 354 354 349 346 345 344 344

GFSMA_850_thetae_051.txt.gz
Theta_e
348 347 346 347 346 345 344 345 342 344 340 341 345 344 341 342 344 344 342 336 329 330 333 336 329 325 328 336 332 333 332 332 329 332 330 331 330 333 330 326 327 330 330
350 348 347 348 346 346 346 344 345 343 341 341 341 343 343 342 343 344 345 337 337 332 330 329 328 325 323 324 325 326 330 326 326 325 325 328 325 326 327 328 332 334 334
345 350 348 347 349 343 340 337 341 342 340 343 341 343 341 344 342 343 343 345 344 341 338 334 329 330 329 328 327 326 326 326 326 328 328 329 332 332 334 335 334 334 335
343 348 348 346 346 346 346 343 342 339 342 340 344 343 341 342 342 343 343 344 344 345 343 335 337 334 333 333 333 332 332 331 331 330 330 332 332 332 334 334 334 338 338
351 350 348 348 347 346 344 341 342 337 340 339 337 341 341 340 342 342 342 342 339 344 347 341 337 337 336 336 336 335 334 333 334 335 336 337 337 335 335 335 337 335 332
351 351 351 343 345 345 347 346 345 343 339 339 337 339 341 341 340 341 340 341 339 341 344 340 343 343 339 333 330 327 329 331 333 331 331 331 334 336 334 331 329 325 321
350 349 350 344 349 346 347 346 340 337 341 339 339 336 337 338 342 339 339 339 340 340 339 341 345 344 343 339 331 319 319 322 325 322 321 325 327 327 325 324 320 316 316
351 348 350 350 347 350 350 348 346 341 340 339 341 338 338 339 341 342 339 340 340 340 342 342 340 338 343 341 335 320 319 318 317 317 318 320 321 320 319 317 316 320 322
353 353 341 350 346 349 347 345 341 345 342 339 342 341 339 339 342 340 342 341 341 342 341 341 342 341 341 343 338 339 322 318 319 317 316 316 316 316 316 318 321 323 323
353 352 351 347 342 350 351 347 349 346 347 341 340 341 341 342 341 343 340 341 342 341 342 342 342 343 342 342 342 329 325 319 318 318 318 317 318 319 321 323 324 324 324
353 353 349 352 351 347 349 352 353 343 343 345 342 341 340 342 340 342 344 343 343 340 341 343 342 341 343 342 342 343 332 326 322 323 322 322 322 324 324 324 324 325 325
351 352 353 353 353 352 351 350 351 348 346 345 345 344 344 344 344 343 342 343 342 343 342 342 342 342 342 343 343 338 331 329 327 326 324 324 325 325 325 325 325 325 325
347 348 350 351 351 344 352 352 346 353 346 348 342 345 343 343 343 344 343 343 343 343 344 344 343 344 343 343 343 342 337 333 331 331 329 328 326 325 324 325 325 325 325
345 348 347 352 354 355 353 352 351 352 352 350 351 344 348 344 345 344 343 344 344 345 346 342 344 344 344 344 344 342 339 336 336 335 334 333 332 332 331 329 327 325 325
346 346 351 353 352 352 353 353 351 348 356 350 353 352 348 348 347 346 345 345 345 346 345 350 342 344 340 342 343 340 338 334 330 330 332 333 335 335 334 334 333 333 332
347 349 348 350 352 352 352 351 351 352 351 353 351 352 352 351 349 349 348 347 345 345 344 343 344 343 344 343 341 341 339 335 331 330 331 332 331 331 332 333 334 334 334
351 347 352 351 352 352 352 352 350 353 352 351 354 354 354 352 352 348 349 348 347 347 346 345 343 343 343 344 339 339 339 341 346 345 343 341 340 339 334 333 333 334 335
351 354 353 352 350 351 353 353 353 349 356 355 353 352 354 354 349 346 351 350 349 348 348 346 347 348 349 348 348 347 347 349 348 346 342 342 344 344 342 339 336 335 335
343 351 354 353 351 349 352 354 353 353 353 353 353 354 354 354 354 353 353 351 351 352 355 355 354 352 350 350 348 348 348 351 352 352 351 350 350 351 351 350 351 348 347
342 344 348 352 350 351 351 352 354 353 353 353 354 354 354 355 355 354 353 353 353 351 353 353 353 352 349 347 348 350 352 352 353 354 354 353 354 354 355 354 353 352 351
342 344 344 348 348 352 351 350 353 354 354 354 354 354 354 354 355 356 357 356 356 356 356 353 351 349 348 349 353 353 352 354 352 349 351 357 359 358 357 358 356 354 354
343 344 345 345 347 352 349 347 348 351 352 353 354 354 353 354 354 352 348 344 346 349 349 354 352 350 350 351 353 353 352 350 353 358 360 359 359 358 357 356 355 356 355
344 344 345 345 345 346 349 347 345 346 350 348 349 349 351 352 352 351 348 344 342 342 343 340 340 339 339 339 340 343 352 356 359 359 357 359 359 357 357 357 356 355 353
344 344 344 344 345 345 343 343 342 342 343 340 346 346 343 341 344 352 354 355 354 350 339 346 350 347 346 347 353 358 358 358 357 357 357 357 359 359 359 357 353 350 349
345 345 345 345 344 343 344 341 343 344 343 339 336 334 335 337 334 332 335 337 336 336 344 345 347 349 352 356 358 360 358 357 359 358 358 358 358 356 353 350 347 346 344
346 345 345 345 345 344 344 344 342 344 350 348 343 336 333 332 332 332 333 336 339 342 348 350 354 359 360 361 359 359 360 359 359 360 358 356 356 354 348 342 344 341 337

GFSMA_850_thetae_054.txt.gz
Theta_e
348 346 347 344 347 347 344 344 344 341 344 343 343 342 343 345 343 342 336 332 328 328 332 333 323 325 328 333 330 331 330 329 326 326 327 326 324 327 327 326 331 333 334
348 350 348 345 345 345 343 341 343 343 344 341 343 343 343 341 343 343 342 340 339 334 330 328 326 323 323 324 324 324 325 323 324 323 323 328 331 332 332 334 334 334 335
348 349 347 347 343 342 345 341 341 341 342 342 340 342 344 343 344 344 345 344 344 342 339 336 329 329 328 327 327 326 327 327 327 328 328 328 328 329 332 334 334 336 337
343 347 347 348 346 341 343 339 339 340 343 338 341 342 343 341 342 343 343 343 343 344 343 337 338 335 335 333 333 332 332 331 330 331 332 333 334 334 334 334 336 335 332
345 345 348 347 341 348 347 343 337 341 342 338 340 341 341 341 342 340 342 342 341 342 341 340 338 339 335 333 333 334 335 335 335 336 336 335 336 336 335 334 331 328 324
352 350 348 343 347 346 341 346 342 338 341 339 340 341 342 340 341 340 341 342 338 341 341 340 341 342 342 340 333 323 321 323 330 329 328 327 329 331 330 327 324 319 316
351 346 348 343 345 346 344 344 340 340 342 337 335 336 337 337 340 339 341 341 340 341 340 341 343 342 342 340 330 319 318 318 319 319 318 320 324 325 322 320 317 317 321
351 349 349 349 344 345 345 347 342 341 339 338 341 342 338 339 342 341 340 339 341 341 342 343 339 335 341 340 340 329 319 318 317 316 317 318 318 318 317 317 320 323 323
346 353 347 349 346 349 341 339 344 345 339 340 340 343 339 342 342 340 340 342 342 341 342 342 342 340 334 343 341 335 323 318 318 318 317 316 316 317 320 323 324 324 324
350 351 342 349 344 350 348 339 339 346 341 341 338 343 341 342 340 343 341 341 338 341 341 342 343 342 343 340 344 339 325 323 321 321 321 321 322 323 324 325 325 325 325
348 353 346 342 341 348 346 346 346 346 344 344 341 340 339 342 341 343 343 342 342 341 341 340 342 342 342 342 342 342 335 328 325 324 324 325 325 325 325 325 325 325 325
345 352 352 343 344 349 350 346 345 341 344 345 343 344 343 344 344 344 344 343 343 342 342 342 342 342 342 342 343 340 341 332 330 330 328 327 326 325 325 325 325 325 325
351 345 348 349 343 344 351 346 343 340 343 344 345 344 344 344 344 344 343 344 343 343 345 344 344 344 344 343 343 343 343 337 335 334 334 333 332 331 331 329 328 326 325
349 349 347 343 342 347 348 348 348 347 339 338 341 343 346 344 344 344 343 344 345 346 345 344 344 345 344 344 343 343 338 333 330 330 331 332 334 334 334 334 333 332 331
347 346 349 348 346 350 351 347 348 348 354 349 344 337 344 348 347 346 345 345 345 345 346 349 342 343 343 343 343 343 343 337 336 334 335 333 333 333 333 332 333 334 334
346 353 347 346 344 346 351 351 350 349 349 355 348 355 351 342 349 349 348 348 346 344 345 344 345 344 344 344 344 343 341 343 345 341 338 343 344 342 341 340 339 337 335
350 346 352 349 348 348 351 349 347 353 351 347 352 352 353 349 351 350 350 348 347 347 347 346 346 345 344 343 342 345 348 347 347 350 349 346 348 350 349 347 347 348 347
348 348 346 351 351 349 350 350 347 350 354 354 348 354 355 354 343 345 350 351 353 351 349 348 342 340 348 351 349 349 347 348 350 352 354 353 353 353 351 351 353 353 352
342 346 349 345 348 345 346 349 349 344 351 353 355 350 349 349 350 351 345 348 346 350 353 354 357 357 352 350 350 348 347 350 353 353 354 355 353 353 357 357 357 356 356
337 342 344 344 344 343 341 346 351 351 347 350 352 351 351 351 350 350 348 347 350 348 349 352 351 353 352 351 351 354 355 353 351 356 354 347 350 356 356 357 358 356 355
333 337 340 344 344 344 343 342 345 351 351 348 349 352 352 352 352 352 353 352 353 356 356 357 358 357 353 349 347 347 347 352 344 339 350 360 360 357 358 357 355 355 354
335 336 339 342 346 345 345 349 347 345 352 352 350 346 353 355 355 353 351 352 347 352 353 353 350 345 341 341 339 339 342 343 348 355 359 357 356 356 357 357 356 355 356
338 334 336 340 344 345 345 349 349 349 347 347 352 351 349 349 351 350 349 348 348 346 343 342 343 341 341 344 345 346 351 355 357 358 357 357 357 357 358 360 359 349 343
345 334 335 339 343 345 345 345 348 348 347 345 345 348 348 345 346 353 355 356 355 353 351 351 353 349 351 346 350 353 355 356 358 358 357 358 357 358 358 353 339 345 345
349 340 337 340 342 344 344 344 345 348 348 344 341 341 346 351 343 337 341 349 352 351 348 344 345 346 350 352 351 356 358 361 359 359 357 360 358 356 354 341 347 346 332
344 340 341 341 343 343 343 344 344 346 347 346 343 339 337 336 336 337 337 336 335 332 335 338 341 344 347 355 359 362 360 359 357 358 359 358 355 355 350 344 341 331 328

GFSMA_850_thetae_060.txt.gz
Theta_e
345 344 345 343 342 342 341 340 342 341 342 343 343 343 343 341 338 334 329 328 328 331 327 323 325 326 328 327 328 327 326 325 323 322 324 329 331 332 333 333 333 334 336
343 342 343 344 342 343 341 342 340 343 343 342 340 342 342 341 341 341 341 338 337 331 328 327 324 323 323 323 323 323 323 323 325 327 328 328 328 329 332 333 333 335 334
345 342 343 344 343 342 343 341 342 341 342 342 342 341 340 340 342 342 340 342 342 341 336 334 332 331 329 329 329 329 328 328 328 328 330 332 333 334 334 333 333 331 328
344 345 343 343 343 344 341 342 342 341 342 343 342 342 340 340 342 341 341 339 340 339 338 337 336 335 334 334 334 334 333 333 332 333 334 334 331 333 333 331 329 326 321
344 344 342 339 339 338 340 341 340 342 341 341 342 341 340 341 340 339 340 339 339 339 338 341 340 340 337 334 328 324 322 323 325 330 328 326 325 326 327 325 322 320 317
342 344 344 340 342 342 340 339 341 342 341 341 341 341 340 340 340 340 340 339 340 339 340 339 340 338 333 333 322 318 318 318 320 321 319 318 320 322 322 320 319 319 320
346 344 343 342 343 343 339 339 340 341 339 340 341 342 342 341 341 341 340 340 340 340 341 340 336 334 334 335 332 321 318 318 317 316 317 317 318 318 318 318 319 321 322
346 345 342 342 342 341 342 341 339 342 338 340 341 339 337 338 339 339 341 341 340 340 341 341 341 338 332 330 328 326 322 320 320 319 319 319 319 320 321 322 323 323 323
342 345 342 344 344 343 340 338 338 342 338 338 337 337 336 338 341 341 340 340 340 339 342 341 341 342 341 333 330 329 329 326 324 324 324 324 323 323 323 324 324 324 324
341 346 347 346 344 342 338 338 341 340 337 340 339 339 340 342 341 340 339 341 341 339 341 340 342 342 341 341 334 331 331 331 330 329 328 326 326 326 325 325 325 325 325
346 344 343 346 345 344 338 340 341 341 339 340 338 340 339 340 341 342 342 341 340 341 341 341 341 339 337 337 337 337 337 336 333 332 332 332 332 331 331 330 329 327 326
348 347 340 341 342 347 340 338 342 344 340 342 339 341 339 344 343 343 344 344 342 341 341 341 343 343 341 338 336 335 335 336 338 339 338 337 335 334 334 334 334 333 332
347 344 342 345 339 342 342 339 340 343 343 343 343 343 342 343 343 343 343 344 344 342 342 343 343 344 344 342 342 342 342 342 342 343 345 345 344 341 340 340 341 340 339
347 346 342 346 338 338 346 343 340 339 341 342 344 345 343 343 343 344 344 343 344 345 346 344 344 343 344 343 343 343 343 343 343 346 347 348 349 347 345 345 345 345 346
344 345 347 341 339 337 335 340 340 333 338 341 344 344 343 343 342 345 344 344 342 344 345 346 344 344 343 344 343 344 343 343 346 347 348 349 351 350 351 350 350 350 350
350 346 349 348 345 343 342 338 340 342 338 338 338 342 341 340 343 347 347 346 346 345 344 345 344 344 346 347 346 345 344 347 349 350 349 351 352 352 353 350 351 352 353
350 348 348 349 349 347 345 341 340 340 343 344 346 344 334 335 344 347 349 348 347 346 346 343 343 342 342 341 343 347 349 350 351 351 353 351 354 355 352 351 359 358 353
346 345 346 347 349 348 346 343 335 342 343 346 345 347 342 345 340 343 348 349 349 347 347 348 346 343 343 346 346 350 351 352 352 347 342 344 353 346 348 359 359 356 354
346 344 344 345 349 349 346 344 338 334 339 345 349 349 348 348 349 348 344 347 349 350 351 351 349 348 343 340 347 349 350 352 340 337 340 347 350 357 358 356 356 356 354
343 345 346 345 348 348 346 346 340 334 332 337 345 350 351 352 347 347 348 345 344 344 343 345 346 343 341 347 347 346 344 339 340 342 352 356 356 355 355 356 356 356 353
339 341 338 345 351 351 348 346 344 338 336 332 335 341 345 346 348 347 346 344 345 345 345 345 344 346 346 337 338 339 343 346 344 349 355 355 355 356 356 356 357 355 352
329 330 335 332 344 348 351 347 342 336 337 336 333 337 338 338 342 345 348 347 346 348 349 347 345 343 336 338 340 350 349 347 350 351 355 355 356 356 355 355 355 351 347
333 328 329 329 331 340 345 345 342 340 339 338 337 335 334 339 339 339 339 344 348 348 348 348 349 346 346 344 349 352 354 349 348 355 356 355 354 355 355 354 349 346 343
346 337 329 328 328 329 332 333 335 340 339 339 339 338 335 335 336 338 340 340 339 340 347 351 351 348 349 345 353 352 348 348 354 355 359 358 356 354 354 353 346 343 342
348 345 339 336 330 328 329 332 334 338 339 338 340 340 340 340 339 340 341 340 338 334 333 337 339 339 343 349 345 347 350 354 355 357 356 358 357 353 352 348 344 339 332
351 348 347 344 342 340 337 335 335 335 337 338 340 341 342 343 343 343 343 340 338 331 332 333 336 339 342 346 350 354 355 354 357 359 355 358 356 353 346 343 341 337 331

GFSMA_850_thetae_063.txt.gz
Theta_e
343 342 343 340 340 339 338 339 342 342 341 342 342 342 339 339 336 332 328 328 329 328 323 323 324 325 326 325 325 326 324 323 323 324 325 328 329 329 331 332 333 334 334
343 344 343 342 341 339 341 341 341 342 342 341 341 342 340 341 341 340 339 338 333 330 328 327 325 324 324 324 324 325 325 326 326 328 329 330 332 334 337 333 332 331 328
343 343 343 342 342 339 341 341 342 342 342 342 341 341 340 341 341 341 341 341 340 338 335 332 333 332 332 332 332 331 330 331 331 331 333 334 333 334 334 332 330 325 320
345 343 343 343 341 341 340 342 341 342 341 341 341 341 341 341 340 341 339 339 338 336 337 336 335 334 333 332 331 331 331 331 332 333 333 330 327 328 329 328 324 321 318
344 343 342 343 341 341 340 341 340 341 342 341 342 342 341 341 340 339 338 339 339 339 338 340 340 338 330 325 320 318 318 319 321 326 326 322 321 323 324 323 321 319 319
342 343 342 342 342 340 340 340 341 341 341 341 341 341 340 340 340 340 340 339 339 340 340 339 338 337 332 330 323 319 318 317 317 317 317 318 319 320 320 319 319 320 322
342 343 342 340 343 343 340 339 340 341 340 341 341 341 341 340 340 340 341 340 339 340 341 340 332 332 333 330 326 323 319 319 318 317 317 317 318 318 319 319 321 322 323
345 343 343 341 342 342 338 338 339 341 339 340 340 340 338 339 339 339 339 340 340 340 340 341 341 339 331 329 329 327 327 326 324 323 323 323 322 322 322 322 322 323 324
344 343 344 342 342 341 341 340 340 341 339 338 340 339 337 337 340 340 340 339 340 339 341 340 341 341 340 334 332 331 331 331 331 330 329 328 327 326 325 324 324 324 324
343 342 340 342 343 342 339 339 338 341 337 336 337 339 339 340 341 340 340 340 341 339 341 340 340 339 339 337 336 337 336 334 334 335 335 335 334 333 332 331 329 327 326
346 346 346 346 342 341 342 338 338 341 336 339 339 341 339 340 341 342 342 341 340 340 340 341 341 339 337 337 336 336 336 339 341 342 342 342 342 341 339 339 338 337 335
346 345 345 341 344 345 342 338 340 341 339 339 339 339 339 342 343 343 344 342 342 341 341 342 343 342 342 341 341 341 342 342 342 343 344 345 344 344 343 343 343 342 342
344 346 346 342 340 344 346 339 338 340 341 342 341 340 341 343 342 342 342 344 344 342 342 343 343 343 343 343 343 343 343 343 343 344 347 347 347 346 346 347 348 348 347
346 346 345 343 347 340 343 339 337 340 342 343 344 342 343 343 343 343 342 342 343 343 345 344 344 343 342 343 343 343 343 344 343 347 349 349 350 350 349 348 350 350 350
347 347 347 343 346 344 341 346 342 338 340 341 342 343 344 343 343 344 345 343 342 343 344 346 344 344 343 345 345 345 344 343 346 349 351 350 351 351 352 353 349 350 355
345 346 347 346 342 346 341 340 344 340 335 336 340 343 343 343 342 342 347 346 345 344 344 344 345 344 343 343 345 350 348 346 349 351 351 351 349 348 354 352 347 357 357
344 346 346 347 348 346 344 342 341 342 342 335 335 340 338 340 339 341 346 348 347 345 343 342 342 341 342 343 344 343 348 350 351 352 348 337 338 341 348 355 357 357 355
344 346 350 348 348 348 348 346 345 343 342 341 341 342 344 340 336 337 344 346 348 348 348 345 344 345 344 344 341 341 349 349 352 343 339 347 355 356 356 356 356 355 355
344 346 346 347 346 346 348 348 347 343 341 342 344 345 346 344 344 344 342 342 345 347 349 348 348 347 344 341 337 344 339 339 336 339 345 355 355 355 356 356 355 355 355
341 344 346 346 345 345 345 347 347 345 338 338 339 341 346 348 348 347 347 349 347 344 344 344 342 340 338 338 345 336 333 338 339 339 351 355 355 356 356 356 356 357 354
331 341 344 345 345 345 344 345 346 346 345 340 337 335 337 345 349 349 348 345 347 346 345 345 343 341 337 336 337 341 346 347 340 341 351 354 353 354 355 355 355 354 348
329 329 335 342 343 344 345 344 347 347 345 344 340 339 335 335 337 343 344 344 345 347 346 345 346 344 339 338 340 347 349 351 351 339 351 353 355 355 355 355 354 351 342
346 343 330 329 336 341 341 338 343 347 345 343 339 338 339 337 335 337 338 338 339 341 344 348 348 342 343 341 347 347 348 350 346 347 353 353 354 356 354 353 353 347 343
348 347 347 342 328 327 330 336 333 339 346 344 341 339 339 339 339 338 337 340 340 339 339 341 341 344 348 344 346 349 349 345 348 352 353 355 355 355 354 352 351 344 339
350 350 349 348 346 335 326 325 327 330 337 335 333 337 338 338 339 340 343 342 338 334 334 337 336 338 338 339 341 344 345 350 354 353 353 356 355 356 353 351 346 342 338
353 352 351 349 348 345 338 330 326 326 330 332 331 331 334 336 338 340 344 345 344 334 333 333 336 338 339 341 345 346 349 354 354 355 354 357 355 353 353 348 343 341 338

GFSMA_850_thetae_066.txt.gz
Theta_e
339 341 340 340 339 339 339 341 341 341 341 342 341 339 337 336 333 330 329 328 329 325 323 324 324 327 326 325 325 325 324 324 325 327 329 330 332 334 338 335 332 329 326
342 343 342 341 341 340 338 340 341 341 342 342 341 340 340 340 339 339 339 336 333 330 328 326 325 325 325 326 326 327 328 328 329 330 332 333 333 334 338 332 328 324 319
342 341 342 341 340 341 341 341 341 342 341 341 341 341 341 340 341 340 341 339 338 337 334 333 334 334 334 333 333 333 332 332 332 333 333 331 328 328 329 326 323 320 318
343 342 343 342 339 340 341 341 340 341 341 342 341 341 341 340 341 339 337 338 337 337 337 335 336 336 334 332 329 326 324 323 323 326 326 323 322 323 323 321 320 320 320
344 341 343 342 340 339 341 340 340 341 341 341 342 341 340 341 339 338 339 339 339 339 338 337 338 334 327 325 320 318 318 318 319 319 318 318 319 320 320 320 321 321 322
343 343 340 343 340 339 339 340 341 341 341 341 341 340 339 340 340 340 339 339 339 340 340 336 335 334 333 330 323 320 318 318 317 317 317 318 318 319 320 321 322 323 323
341 343 342 340 339 339 339 339 340 340 340 340 340 339 339 340 339 339 340 340 340 339 340 341 336 331 329 327 326 325 324 323 323 323 323 322 321 321 321 321 322 323 324
344 342 343 340 342 342 339 339 339 338 338 339 337 339 337 336 337 339 339 339 340 340 339 341 341 338 331 330 331 331 330 331 331 331 330 329 328 327 325 324 324 323 324
343 343 343 344 342 342 339 337 340 339 339 336 338 340 338 337 338 339 340 338 340 339 340 340 340 340 337 333 334 336 336 337 338 340 340 339 338 337 335 334 332 331 329
344 343 343 343 342 341 340 339 340 341 338 336 336 337 340 341 341 341 340 339 339 339 340 339 338 337 336 337 336 337 339 341 342 342 342 342 342 342 342 341 341 340 340
342 343 341 341 343 342 340 339 339 340 337 337 338 339 340 339 343 343 343 341 339 340 340 340 339 338 338 337 338 341 342 342 342 343 343 344 345 345 346 347 346 344 344
345 343 346 343 342 342 340 338 337 340 339 336 339 338 338 342 342 342 343 342 341 341 342 342 342 342 342 342 342 342 343 343 343 344 346 347 347 348 348 348 347 347 348
344 343 344 343 341 344 344 341 337 338 340 339 340 339 339 343 342 343 342 343 344 344 344 343 342 342 343 342 342 342 343 344 344 346 348 349 349 350 351 351 351 350 349
345 344 345 344 343 341 342 345 341 337 340 342 341 342 342 343 343 343 343 342 341 342 344 344 343 343 343 343 344 343 342 342 345 348 350 351 350 351 351 347 353 350 351
344 347 346 345 342 346 344 342 342 337 338 339 342 343 343 343 343 342 343 344 343 342 342 345 345 344 343 342 343 343 346 345 347 349 350 349 346 337 336 341 351 348 357
343 344 346 347 345 343 344 340 343 345 343 340 341 341 342 343 343 342 342 345 346 346 344 342 343 344 343 341 343 344 342 346 350 350 351 338 341 350 349 350 356 355 355
344 343 344 346 346 346 343 343 341 340 341 342 337 337 340 341 342 341 340 343 346 348 347 344 343 341 342 343 341 338 338 349 348 348 338 340 353 355 355 355 354 354 355
345 343 344 345 346 347 347 347 346 345 343 342 342 338 336 337 337 338 337 339 344 345 347 346 345 343 343 343 338 336 344 341 337 336 338 351 354 355 355 355 355 355 355
343 344 343 345 348 348 347 347 348 348 346 341 342 343 345 345 346 341 343 343 343 343 345 345 344 345 342 337 335 338 336 331 335 336 337 353 354 354 354 355 355 355 355
337 342 342 343 344 346 345 345 344 348 347 344 337 340 343 345 346 345 346 346 347 348 349 346 343 341 340 338 338 337 333 337 333 335 337 352 353 354 354 354 355 354 354
331 333 340 341 342 343 342 343 343 345 345 345 344 338 336 336 339 346 348 348 348 346 345 345 343 342 339 339 340 342 344 342 334 336 342 351 353 354 355 354 354 352 350
341 332 331 334 337 341 342 342 340 342 345 346 345 344 344 341 339 336 338 343 345 344 343 344 343 341 340 342 340 348 347 346 344 338 347 351 353 353 354 352 352 352 347
343 343 337 329 329 332 336 339 340 342 342 341 344 343 341 341 340 341 338 337 339 339 339 341 340 341 339 338 347 348 346 345 343 343 351 351 352 354 354 352 352 351 345
345 345 344 344 337 329 328 330 335 337 338 336 332 335 341 342 340 340 341 341 339 336 339 340 340 338 336 338 347 347 343 341 342 349 354 353 351 354 353 354 350 349 344
347 347 347 346 346 346 344 337 329 330 335 333 332 327 328 333 332 336 340 340 341 336 335 336 336 335 336 337 341 342 342 345 346 353 352 353 353 354 353 351 351 349 344
350 350 350 349 349 349 349 347 346 341 329 327 327 326 324 324 326 329 333 337 341 335 336 336 336 336 338 339 342 344 343 344 349 353 352 354 352 352 353 352 349 348 344

GFSMA_850_thetae_069.txt.gz
Theta_e
341 341 340 339 339 339 340 341 341 341 341 341 339 337 336 334 331 331 337 329 328 325 323 324 325 327 325 325 325 326 326 327 328 330 332 332 332 335 336 330 325 321 319
342 342 341 339 339 338 340 340 341 341 342 341 340 339 340 339 339 339 337 336 333 330 329 327 328 328 329 335 331 331 332 332 332 332 332 330 327 329 330 325 322 320 319
341 342 342 341 340 339 339 340 341 341 341 340 341 341 340 341 340 340 339 338 337 336 335 334 334 334 333 332 331 329 327 326 326 328 327 323 323 324 324 322 321 320 321
341 342 341 340 340 341 341 340 341 341 341 341 341 341 341 340 339 338 338 339 338 339 338 338 338 331 327 322 319 318 318 319 320 321 319 319 320 321 321 321 321 322 322
343 341 343 342 340 340 341 339 341 341 341 341 342 341 340 339 339 339 339 339 339 339 337 336 335 329 329 326 321 319 318 317 317 317 318 318 319 320 320 321 322 322 323
343 342 342 341 340 340 340 340 340 341 340 340 340 339 338 338 339 340 340 340 339 339 340 334 331 331 329 326 323 322 322 321 322 322 322 321 321 321 321 322 322 323 323
342 343 341 342 341 338 339 341 340 339 338 340 339 339 338 338 338 339 339 339 340 340 339 341 339 330 329 327 329 330 331 331 331 332 332 331 330 328 327 326 325 324 324
342 343 341 339 340 339 338 339 339 339 338 336 337 338 340 338 338 339 339 339 339 339 340 340 340 335 331 332 334 336 337 339 340 341 342 341 341 341 340 338 336 334 332
344 343 343 340 341 342 339 338 339 340 339 335 336 339 341 341 341 340 339 338 339 339 339 339 339 337 335 336 337 338 340 341 342 342 343 343 344 344 344 343 342 341 340
345 344 343 343 342 342 340 338 338 339 339 337 337 337 340 340 343 343 341 338 338 339 339 338 337 336 337 337 338 341 342 342 342 343 343 345 346 346 346 346 347 347 346
342 343 342 343 342 342 341 340 338 339 338 336 337 339 339 340 342 345 344 343 340 339 339 338 338 338 338 341 342 342 343 343 344 344 347 348 349 350 350 350 349 349 347
342 342 343 341 343 342 343 339 338 339 338 336 335 339 339 343 345 345 346 344 342 342 342 342 342 342 342 342 342 342 343 344 343 346 348 349 350 350 351 351 350 351 350
344 343 344 343 341 343 341 341 337 337 340 339 338 339 339 343 342 343 343 344 344 343 344 343 342 342 343 343 343 342 342 343 343 346 348 349 350 348 341 339 341 352 351
343 343 344 343 341 342 344 344 341 337 337 341 340 341 341 342 343 343 344 344 346 344 344 344 343 343 343 342 342 340 343 340 344 347 348 348 344 339 349 344 343 348 350
344 346 345 344 342 344 345 341 344 339 338 339 342 342 342 343 343 343 342 344 345 347 346 346 346 344 344 343 341 341 339 337 345 348 346 342 337 350 353 354 355 355 355
343 344 346 347 345 344 344 344 342 343 340 337 337 341 342 343 343 343 342 341 343 347 348 346 345 341 342 342 343 340 338 335 342 343 337 336 346 354 354 354 354 354 354
344 342 343 344 346 345 342 344 342 339 343 342 339 338 340 340 342 342 341 340 340 343 349 349 343 343 341 341 341 337 334 340 337 332 338 336 353 354 354 354 354 355 355
341 343 342 343 345 345 346 346 344 344 344 341 340 342 336 336 337 339 338 337 337 339 343 349 349 346 342 342 337 335 335 335 331 338 335 341 353 353 352 353 354 355 355
342 343 343 343 343 345 347 346 347 346 347 346 343 340 340 341 340 343 345 341 345 342 342 343 347 348 339 339 335 335 333 332 335 339 339 343 352 353 353 354 354 354 352
337 341 343 343 343 345 347 347 347 346 346 347 345 341 340 341 344 345 345 345 346 346 349 347 351 351 350 343 337 343 346 348 337 332 339 349 352 352 351 354 353 351 350
338 334 337 342 343 343 344 346 345 344 344 347 345 344 337 334 335 338 343 347 349 349 353 352 352 351 351 351 349 350 350 352 339 333 337 351 356 353 352 353 353 351 351
342 341 336 334 339 343 340 340 341 341 342 343 345 345 344 344 343 339 336 336 338 342 346 351 351 350 351 348 350 349 350 352 350 348 338 351 356 353 352 353 352 351 350
343 342 342 341 335 333 339 340 338 340 340 338 339 342 344 344 341 339 338 340 339 337 338 339 339 337 338 336 339 337 349 352 350 346 350 355 358 355 351 352 352 350 350
345 345 344 343 342 341 332 331 334 338 340 339 337 337 334 333 338 339 341 340 339 339 338 338 335 333 335 337 339 344 344 341 339 344 350 354 357 356 352 353 352 351 350
346 346 346 345 344 343 344 341 331 330 335 336 334 333 333 333 329 329 337 339 337 336 338 338 337 334 334 336 339 341 346 349 347 347 353 352 356 355 352 352 351 349 349
347 348 348 347 347 346 346 345 345 343 336 331 329 328 327 329 328 328 327 330 332 331 334 336 337 337 339 339 339 340 342 349 348 349 352 350 355 355 356 353 352 350 349

GFSMA_850_thetae_075.txt.gz
Theta_e
345 345 346 346 345 345 345 345 348 344 345 345 344 343 342 342 341 342 332 327 325 324 324 325 327 328 331 332 332 331 331 331 330 328 326 324 328 325 325 323 322 321 321
347 346 346 346 346 347 347 347 347 346 344 344 345 345 345 344 345 345 345 340 333 333 334 334 334 333 333 330 327 324 323 323 323 322 321 322 322 323 322 322 322 322 322
348 346 344 346 346 343 345 348 346 345 345 345 345 346 344 345 344 344 345 346 345 340 336 335 330 327 321 319 318 318 319 319 319 319 320 321 321 322 322 322 323 323 323
344 348 346 345 345 347 346 346 346 345 346 344 344 344 343 343 344 345 343 346 347 349 344 329 325 323 321 319 318 318 319 319 321 322 322 323 323 323 323 323 323 323 323
348 349 346 347 348 345 346 345 345 344 344 346 344 344 345 344 346 343 343 345 342 345 347 329 331 323 322 321 322 323 325 327 330 332 333 333 332 331 329 327 325 324 324
345 348 349 345 348 344 344 347 346 346 346 344 343 344 344 342 341 342 344 344 345 346 344 345 347 335 326 327 329 333 337 340 342 343 343 344 344 344 343 341 337 333 329
344 346 348 342 347 346 346 346 343 343 344 342 344 343 341 342 342 340 342 342 343 345 344 344 346 346 339 337 337 341 342 343 343 344 344 345 346 347 347 347 346 343 340
347 349 349 345 345 347 348 348 346 344 342 344 345 344 341 341 340 341 341 341 343 343 343 345 344 345 347 347 343 344 342 343 343 344 346 347 348 348 348 348 347 347 346
350 352 349 348 343 345 343 347 344 347 343 340 341 346 347 342 342 343 342 342 343 343 342 342 344 345 347 349 349 349 343 343 344 344 347 349 349 349 348 350 349 348 346
352 351 349 350 343 347 347 342 343 347 344 340 341 342 342 345 351 340 340 341 341 343 342 342 343 344 347 349 349 348 343 344 344 345 348 348 349 344 341 346 343 349 350
351 351 351 350 347 343 344 349 347 345 343 342 342 343 342 344 344 348 340 340 341 341 342 344 344 344 348 349 348 346 342 343 340 345 347 348 341 336 349 353 346 344 348
350 352 351 350 347 351 345 347 349 341 349 343 346 343 346 348 348 343 342 344 343 344 344 345 346 347 348 350 350 342 345 345 337 344 345 337 333 340 353 354 355 353 351
347 350 349 350 344 345 350 349 347 350 340 344 340 347 345 346 349 346 346 346 345 345 346 348 348 349 350 350 353 345 352 350 341 340 333 330 332 345 353 354 354 354 354
349 348 342 347 350 350 351 350 348 343 346 346 346 347 346 346 347 349 349 348 345 345 347 353 348 349 351 352 354 350 352 353 342 344 336 332 332 344 352 352 354 354 355
350 354 352 351 351 351 352 351 349 343 349 344 348 338 347 348 345 348 346 348 350 348 346 353 348 352 352 351 353 352 352 352 350 350 346 334 331 341 351 352 353 354 354
350 351 353 352 352 351 352 349 349 349 349 348 347 346 340 349 347 347 347 348 348 349 349 349 349 351 353 347 354 351 345 349 350 348 347 344 335 345 351 352 353 353 353
352 352 355 354 353 354 352 351 350 352 351 348 347 350 351 345 350 347 346 347 348 349 348 347 350 352 356 352 355 336 349 349 349 350 350 346 343 347 351 351 352 351 351
351 350 353 353 355 353 354 352 352 349 352 351 351 350 350 349 345 343 351 349 349 351 351 350 350 349 351 353 354 349 352 351 352 353 349 348 345 349 351 350 352 351 350
350 350 353 352 353 353 354 355 352 352 353 352 352 352 351 352 351 350 350 348 350 351 352 353 352 351 351 351 353 354 352 352 351 350 349 350 348 348 356 354 351 351 350
345 348 350 353 354 352 352 354 352 351 354 354 354 352 352 352 352 352 347 351 348 348 351 350 349 350 350 350 352 353 352 348 349 350 351 352 348 348 354 358 356 351 351
352 344 344 351 352 352 350 351 352 353 352 354 355 353 351 351 352 353 353 352 351 353 351 350 349 349 350 351 353 355 350 349 350 349 348 352 347 347 353 355 356 351 351
354 352 347 346 348 348 347 348 350 352 351 351 351 353 353 352 351 343 336 340 355 354 350 354 353 352 350 352 351 351 351 349 346 348 350 351 346 346 350 357 358 356 351
355 354 352 352 348 343 344 344 347 348 352 355 351 351 353 349 350 346 338 337 336 334 334 333 336 339 344 344 344 339 347 350 351 348 348 347 348 350 352 357 357 355 353
352 352 354 354 352 351 346 344 341 340 345 344 350 353 351 349 349 354 352 354 350 341 334 334 335 333 334 334 337 345 348 348 352 352 351 352 348 349 349 357 357 353 352
351 353 353 352 353 352 352 350 347 344 343 339 335 335 345 351 351 344 351 354 351 350 346 346 345 344 343 342 341 343 347 345 343 342 341 341 342 344 345 351 359 357 355
354 354 353 353 352 352 353 352 349 349 348 346 346 342 333 332 336 343 342 344 347 344 349 343 346 347 346 346 346 346 342 348 346 343 341 341 343 344 346 347 352 351 354

GFSMA_850_thetae_078.txt.gz
Theta_e
345 348 347 346 344 347 346 346 346 344 343 344 343 342 341 343 343 343 337 329 326 326 327 329 331 332 335 331 329 327 327 325 323 322 322 323 323 323 323 323 322 322 322
343 343 346 348 347 345 348 345 344 346 346 341 342 343 345 342 346 346 346 341 339 334 334 332 331 328 325 322 320 320 320 320 320 320 321 322 322 322 323 323 323 323 323
348 346 346 345 345 345 346 348 348 345 345 344 344 342 344 343 341 345 347 347 347 346 332 322 320 319 318 318 318 318 319 320 321 322 323 323 323 323 323 323 323 324 324
347 342 349 345 341 344 348 342 347 345 346 344 344 345 344 343 342 343 344 348 347 347 345 322 321 320 319 319 321 323 325 327 330 332 334 335 334 332 330 327 325 324 324
346 349 348 342 345 348 348 345 343 345 346 346 345 344 344 345 345 343 342 345 345 347 345 338 330 325 324 326 329 333 337 341 343 344 344 345 345 344 344 342 338 333 329
342 349 346 343 341 347 346 345 347 344 345 344 345 344 345 344 343 344 344 346 342 344 345 334 345 343 332 335 340 342 343 344 344 345 345 346 346 346 346 346 346 343 340
342 347 349 342 350 348 341 344 343 342 346 344 345 343 341 339 340 341 343 344 343 346 343 345 348 346 345 343 343 342 343 343 344 345 345 346 348 348 347 346 346 346 346
341 348 342 344 349 348 342 346 348 344 343 343 345 345 343 342 342 341 342 341 345 343 343 345 341 343 348 348 349 346 342 343 344 344 348 348 348 347 344 345 348 346 346
343 350 347 346 345 346 336 339 345 345 342 339 342 345 346 348 341 341 341 343 342 343 343 340 345 337 347 349 348 346 343 343 342 345 347 348 346 339 351 353 347 345 349
346 346 349 347 345 348 344 342 345 343 340 341 341 340 340 344 348 342 342 337 343 341 342 343 343 344 346 350 350 347 341 341 336 344 346 345 336 343 353 354 348 345 347
348 349 345 346 342 343 342 341 345 345 343 345 342 344 344 346 346 348 341 342 343 342 342 345 345 345 348 348 348 342 341 343 336 340 338 333 334 347 353 353 354 354 350
347 346 349 348 342 341 350 339 346 339 344 343 344 346 347 346 349 350 342 341 343 343 344 345 346 347 349 351 352 350 349 346 339 339 334 332 334 346 351 352 354 354 354
350 347 345 344 343 345 348 347 338 343 341 340 343 344 349 345 349 348 348 345 345 344 347 348 348 349 351 351 352 353 350 345 345 348 345 336 333 342 350 351 352 354 354
349 351 345 340 341 342 345 342 349 341 337 336 340 344 345 344 344 348 348 349 349 346 347 348 348 349 351 351 352 354 349 344 346 350 347 346 338 340 350 351 353 353 354
349 350 348 342 342 349 346 347 341 344 343 343 345 340 347 349 349 345 346 347 348 350 350 348 347 350 352 351 350 350 351 339 349 350 348 349 344 343 347 350 351 351 352
349 344 348 346 348 351 349 347 346 345 344 346 344 338 340 346 350 350 347 348 347 348 349 349 351 352 351 350 349 349 337 340 351 350 349 349 347 344 350 349 351 350 350
348 350 344 343 349 350 347 346 344 352 347 341 343 348 347 344 346 351 345 345 347 348 348 348 349 351 351 349 349 350 343 340 349 349 352 349 348 345 351 354 351 349 349
343 351 347 350 349 350 351 347 342 353 349 347 340 347 349 348 338 347 350 350 350 350 351 349 348 347 343 350 351 352 351 350 351 352 351 349 350 349 347 354 356 351 350
343 339 342 349 346 349 348 350 348 343 348 350 348 349 347 346 345 339 338 347 346 348 348 351 351 354 353 350 350 352 350 352 350 350 350 350 351 349 348 350 355 352 350
352 347 344 347 347 347 348 349 349 348 344 350 352 349 351 351 349 347 346 345 347 349 352 354 352 349 350 351 350 350 352 352 346 351 348 350 352 349 346 347 355 352 355
353 351 347 345 350 349 352 348 348 346 346 346 350 353 350 352 352 351 350 348 349 347 349 348 349 350 350 352 355 355 354 351 351 349 345 349 351 351 345 347 350 357 355
353 354 352 347 344 347 349 351 348 349 349 347 347 347 353 351 353 352 350 342 350 352 352 352 354 354 353 351 351 352 351 350 347 336 347 342 339 344 347 349 351 357 355
353 353 353 353 350 347 344 344 348 349 350 351 351 350 348 351 352 351 348 345 339 333 341 342 341 332 329 328 333 333 331 333 336 334 341 348 345 348 348 350 350 355 357
352 353 355 355 353 352 349 345 345 345 347 347 347 354 353 350 347 349 355 355 354 352 346 341 340 335 333 335 339 339 337 339 345 340 342 350 344 344 347 348 346 346 358
351 352 351 352 353 354 354 353 350 347 345 343 342 340 340 349 346 339 341 348 354 355 353 350 345 345 344 344 346 347 346 346 344 336 332 338 341 341 341 345 348 351 356
350 351 351 352 352 352 352 352 353 352 352 349 347 344 342 341 338 343 352 344 340 337 345 350 351 349 347 345 345 348 344 345 345 344 337 335 338 343 341 342 343 344 345

GFSMA_850_thetae_081.txt.gz
Theta_e
343 342 344 344 344 344 343 343 343 346 341 341 342 344 343 345 344 345 339 335 333 333 332 332 331 331 328 325 324 323 322 321 321 321 322 322 322 323 323 323 323 323 322
345 342 346 344 342 342 344 344 343 345 342 341 339 340 343 343 343 345 346 346 345 330 327 327 324 321 319 319 319 319 320 320 321 321 322 322 323 323 323 323 323 323 323
343 345 345 345 343 346 342 344 345 345 342 342 341 344 341 341 342 344 344 345 347 345 321 320 319 318 318 319 320 322 324 326 328 329 331 331 331 330 328 326 324 324 324
344 345 344 343 344 346 341 343 345 346 343 344 344 345 343 340 342 343 342 342 345 345 327 324 321 321 323 326 329 332 337 341 343 344 344 344 344 344 343 340 336 330 327
344 344 345 343 346 346 344 344 345 346 345 344 346 344 343 344 344 343 340 343 341 341 338 339 335 329 333 338 342 343 343 344 344 344 345 345 344 345 345 345 345 343 339
347 345 342 346 346 347 345 343 345 344 343 344 344 345 345 344 345 343 344 344 345 344 341 340 343 339 341 343 343 343 343 343 343 344 344 346 347 347 347 345 345 345 346
348 346 342 342 342 346 344 344 344 345 345 344 344 344 343 343 340 342 344 343 345 344 341 344 339 341 345 346 345 342 342 342 343 345 348 348 347 344 344 346 346 346 346
344 347 341 346 342 344 346 343 344 343 344 342 344 344 343 340 340 341 343 343 344 344 344 341 333 341 346 348 347 346 343 341 342 346 347 348 340 345 353 353 349 344 347
344 347 345 345 346 341 344 344 345 344 341 341 343 344 344 345 341 340 341 342 342 343 343 339 343 345 348 349 349 347 341 341 338 344 344 336 336 350 353 353 349 344 344
343 345 342 345 346 344 336 345 344 343 339 340 341 341 343 346 343 341 342 341 343 342 341 343 344 346 347 347 348 345 343 343 337 336 333 333 335 349 352 353 354 353 348
347 347 346 347 346 346 341 346 344 342 342 344 344 343 344 347 348 349 341 340 342 341 343 345 344 345 348 349 350 351 346 341 345 345 339 335 332 347 350 351 353 353 354
346 346 347 346 342 343 341 340 345 342 343 343 345 347 346 346 348 349 343 341 342 342 344 345 345 347 349 350 351 352 352 340 347 348 346 343 337 344 349 351 352 353 353
346 346 346 347 342 337 346 342 343 340 342 341 343 346 345 347 348 348 348 342 343 344 345 347 347 349 350 351 353 352 352 345 346 349 348 347 343 346 348 350 351 352 353
348 348 346 345 343 342 347 340 340 337 338 340 340 342 345 344 345 346 346 348 347 345 347 347 348 349 351 350 349 347 341 338 347 350 349 349 346 348 348 348 350 350 351
347 350 349 346 341 339 342 343 343 335 337 337 335 339 344 346 348 345 347 347 347 349 349 347 349 348 348 351 351 349 342 334 349 349 350 350 348 344 351 351 349 348 349
348 348 347 338 342 347 346 344 340 340 340 341 340 338 340 346 347 349 347 347 348 347 348 349 351 351 352 352 349 344 348 341 344 348 351 351 349 348 346 351 352 349 348
347 346 341 341 341 347 349 346 345 345 343 340 339 343 341 341 343 349 346 342 345 348 347 348 349 350 350 349 347 348 349 347 349 351 353 353 349 350 348 347 353 350 349
348 347 343 341 344 346 348 347 343 342 350 348 343 342 345 343 339 342 348 344 349 349 349 349 348 346 343 337 340 348 350 351 349 351 349 349 350 351 350 348 348 351 353
343 341 346 347 348 347 346 351 351 343 351 350 345 341 342 343 341 339 340 347 347 349 348 348 347 347 344 343 347 349 350 352 352 347 350 349 349 351 351 347 346 352 354
348 342 338 341 339 342 347 350 346 347 343 344 349 347 347 345 345 344 339 338 337 338 345 344 349 351 351 346 351 355 355 355 354 350 347 348 347 350 351 348 344 348 356
350 349 347 345 345 348 346 345 346 344 345 344 344 350 349 349 350 350 349 343 341 339 339 345 342 348 349 355 354 352 352 351 351 350 342 333 337 347 344 342 347 350 353
352 352 349 351 346 345 343 346 345 347 347 346 345 345 346 350 351 350 350 352 349 345 341 349 350 350 351 353 352 338 334 335 332 329 327 327 343 345 347 348 349 351 348
351 353 352 352 349 348 344 342 349 352 351 349 348 347 345 345 346 347 346 349 350 348 344 336 334 334 333 330 330 330 332 336 333 329 331 330 331 341 342 344 347 350 345
348 352 352 352 352 353 353 349 345 347 348 349 349 350 349 347 351 349 349 352 352 352 352 351 351 349 341 335 342 344 345 344 340 332 337 339 329 327 338 341 343 346 347
347 350 352 352 352 354 353 354 353 346 345 345 346 347 347 347 346 347 348 347 346 343 341 340 339 338 338 338 340 345 346 347 343 329 330 342 342 334 330 341 342 343 342
344 347 349 350 351 351 350 351 351 352 350 348 347 345 345 344 342 342 343 342 341 334 335 336 337 336 337 342 345 345 343 343 341 334 331 342 341 344 341 336 338 344 345

GFSMA_850_thetae_084.txt.gz
Theta_e
342 342 341 343 341 340 342 344 343 340 342 342 342 341 343 344 345 344 343 339 332 331 330 329 327 325 323 321 321 321 321 321 321 321 322 322 322 322 323 323 323 323 322
340 343 343 343 343 343 344 342 344 343 344 341 341 342 342 342 343 344 344 346 338 321 322 320 319 318 319 319 320 320 321 322 324 325 327 327 326 326 324 324 323 323 323
342 344 343 342 342 343 343 344 344 342 342 342 342 341 341 339 341 342 343 345 336 321 320 319 319 320 321 323 325 328 332 337 340 342 343 343 343 342 340 337 331 326 324
344 345 344 342 341 342 344 344 344 343 341 340 343 342 340 339 342 341 342 343 333 331 330 323 325 327 330 336 340 343 343 344 344 344 344 343 343 344 344 344 344 340 334
343 344 344 345 344 344 344 344 344 344 343 344 344 344 343 341 343 342 344 342 340 334 336 331 334 340 342 343 343 343 343 342 343 343 343 345 346 346 346 345 344 344 343
343 343 342 342 344 345 344 344 345 343 343 344 344 345 344 344 345 343 344 344 344 340 337 335 341 343 345 345 342 343 342 343 344 346 348 348 346 343 345 346 346 345 344
344 342 342 343 345 345 345 344 345 345 344 344 344 344 343 344 345 344 344 343 344 343 339 336 337 344 344 345 346 345 343 340 344 346 348 344 339 350 353 353 350 346 346
346 345 339 341 340 344 343 344 344 343 343 343 345 343 341 340 340 341 343 343 343 343 341 336 342 347 347 347 346 343 345 341 342 343 337 338 341 351 352 353 348 343 342
343 347 342 345 343 344 344 344 344 343 341 341 341 345 344 341 341 341 341 343 342 342 341 341 345 346 346 346 347 345 346 340 339 334 337 335 342 350 351 352 353 352 346
344 345 344 345 342 342 344 345 344 344 338 339 341 342 343 343 341 340 341 342 341 342 341 343 344 347 348 349 349 350 346 345 346 345 345 338 339 349 350 351 352 353 353
344 347 344 341 345 343 337 345 344 343 341 343 344 343 348 348 348 349 341 341 342 342 342 344 344 345 348 350 351 352 353 343 347 348 347 343 346 347 349 351 351 352 353
345 345 342 344 345 344 344 345 341 342 343 343 345 347 346 348 348 349 345 341 342 342 344 344 345 347 349 350 351 352 349 347 345 348 348 347 346 348 347 349 349 350 352
345 344 346 345 342 342 343 340 340 343 341 342 343 346 345 347 347 347 348 341 341 342 344 346 347 348 349 351 351 350 348 344 341 349 349 349 345 348 349 348 347 348 349
345 347 346 345 343 341 339 342 340 339 340 342 341 341 347 345 347 346 347 347 342 344 344 345 347 348 349 351 350 350 346 345 340 349 350 350 347 346 346 351 349 348 348
346 346 347 348 341 341 343 343 340 335 335 339 340 338 342 344 348 347 347 347 347 348 348 349 350 348 350 351 352 348 346 348 346 348 351 351 348 349 347 347 352 348 347
347 346 348 348 347 339 342 343 340 342 336 334 338 336 336 342 346 349 347 347 347 347 348 349 349 351 352 353 351 347 345 349 350 351 352 353 351 349 350 347 348 350 350
346 348 347 347 339 342 346 346 345 338 337 336 337 337 340 340 341 345 348 346 346 346 347 348 349 348 348 348 345 339 342 350 351 350 350 350 348 350 350 349 345 350 352
347 347 346 344 340 342 347 347 344 344 342 339 335 338 340 342 342 341 346 346 346 348 348 347 347 347 346 343 343 345 344 349 350 351 348 348 348 348 350 350 346 345 351
347 348 346 345 341 342 344 346 345 343 340 347 347 345 339 341 342 343 341 339 344 344 344 348 348 347 346 343 342 347 350 351 352 353 350 349 347 346 345 350 349 343 347
341 343 341 338 342 345 348 347 346 347 348 343 348 347 338 336 338 339 337 336 338 339 339 339 340 343 343 342 346 351 352 352 352 353 351 349 338 330 342 345 340 342 349
346 345 345 343 341 345 344 348 347 349 347 346 345 341 346 340 338 340 346 346 345 343 339 336 335 338 338 335 343 352 352 348 336 340 339 328 326 333 339 347 347 349 350
346 347 346 346 350 346 345 347 349 346 344 345 346 344 343 345 348 346 345 350 351 350 344 341 333 335 342 345 345 341 333 331 331 328 332 328 328 331 342 344 343 345 346
344 347 348 347 349 348 349 346 345 347 348 350 351 349 348 346 344 345 348 349 346 345 349 350 349 348 346 340 341 336 336 341 343 339 340 330 326 327 326 335 341 346 347
342 344 345 347 349 349 347 347 347 345 346 350 351 349 350 349 348 347 348 350 346 348 351 352 352 349 348 344 342 338 342 342 340 335 339 333 328 339 339 325 336 341 345
340 344 344 344 345 347 349 348 347 348 347 346 346 347 348 347 346 348 351 349 344 343 343 344 344 340 339 339 341 340 340 338 337 331 333 335 329 339 341 341 335 337 340
340 341 342 344 345 345 347 349 351 350 349 349 347 343 344 345 345 345 345 345 346 342 341 340 340 339 340 341 343 346 347 349 347 343 334 338 326 332 339 341 343 344 344

GFSMA_850_thetae_087.txt.gz
Theta_e
342 340 339 340 341 342 343 340 340 342 342 341 340 342 343 344 344 344 342 330 329 328 327 325 324 321 320 320 320 320 321 322 322 324 324 325 325 324 323 323 323 323 323
341 342 343 342 340 342 340 342 342 343 340 340 341 341 342 342 343 344 345 336 320 320 319 319 319 319 319 321 322 326 330 334 338 340 342 342 341 339 336 330 326 324 324
341 343 342 342 343 342 341 344 343 341 342 342 342 342 342 340 343 343 344 334 324 321 320 320 321 323 327 331 337 342 343 343 343 343 343 343 343 343 343 342 341 335 327
342 343 342 341 342 344 343 344 343 341 342 342 342 341 340 340 342 342 343 337 336 336 327 327 331 337 341 343 343 342 342 342 342 342 343 345 346 346 345 344 342 343 341
343 344 343 342 341 341 343 343 343 341 342 343 344 343 343 343 343 342 343 341 335 336 335 339 341 342 342 342 342 342 342 343 344 346 347 347 345 342 345 347 345 344 343
342 343 343 343 343 344 344 343 343 342 343 343 343 344 344 343 344 343 343 344 342 339 336 341 343 344 343 344 345 345 344 342 344 346 346 341 340 350 353 353 351 349 345
342 344 342 341 345 344 343 344 344 343 343 343 344 341 342 343 343 343 343 344 344 342 338 336 341 343 346 345 345 344 345 342 343 339 337 337 344 351 352 353 349 344 344
341 342 342 342 344 344 344 342 344 343 342 342 344 344 340 340 340 340 342 342 343 342 341 340 346 346 346 347 346 345 344 343 340 343 340 337 347 350 350 352 353 351 346
342 344 341 341 341 342 344 344 343 343 341 341 341 342 344 342 341 341 340 341 340 340 341 344 346 346 348 348 350 349 346 347 347 347 344 344 345 349 350 351 352 352 353
340 345 344 343 344 345 343 342 344 343 340 339 340 342 344 343 341 339 340 340 338 340 342 343 343 346 348 349 351 352 351 345 347 348 348 345 348 348 349 350 351 352 353
341 344 341 344 344 339 341 344 343 344 341 343 343 342 348 348 346 347 341 340 340 340 342 343 344 346 349 350 351 352 350 348 344 348 349 347 347 350 348 348 348 351 352
344 344 343 341 341 341 340 342 344 343 342 343 345 345 348 348 347 348 341 340 341 341 344 344 345 346 349 350 350 351 348 348 343 349 349 349 345 347 351 349 347 347 348
343 346 344 341 341 342 344 343 343 342 342 343 342 346 346 347 347 346 346 341 341 342 343 345 347 347 348 350 350 350 349 349 341 349 349 350 347 347 347 350 347 347 347
344 345 345 345 345 343 342 343 341 340 342 341 342 341 345 345 347 347 347 344 341 342 344 344 345 347 348 350 351 351 346 349 349 348 350 351 350 348 348 346 349 349 348
345 345 345 345 343 341 340 340 342 341 339 338 339 340 339 342 347 347 347 347 347 348 347 349 348 348 348 350 352 350 347 345 350 351 351 351 350 349 349 349 346 350 351
345 346 345 347 348 347 341 339 341 341 337 334 335 338 338 337 341 345 348 346 346 347 347 348 349 352 352 352 350 346 342 337 350 350 349 348 347 347 348 350 347 345 351
346 346 347 346 347 348 341 340 343 340 337 338 336 336 337 336 335 341 345 347 346 344 345 346 347 348 347 346 345 342 340 340 349 350 350 349 348 347 346 349 349 345 345
346 345 347 348 347 341 340 345 345 346 345 338 338 337 337 337 339 339 342 344 345 345 345 346 347 346 346 345 345 344 344 348 349 351 352 351 350 351 342 337 348 349 344
345 345 346 345 344 341 340 343 346 343 343 342 343 345 339 340 339 342 342 342 341 340 342 344 344 344 346 346 345 342 341 345 353 352 351 350 346 339 328 333 344 343 340
345 346 345 346 346 345 341 343 345 345 345 344 342 344 345 344 341 340 340 340 339 338 339 339 339 339 339 339 338 337 335 346 351 350 349 338 330 327 328 339 345 342 347
341 342 344 347 346 342 343 346 347 346 345 343 346 346 344 343 345 341 341 340 343 346 346 347 345 341 334 335 339 342 345 343 339 333 328 327 329 328 328 345 346 346 347
343 343 343 344 345 347 347 344 344 347 349 346 344 344 345 344 343 345 347 345 345 347 349 349 349 348 347 346 338 338 339 335 332 329 332 328 328 325 327 328 332 344 343
339 340 344 345 344 345 346 346 346 345 345 348 346 345 348 348 348 347 345 344 346 347 348 348 346 348 348 345 348 347 346 342 337 336 338 330 327 326 332 340 332 332 341
337 336 339 342 343 344 344 345 346 346 346 343 344 347 351 349 348 348 348 349 349 348 349 347 345 349 349 345 345 345 347 344 339 336 339 338 330 329 329 339 341 328 336
338 336 338 338 340 342 343 343 342 343 344 345 344 344 344 344 346 346 347 346 342 343 344 343 343 342 342 341 341 343 344 345 343 339 340 344 333 333 330 328 338 341 342
339 339 339 340 340 340 341 342 343 345 345 344 345 348 347 347 347 345 345 347 347 345 344 344 344 344 343 343 343 343 343 343 344 344 337 344 340 343 344 334 331 336 339

GFSMA_850_thetae_090.txt.gz
Theta_e
339 339 340 340 341 343 342 338 341 342 339 339 341 343 343 344 344 344 339 325 327 326 324 322 321 320 320 320 322 325 329 334 338 339 340 339 338 337 334 328 325 324 324
341 341 340 340 341 342 342 340 342 341 341 341 342 342 342 342 343 344 339 323 321 320 319 319 319 321 325 331 337 341 342 343 342 342 342 342 342 342 342 342 339 332 326
343 343 342 341 341 340 341 342 341 341 341 342 341 340 341 340 342 343 338 336 331 323 323 324 328 333 340 342 343 342 342 342 342 343 344 345 345 344 344 343 343 343 340
342 342 342 341 341 342 341 343 342 341 341 342 342 342 341 341 342 342 342 340 338 334 333 337 340 341 342 341 342 342 342 343 344 346 346 346 345 344 346 346 345 344 344
342 343 341 342 342 342 342 343 343 342 341 342 343 344 343 343 343 343 342 340 337 338 341 341 342 343 343 345 345 344 344 343 345 344 342 340 342 350 352 352 351 350 345
342 343 342 342 342 343 343 343 342 342 342 343 343 343 343 343 342 343 343 343 341 339 340 342 344 344 345 344 344 345 344 340 339 340 339 339 348 350 351 353 350 344 345
340 342 341 342 345 343 343 344 343 342 343 342 342 341 339 339 341 342 343 343 343 342 338 338 343 345 346 345 345 345 345 345 345 344 344 343 348 349 350 352 353 351 345
340 342 341 342 343 343 343 342 344 343 342 341 343 342 340 339 340 341 341 341 341 341 341 344 345 346 348 350 349 347 347 348 347 347 346 348 347 349 350 351 352 352 352
340 342 340 341 341 343 343 342 342 342 342 339 340 342 344 342 340 340 340 340 338 342 344 345 346 347 349 350 351 351 350 347 348 348 347 346 349 348 348 349 350 352 352
341 343 341 342 343 341 342 342 342 342 341 340 342 343 344 345 343 339 339 338 337 341 343 343 345 347 349 349 350 351 350 349 346 348 348 345 346 350 349 347 348 350 351
343 343 344 341 343 342 343 342 342 344 341 342 344 343 346 347 347 347 342 338 337 339 342 343 345 347 349 349 349 349 349 349 344 348 349 348 346 346 350 347 347 346 346
342 342 343 341 344 342 338 338 343 343 342 342 344 345 347 347 346 347 345 341 341 341 343 343 344 346 348 350 350 347 349 350 345 349 349 350 348 347 346 349 348 347 345
342 341 342 341 341 342 341 338 343 341 342 342 342 344 345 346 346 347 347 343 341 342 343 344 346 347 347 348 349 350 347 348 348 346 349 350 349 348 348 346 349 350 349
343 343 344 344 340 343 341 343 343 343 341 341 342 341 342 344 346 346 347 346 342 341 342 345 346 346 347 347 350 350 350 344 348 350 350 349 349 347 349 349 345 348 351
345 343 344 342 344 345 344 341 342 342 339 337 340 341 340 339 342 345 347 346 347 347 347 348 348 348 348 349 351 350 347 341 338 349 349 348 346 347 347 348 349 345 346
346 345 345 345 344 344 344 341 340 339 341 340 338 337 339 339 337 340 345 347 346 346 347 348 348 348 349 348 346 345 344 341 338 346 349 349 350 348 350 344 348 348 345
344 344 345 345 345 346 347 347 339 342 342 340 336 333 333 337 338 336 337 344 346 346 345 344 344 344 345 345 345 345 344 341 344 348 349 350 350 352 351 340 334 347 348
344 344 344 345 347 347 347 345 339 342 342 340 338 336 334 336 336 336 336 337 343 343 344 344 344 343 343 344 344 344 343 341 342 349 350 351 351 350 343 328 329 338 346
341 342 343 343 345 344 343 340 341 344 343 340 342 342 342 340 335 337 337 341 342 342 341 339 339 341 342 341 338 335 336 336 336 347 350 349 348 338 327 326 338 343 340
342 341 343 344 345 344 345 344 342 344 344 343 342 341 342 343 344 345 341 342 342 341 342 343 344 344 343 340 336 337 339 341 341 342 340 331 328 329 330 327 330 345 346
342 341 341 344 343 345 345 343 344 344 346 346 344 344 345 345 344 342 345 342 342 342 342 347 346 348 349 343 346 346 346 346 340 333 327 329 330 331 330 330 331 329 344
342 342 341 342 341 341 344 347 347 345 345 346 346 343 345 345 345 345 345 345 346 348 348 346 346 342 344 347 348 350 350 350 348 339 338 329 329 327 328 329 340 339 330
340 340 338 340 343 343 344 343 344 344 345 345 344 346 345 344 347 347 346 344 345 347 346 346 347 348 346 343 349 348 346 345 343 338 338 331 329 327 328 328 333 340 331
339 339 338 336 338 340 341 342 343 343 343 343 344 343 342 343 345 347 348 348 347 345 346 347 346 347 347 346 346 345 343 340 339 337 337 338 332 329 330 329 328 334 341
338 339 339 336 337 338 337 340 341 342 343 342 342 343 343 343 342 343 343 343 344 344 344 343 343 343 343 343 343 344 342 343 342 341 342 343 336 338 342 339 338 329 335
334 335 337 338 337 337 336 338 339 340 341 342 344 344 344 344 346 347 346 346 345 344 344 344 344 344 345 345 346 347 348 348 346 346 344 347 344 345 346 344 344 345 345

GFSMA_850_thetae_093.txt.gz
Theta_e
338 339 340 341 343 340 337 342 341 339 339 340 342 342 343 343 344 340 327 324 325 323 321 320 320 321 325 333 339 341 342 342 341 341 342 342 342 343 342 342 337 327 324
339 340 340 342 342 340 339 340 341 341 341 342 342 341 341 343 343 338 331 324 321 320 321 323 327 334 340 342 342 341 341 341 342 343 344 345 345 344 344 343 343 342 335
342 340 341 340 341 340 340 341 341 341 341 340 340 340 340 341 342 340 337 336 329 327 330 336 341 341 341 341 342 343 343 344 345 346 346 344 343 344 346 346 344 343 343
342 342 342 341 341 340 342 342 341 341 342 342 343 343 343 342 342 341 338 337 337 339 340 341 341 342 343 344 344 345 343 343 342 341 340 341 346 350 352 352 351 349 344
342 342 341 342 342 342 342 342 341 340 341 342 343 343 343 343 343 343 342 339 338 341 342 343 343 343 343 344 345 344 342 342 343 343 341 344 349 350 351 352 351 345 348
342 343 342 341 342 343 342 341 340 341 342 343 341 340 340 341 343 343 343 341 339 340 342 342 343 344 344 345 345 346 346 347 346 346 347 347 349 350 350 351 352 350 343
341 342 342 343 344 343 342 343 342 342 342 342 340 340 339 340 341 342 342 341 339 338 338 342 346 347 348 348 347 347 347 348 348 347 347 349 348 349 349 351 352 352 350
340 342 340 340 343 343 342 343 343 342 341 341 340 340 344 342 339 340 341 341 340 340 342 344 347 348 349 351 351 350 349 347 348 349 346 346 349 349 347 348 350 352 352
340 341 340 341 343 343 343 342 342 342 340 340 341 343 347 344 340 338 339 340 340 342 343 346 347 348 349 349 350 350 349 347 347 348 348 345 346 349 348 347 347 350 347
341 341 340 340 341 340 342 342 342 342 340 341 342 342 346 346 348 344 339 337 341 343 344 344 345 347 349 349 349 349 348 343 345 348 348 348 346 346 348 347 347 344 340
344 341 343 342 343 343 343 342 342 343 341 343 344 344 347 347 346 347 344 342 337 341 342 343 345 347 349 349 349 346 347 347 345 346 349 349 348 348 346 348 349 348 345
344 341 344 341 344 341 340 340 341 342 342 342 344 346 347 349 348 349 349 345 340 341 343 344 345 346 348 349 349 350 349 344 346 345 348 350 350 349 349 347 347 350 350
343 340 343 341 343 342 341 337 341 342 342 341 342 344 345 346 346 347 347 346 341 341 342 343 344 346 347 347 349 349 349 346 339 343 348 348 347 347 348 348 348 345 350
344 340 342 341 341 341 341 342 340 343 341 341 341 341 341 343 345 346 347 348 349 347 343 346 346 347 347 348 349 349 347 345 342 338 346 348 347 347 348 346 348 348 345
344 343 342 342 342 343 344 341 343 342 342 341 339 340 341 340 340 343 346 347 346 350 350 352 353 349 350 350 348 346 345 344 342 339 344 348 349 349 349 350 342 346 348
345 346 344 343 341 343 343 341 340 341 342 342 340 338 338 340 340 338 339 344 347 347 349 346 350 346 345 346 346 344 344 344 343 341 345 348 349 350 351 345 333 331 345
345 345 345 345 345 345 345 345 346 342 340 339 341 339 337 335 337 339 338 336 338 344 349 350 345 344 343 342 342 342 341 342 349 343 347 350 350 350 348 337 328 334 337
345 344 344 344 346 345 344 345 346 341 340 340 340 338 337 335 334 335 336 336 338 338 343 345 346 343 341 340 342 341 338 341 344 342 337 348 350 347 334 329 329 336 346
343 343 343 343 343 345 345 345 342 340 342 341 340 342 339 338 336 336 336 337 342 341 343 343 345 341 338 338 338 339 334 335 340 342 341 337 332 328 330 331 329 328 334
338 340 340 340 344 344 344 344 343 341 342 342 341 340 340 342 343 341 345 344 342 340 344 344 349 349 348 345 343 346 349 350 348 340 340 333 331 329 330 331 330 329 334
340 341 342 342 342 342 343 342 342 344 342 343 345 344 343 343 345 344 343 341 341 341 348 348 347 348 348 349 348 350 352 352 350 344 338 343 342 333 332 327 328 328 338
341 341 341 342 341 341 341 341 343 342 342 345 345 345 344 342 344 345 345 344 344 344 344 347 348 349 349 347 350 349 351 351 349 346 339 338 342 339 338 341 334 327 334
339 340 340 339 341 342 341 342 342 342 343 342 342 341 341 348 345 343 345 347 347 344 344 346 347 346 347 346 346 346 351 349 349 345 344 345 341 343 345 342 331 334 329
336 338 338 338 336 337 340 341 342 343 343 343 343 343 343 341 341 341 343 344 344 344 345 347 346 345 345 344 344 347 345 343 343 347 348 347 345 345 345 342 339 341 332
337 338 339 339 338 337 336 338 338 339 340 341 342 344 344 344 344 343 342 342 342 342 343 342 343 344 343 343 344 345 347 350 348 348 349 351 347 349 349 344 340 343 344
332 332 334 336 337 337 336 336 337 336 337 338 340 342 343 343 342 342 342 343 346 348 346 345 346 346 346 345 345 346 346 350 350 350 349 350 350 350 350 348 350 348 346

GFSMA_850_thetae_096.txt.gz
Theta_e
347 347 348 346 345 346 347 348 346 345 345 346 346 346 344 341 340 338 335 321 320 320 320 322 328 337 341 342 341 341 341 342 343 344 345 345 345 344 344 343 342 338 328
347 347 348 347 345 345 346 346 346 345 344 344 345 345 343 341 342 341 338 326 322 324 329 337 342 342 341 342 343 343 344 345 345 345 344 343 343 345 346 345 344 343 342
340 347 348 347 346 344 346 346 346 345 343 342 344 345 343 343 343 344 343 342 337 337 341 342 342 342 343 343 344 343 342 342 342 341 341 343 348 350 352 352 351 347 344
342 347 347 347 347 347 347 346 345 343 343 343 345 345 344 343 345 345 344 347 348 347 343 342 342 342 344 344 342 342 343 344 345 345 344 348 350 350 351 352 352 347 349
342 348 348 348 347 347 347 345 345 346 345 344 344 344 344 344 345 343 345 348 346 348 348 342 342 343 344 345 346 346 347 347 347 347 348 348 349 350 351 351 352 350 344
342 347 347 347 349 348 347 346 346 346 346 346 343 343 343 344 345 345 345 346 347 348 347 344 350 348 346 346 346 347 348 348 348 347 348 349 349 348 349 350 352 352 349
342 342 348 345 347 349 346 349 346 348 344 342 344 343 341 343 344 345 344 346 346 346 347 349 351 352 351 350 350 348 346 348 349 348 346 346 350 347 347 348 351 351 351
340 345 347 348 348 348 348 345 344 346 344 344 344 345 342 341 342 342 343 344 346 344 346 349 351 350 351 350 350 348 346 344 348 348 347 346 346 348 347 346 346 347 344
346 344 341 349 344 348 348 347 347 344 344 346 342 348 344 343 342 341 343 343 346 345 346 348 349 350 349 351 348 349 345 342 346 348 348 348 348 346 347 349 348 341 335
348 346 342 341 342 348 349 346 348 347 346 347 347 350 347 349 345 342 341 342 344 345 346 346 347 349 351 351 350 348 345 345 343 346 349 350 349 349 348 347 350 349 346
347 348 342 340 341 347 345 351 345 345 347 349 346 350 353 352 352 346 342 341 342 343 345 346 347 348 351 352 351 350 349 344 341 345 348 349 349 348 348 349 346 349 351
350 347 347 340 343 347 343 346 344 343 349 346 350 351 350 350 349 348 346 345 343 344 345 346 348 349 350 352 353 349 349 345 343 339 345 348 346 347 348 347 348 347 347
347 349 347 342 346 342 338 342 340 347 344 350 346 349 350 351 352 352 349 347 345 345 347 348 350 352 351 353 354 349 350 346 344 341 340 347 348 348 348 350 346 347 348
349 350 346 347 348 343 342 341 345 347 348 346 345 345 349 350 350 351 352 351 347 346 348 347 352 353 354 354 352 348 352 347 342 342 342 346 349 349 349 351 344 339 345
352 349 348 348 348 346 346 343 347 345 351 346 350 342 346 347 348 349 351 352 351 348 349 353 351 353 353 353 353 348 351 347 342 343 342 346 349 350 350 347 339 330 333
344 346 349 349 349 348 346 341 348 346 349 349 348 349 340 345 347 348 348 349 350 350 348 351 350 352 352 350 350 346 348 345 348 348 344 345 349 350 350 344 333 328 339
344 344 345 344 348 345 344 343 346 349 350 349 350 349 348 345 345 346 347 348 347 347 348 347 350 350 351 352 349 341 346 347 345 346 342 339 338 344 346 333 330 328 333
343 344 344 344 344 349 351 345 345 350 350 349 348 349 349 345 346 343 346 347 347 348 347 346 346 348 351 351 351 350 350 345 346 344 343 343 334 331 328 330 331 329 328
342 347 344 344 344 343 344 344 346 348 348 348 348 348 348 347 348 344 345 345 343 344 345 345 345 346 347 350 351 350 348 349 348 346 345 343 338 331 329 329 329 328 328
341 347 345 344 342 342 343 344 343 343 349 349 349 348 348 349 349 350 349 349 348 349 346 346 345 344 345 346 349 347 345 346 347 347 347 344 342 342 341 336 331 329 328
347 346 348 349 348 346 348 344 342 342 344 343 349 350 350 348 345 344 348 349 351 349 346 344 344 344 345 347 347 346 346 346 346 347 346 348 344 341 341 341 341 343 337
342 343 346 347 350 349 344 341 341 342 349 341 347 349 347 344 343 342 344 346 346 345 350 348 346 346 347 350 349 349 348 347 347 346 346 345 343 343 341 342 343 341 335
341 341 342 346 342 342 341 341 341 341 349 348 349 350 350 346 347 349 348 343 345 347 348 346 347 350 348 348 349 350 349 349 348 346 346 346 347 347 343 342 346 343 342
339 338 338 339 339 338 340 342 342 343 347 348 349 348 347 347 343 341 344 349 350 351 349 346 348 347 346 348 348 348 348 349 351 350 347 347 347 348 347 346 348 348 344
338 337 338 338 338 338 337 336 337 339 343 344 342 342 343 343 342 343 342 345 350 351 350 347 350 348 344 343 344 345 348 350 349 348 348 347 346 346 347 347 347 348 349
335 334 337 337 336 337 337 337 336 336 336 338 338 339 339 340 340 342 342 342 343 344 343 344 345 346 347 347 347 349 350 351 351 350 349 351 352 351 350 349 347 348 348

GFSMA_850_thetae_099.txt.gz
Theta_e
346 345 345 346 344 347 347 345 344 346 346 346 342 342 341 341 339 336 321 320 321 323 329 339 342 342 341 342 343 343 344 344 343 343 342 343 343 344 344 344 343 342 339
348 346 345 346 344 346 347 345 348 344 344 342 344 344 341 341 343 338 335 326 328 336 342 342 342 342 343 343 343 342 342 342 341 341 343 346 349 350 351 351 349 346 343
350 347 344 346 345 343 347 347 345 343 341 340 344 345 343 344 345 346 343 343 342 342 342 342 341 342 343 342 343 344 345 346 347 346 347 349 350 350 351 352 352 350 349
349 348 347 346 346 347 344 345 343 343 343 343 344 345 344 343 346 347 347 348 349 348 341 341 342 343 344 346 346 347 348 347 348 348 348 348 348 349 350 351 352 351 345
351 347 347 346 347 346 345 343 343 345 344 343 344 344 345 344 347 345 349 350 348 351 349 341 343 344 345 346 346 347 348 348 347 347 348 349 347 347 348 350 351 352 349
350 348 348 347 347 347 346 348 348 344 345 346 344 343 344 344 346 346 348 349 349 350 346 351 352 350 347 347 346 345 346 348 347 347 346 346 348 347 346 347 350 350 350
350 347 348 346 348 349 348 347 348 346 343 342 349 343 342 345 346 346 347 348 348 345 348 351 351 354 353 351 345 344 341 347 348 348 347 347 345 347 348 346 342 341 341
350 349 350 348 350 348 350 350 348 349 342 344 346 346 342 343 343 344 345 346 348 345 347 349 351 353 352 350 348 346 342 344 347 349 349 349 348 347 347 349 348 343 338
350 353 347 353 345 351 349 347 345 348 346 343 345 351 348 345 343 344 344 346 347 345 346 349 349 350 353 352 350 349 341 342 343 347 349 350 349 349 348 346 347 350 347
350 350 351 351 349 349 350 347 347 344 351 345 343 347 342 351 352 342 342 345 345 346 346 348 347 351 352 351 352 348 348 343 341 344 348 348 348 347 348 347 347 345 350
351 349 350 350 351 349 348 353 347 351 346 349 346 347 346 347 340 349 343 343 345 344 345 347 347 348 351 351 353 348 348 346 344 340 342 347 347 347 347 348 347 347 346
350 350 351 350 351 354 350 350 352 351 353 349 351 349 349 350 349 348 345 342 345 345 345 346 347 348 348 350 353 349 349 348 344 342 341 342 347 348 348 349 349 345 346
350 350 349 348 350 346 353 353 349 354 348 353 349 351 345 349 349 350 348 347 344 346 347 347 348 349 352 350 355 349 354 353 344 340 340 342 347 349 349 350 348 340 337
347 352 352 351 352 351 351 351 348 347 350 349 348 349 352 347 349 348 350 349 349 345 347 349 349 351 352 354 352 349 352 352 348 345 347 344 343 348 349 349 345 336 329
352 353 350 350 350 350 351 352 347 349 352 347 353 349 342 348 346 349 349 349 349 349 352 350 351 345 348 352 352 351 351 350 345 347 348 347 340 343 349 350 344 331 327
353 353 350 350 349 350 350 349 350 347 348 349 349 349 349 348 348 346 347 348 348 348 347 350 351 353 352 349 351 352 350 346 347 346 347 343 339 337 338 345 334 329 326
346 350 348 351 351 351 351 350 344 349 354 350 349 351 350 349 348 347 346 348 348 347 347 347 349 350 351 352 354 348 352 350 348 346 344 345 343 333 329 328 328 330 328
351 350 349 351 352 351 352 351 351 350 353 351 350 349 349 348 348 345 345 346 347 348 350 346 346 346 346 348 350 351 351 350 348 350 347 346 344 340 334 329 327 328 327
348 351 352 346 348 349 354 353 350 351 350 351 350 350 350 349 348 347 347 348 347 347 347 348 347 345 344 344 346 350 347 348 351 346 346 347 345 342 343 341 340 337 333
349 350 352 353 352 351 346 353 353 352 352 351 350 350 350 350 350 350 348 347 346 347 347 348 347 345 346 344 344 347 348 344 346 348 347 346 348 345 344 341 341 341 342
347 349 350 351 352 351 348 347 351 352 352 351 353 352 351 351 350 348 347 349 349 350 350 350 346 344 344 349 350 348 349 347 347 346 346 347 345 344 343 342 341 343 344
345 347 348 347 349 349 348 345 344 346 351 352 351 352 351 351 343 344 344 342 342 344 344 350 349 349 347 349 350 351 351 348 348 347 347 347 346 347 347 346 344 344 344
344 345 346 343 342 342 341 342 344 343 344 349 349 350 350 349 348 350 350 347 345 343 343 345 345 343 343 344 346 345 350 350 351 348 348 352 350 349 347 346 347 347 347
341 342 344 342 341 340 340 341 342 342 343 348 349 349 348 346 342 344 343 343 350 351 349 349 350 349 346 347 348 349 346 346 350 349 349 350 349 348 347 347 347 347 347
340 341 341 339 337 337 338 337 337 343 347 347 343 343 344 342 342 342 342 344 346 348 349 347 347 347 345 343 344 345 345 349 349 349 351 351 352 350 352 353 351 350 349
338 341 340 338 337 337 337 338 338 337 339 340 342 340 338 339 339 338 339 341 342 346 346 343 342 342 342 343 346 348 349 349 350 352 350 351 352 352 351 350 352 351 350

GFSMA_850_thetae_102.txt.gz
Theta_e
344 347 343 344 345 344 347 344 347 347 345 342 342 341 341 339 338 328 322 323 327 337 342 342 341 341 341 341 341 342 342 342 341 342 344 346 348 349 350 349 347 344 342
343 343 346 346 346 346 345 342 339 345 342 342 345 342 341 342 339 338 338 337 341 342 341 340 340 340 341 343 345 346 347 347 347 347 348 349 349 350 350 351 351 351 348
342 344 347 346 338 345 344 346 343 341 342 343 344 343 344 344 343 344 345 346 343 339 338 339 341 344 345 346 346 345 346 347 348 348 348 347 348 349 350 351 351 351 347
347 349 347 345 347 349 346 346 345 343 343 344 346 345 344 341 345 347 348 349 350 348 337 341 343 344 345 346 346 347 346 344 344 346 347 347 346 346 348 350 351 351 349
345 347 347 341 344 348 343 345 345 343 346 344 343 344 345 346 347 347 348 350 350 352 346 349 347 348 344 342 343 345 346 345 345 345 345 346 347 347 345 345 348 347 349
351 348 350 342 342 349 347 345 344 345 346 346 346 345 345 346 346 347 350 350 346 348 346 352 353 353 351 343 342 340 345 346 347 347 348 347 346 346 348 346 341 338 338
348 347 344 346 349 348 344 340 348 345 342 343 349 343 342 344 347 346 349 349 348 350 346 351 354 353 354 345 345 341 341 344 347 348 348 348 348 347 345 346 348 345 341
342 349 350 349 346 348 339 346 350 352 342 345 349 348 343 346 346 345 347 348 348 345 348 352 347 349 353 348 344 341 340 342 344 347 348 347 347 347 347 347 346 348 347
344 347 349 348 350 349 343 344 348 349 343 340 347 351 350 348 343 343 344 347 345 346 348 347 350 348 351 351 347 344 344 344 341 341 345 346 345 346 347 347 347 346 348
348 348 348 343 349 338 344 349 347 347 348 347 343 347 341 348 348 345 345 346 348 347 348 348 349 350 346 354 353 348 345 345 343 342 340 344 346 347 347 348 348 347 347
349 349 349 348 343 348 349 347 345 345 349 349 351 346 344 349 347 347 344 343 346 347 345 347 348 351 350 350 353 350 346 347 343 340 340 340 343 347 348 348 350 346 343
348 348 348 346 346 344 343 350 346 344 348 346 350 349 348 347 348 350 349 345 345 344 345 345 346 348 349 354 352 350 349 351 349 344 343 341 341 343 348 349 349 342 337
350 349 348 347 346 345 352 349 349 344 343 341 344 350 347 344 341 349 352 342 346 347 348 347 349 348 349 350 351 349 352 351 349 345 347 347 346 339 342 348 348 343 331
345 349 349 345 347 347 345 346 345 342 349 344 344 346 351 351 350 349 349 346 348 347 346 342 344 343 336 337 346 351 353 351 344 346 347 348 344 339 335 340 345 339 329
345 348 348 350 345 352 347 349 342 348 348 348 352 344 339 344 347 349 349 349 348 348 347 338 339 341 338 332 349 353 351 349 341 347 347 345 343 341 334 336 341 330 329
346 341 347 349 348 347 349 349 346 349 348 341 349 351 348 344 343 348 349 348 350 347 348 346 347 348 344 349 351 353 347 343 349 349 346 346 345 343 335 326 326 326 327
347 346 349 350 350 346 345 345 342 348 349 347 343 348 349 349 341 339 348 347 350 348 348 350 348 345 343 346 347 351 349 349 349 348 349 346 345 345 340 342 337 333 326
348 348 345 347 348 349 350 349 343 345 349 347 348 345 346 345 349 348 340 344 346 345 348 348 347 347 347 343 344 346 346 349 348 349 348 345 347 346 344 343 341 341 340
347 347 348 346 344 345 346 348 349 347 346 349 348 350 349 348 348 346 345 346 346 347 346 345 345 345 344 345 347 347 349 346 344 346 347 347 346 347 345 344 343 342 341
346 348 343 348 348 346 347 348 350 346 346 349 349 347 349 350 346 348 346 348 345 348 348 349 351 350 347 350 349 349 351 352 352 348 345 347 347 346 346 343 345 343 342
340 339 346 346 349 349 349 346 346 348 348 348 348 351 351 350 349 348 347 346 345 347 346 350 346 344 346 347 346 346 345 346 342 341 339 340 340 344 347 347 346 346 346
342 341 340 345 343 345 346 345 343 345 346 350 347 345 346 345 345 345 346 347 345 343 340 340 340 340 340 340 340 340 340 343 344 340 341 345 349 350 350 348 349 347 347
340 336 336 337 335 339 340 341 342 344 343 341 341 342 344 346 348 348 347 345 341 343 345 346 347 349 348 344 343 342 343 344 342 340 345 349 350 350 353 353 350 348 348
341 340 341 336 341 342 341 341 341 342 342 342 343 345 345 343 341 341 343 344 343 341 342 348 347 346 346 345 346 345 343 342 343 346 351 351 351 352 352 349 348 352 352
340 341 342 341 341 338 338 338 337 341 346 347 344 342 342 342 341 341 341 342 341 342 343 342 343 343 343 342 342 344 344 345 347 348 348 349 350 350 350 348 346 347 351
340 340 341 340 339 339 337 337 338 337 339 340 339 340 340 338 338 337 336 336 336 338 340 341 341 341 341 343 343 344 347 349 348 346 346 347 346 342 340 339 342 344 349

GFSMA_850_thetae_108.txt.gz
Theta_e
340 336 333 340 340 342 339 341 343 342 340 340 341 339 340 337 330 332 338 341 339 337 336 339 342 343 345 345 346 346 347 347 346 347 347 348 348 349 349 349 349 349 348
340 339 339 339 340 339 339 341 343 344 342 343 339 339 339 338 341 342 338 335 333 336 340 342 343 344 344 345 345 345 346 347 347 346 346 345 345 347 349 349 349 349 349
339 340 340 342 341 339 341 343 344 344 341 342 342 342 338 340 343 343 347 338 337 341 342 342 343 344 345 344 344 344 345 345 345 346 347 346 345 344 344 344 345 347 348
341 344 343 342 335 342 346 344 345 343 343 343 343 344 343 341 344 347 348 349 341 344 349 348 342 341 341 344 345 345 346 347 347 347 346 346 346 346 345 343 340 339 341
345 345 344 343 344 343 344 345 345 346 343 345 344 344 345 346 345 345 346 348 344 345 344 352 351 348 344 340 341 344 346 347 348 348 348 348 347 346 345 346 345 343 341
347 344 342 342 345 344 344 344 346 347 345 345 346 344 344 345 345 345 346 345 346 349 350 352 350 352 347 341 341 340 341 344 346 347 347 348 348 348 347 346 345 346 346
343 344 344 342 343 344 342 346 347 343 344 346 346 345 344 345 346 346 349 347 347 344 349 346 344 348 347 347 345 344 343 342 341 341 341 346 347 347 348 347 347 346 346
345 344 339 340 344 343 341 348 347 343 343 344 348 343 342 344 345 346 346 348 347 345 347 349 350 349 351 348 348 347 344 343 343 345 341 341 342 346 347 347 348 347 344
346 348 341 341 343 341 340 348 347 346 342 344 348 349 347 346 345 346 346 347 348 348 346 348 348 349 349 349 348 347 347 347 349 349 346 344 346 343 346 347 348 347 343
346 344 346 342 345 343 341 346 346 347 348 345 347 348 347 346 346 343 344 346 345 346 347 348 345 348 348 347 339 342 347 345 345 345 348 346 347 347 340 346 346 345 340
346 344 346 340 343 337 342 345 344 344 348 348 348 346 347 347 346 347 346 345 345 345 346 345 345 346 348 345 337 335 342 346 347 348 348 347 348 348 342 340 346 344 337
347 347 347 345 343 341 346 343 342 343 345 345 346 344 344 342 344 342 343 345 341 344 346 345 344 345 345 343 338 336 337 346 347 348 348 347 346 344 341 335 337 343 333
346 346 346 346 344 338 339 338 343 341 343 344 342 345 347 347 341 341 344 344 343 339 338 343 344 341 342 339 339 341 339 345 347 348 349 348 345 343 340 329 333 333 330
346 345 345 346 346 341 338 343 343 344 343 344 340 342 345 346 347 347 346 345 346 346 344 345 342 343 345 339 341 336 337 345 349 349 349 347 348 345 340 340 331 327 327
345 345 346 345 344 342 343 342 342 342 342 344 344 341 343 345 345 346 344 347 347 346 346 346 345 346 345 343 343 345 345 346 347 349 349 349 349 347 342 342 342 341 339
345 344 346 345 342 340 348 345 344 345 342 344 341 340 342 342 347 346 342 341 345 345 346 345 346 345 345 344 345 344 344 343 344 348 348 346 347 346 345 345 345 344 344
343 344 341 342 342 346 346 346 347 346 345 343 345 344 343 345 347 347 344 347 347 347 346 346 346 344 342 341 344 344 345 343 346 349 347 346 346 346 346 345 344 344 343
343 344 344 345 345 344 346 347 344 343 341 341 346 345 342 342 340 341 342 342 343 345 346 346 345 343 342 343 349 349 349 348 348 347 346 349 346 339 346 346 345 342 344
343 341 343 345 344 347 347 348 346 345 345 345 342 344 345 347 346 346 347 345 344 342 341 341 343 343 348 346 348 347 342 343 344 342 340 335 337 340 344 345 348 345 347
344 341 343 343 343 347 346 345 345 344 346 346 346 345 345 348 347 345 345 345 345 345 345 343 343 344 344 342 341 340 337 336 336 337 338 338 341 348 349 350 351 350 348
344 343 346 346 342 342 345 343 343 342 343 343 342 344 343 346 345 343 345 345 344 342 343 342 340 338 338 340 341 339 340 338 337 338 337 339 344 347 349 350 348 349 349
341 345 345 343 341 342 343 342 342 343 343 342 345 345 345 341 342 341 341 341 344 343 342 341 340 341 341 343 344 342 340 340 339 342 341 342 345 345 346 346 348 349 348
342 341 343 342 341 339 336 332 335 339 341 341 342 341 340 340 340 340 341 342 341 342 342 340 339 339 341 342 342 340 340 341 344 345 346 344 343 342 341 340 340 341 343
342 341 341 341 338 335 332 333 332 340 340 340 342 342 341 339 339 341 342 342 341 341 341 342 342 342 342 342 341 340 342 343 344 345 345 340 340 338 339 337 341 337 339
341 341 340 338 337 337 338 339 339 339 340 341 341 341 342 341 340 339 340 339 339 339 339 340 340 340 339 339 341 343 343 343 341 341 337 333 332 336 336 334 339 333 333
340 341 341 341 341 340 339 338 336 336 337 339 340 340 340 339 338 337 336 335 333 331 330 327 331 335 337 339 338 337 336 335 333 332 332 332 330 330 331 335 331 330 330

GFSMA_850_thetae_114.txt.gz
Theta_e
337 333 335 338 336 341 342 343 343 341 340 339 338 338 335 334 337 337 335 335 337 340 341 342 343 343 343 344 344 344 344 344 344 344 344 344 344 343 342 342 344 345 346
336 336 340 340 340 340 341 342 341 341 341 338 338 341 343 343 340 334 335 338 341 342 343 344 344 344 344 345 345 346 345 346 346 346 346 345 345 344 343 342 341 340 340
339 340 341 340 340 340 342 340 340 341 341 341 340 338 342 344 346 344 338 341 342 342 342 342 343 344 345 346 346 346 346 348 348 348 347 348 347 346 345 344 341 342 341
340 339 339 338 343 341 342 342 340 341 342 343 343 340 341 344 345 345 343 346 348 348 349 348 347 345 343 342 343 344 344 344 342 344 345 347 347 347 347 345 345 342 341
341 340 338 341 341 343 343 344 344 344 343 343 344 344 344 344 344 345 344 346 345 346 347 349 350 350 345 343 343 342 341 341 345 342 342 343 343 344 346 347 346 346 343
343 339 339 337 342 343 343 344 343 343 344 344 345 345 344 344 345 344 344 344 346 348 349 349 349 347 346 345 344 344 343 344 347 345 344 345 346 345 340 346 347 347 344
345 341 340 342 343 344 345 345 344 344 344 345 344 344 344 344 345 345 345 346 347 347 346 347 347 346 347 347 346 346 345 347 346 347 347 346 346 347 345 342 347 347 344
341 343 343 342 345 343 344 346 343 342 343 344 344 343 343 343 344 345 347 347 347 346 346 346 347 348 348 349 349 348 345 346 346 349 349 347 347 346 347 340 342 344 342
342 346 341 341 344 344 340 346 344 342 343 346 346 344 343 345 344 344 344 345 345 346 344 346 345 347 345 346 349 347 340 341 344 347 348 345 347 345 343 339 338 342 342
343 345 343 342 343 342 339 342 346 343 342 344 345 345 345 345 347 345 343 343 344 344 344 344 345 345 345 346 348 346 340 335 337 347 348 346 343 344 340 333 335 339 334
343 343 344 343 344 343 338 345 345 345 345 344 343 344 344 344 345 344 344 344 344 344 344 344 343 345 344 344 345 344 340 338 346 348 347 346 348 348 340 328 326 327 328
344 343 342 343 340 342 338 344 344 343 344 345 345 344 343 342 343 342 342 342 340 342 342 343 341 340 343 342 341 342 339 337 342 347 347 346 347 346 340 339 337 331 326
345 345 344 343 343 343 342 343 343 343 342 343 343 344 344 343 341 342 342 343 344 343 342 341 343 342 343 343 343 342 341 339 343 346 346 345 343 345 342 339 342 342 342
346 345 346 346 344 343 343 342 341 341 341 341 341 342 342 344 345 345 345 345 344 344 344 344 344 344 344 344 343 340 341 342 343 343 345 344 342 346 345 343 343 342 342
345 345 345 346 345 345 345 341 338 343 343 342 343 342 341 341 343 344 344 343 341 343 343 343 344 344 345 344 341 341 337 343 343 343 343 345 344 346 346 345 344 343 344
345 346 346 346 345 344 344 343 345 344 344 343 343 343 342 344 343 344 345 345 343 341 342 342 343 345 345 343 343 342 339 343 347 345 345 346 345 344 343 344 345 345 345
345 345 345 343 344 345 345 345 343 343 343 345 344 344 344 342 343 344 344 344 343 343 343 342 342 343 344 343 343 343 343 345 343 345 345 342 339 338 336 338 341 341 343
344 344 344 344 345 344 344 344 343 345 345 345 346 345 343 345 343 341 341 343 344 345 344 343 340 339 340 343 346 344 344 345 342 341 337 337 338 346 350 351 350 349 349
345 340 342 343 342 342 342 343 344 345 345 344 343 342 340 343 344 345 346 345 345 344 344 344 344 343 342 342 342 342 341 341 338 337 337 337 340 347 350 349 348 347 347
341 343 343 342 343 344 345 345 344 345 344 343 344 344 344 343 344 345 345 344 344 344 345 344 344 343 341 342 341 341 339 339 338 337 340 342 345 346 344 345 345 345 345
342 343 342 341 340 341 341 341 345 344 343 344 344 345 345 345 343 342 343 341 340 342 342 344 344 342 340 339 340 340 341 341 338 338 342 344 345 341 338 339 340 340 341
343 343 344 344 343 342 344 342 341 343 341 342 343 345 343 342 341 343 340 339 341 340 340 341 342 342 340 340 340 341 340 340 339 340 342 344 340 335 335 336 341 341 336
344 344 343 339 340 343 343 342 339 340 340 342 342 342 342 342 342 342 340 339 338 340 341 340 341 340 340 340 340 339 339 340 341 341 342 341 338 334 333 338 338 334 330
342 342 342 341 342 342 342 341 339 334 332 336 338 338 338 338 339 339 340 338 338 340 341 341 340 340 339 338 337 337 339 340 339 340 340 338 337 335 330 333 336 334 328
342 342 342 341 341 340 339 337 336 336 335 335 339 340 339 339 338 339 340 339 338 338 337 337 336 335 334 334 335 335 335 336 335 335 336 335 332 331 324 324 331 333 326
341 341 341 340 340 338 338 337 337 336 337 339 340 340 340 339 339 338 336 336 335 333 332 329 328 328 329 330 330 331 331 331 331 330 330 327 323 317 316 320 322 310 308

GFSMA_850_thetae_117.txt.gz
Theta_e
334 333 337 337 339 340 341 342 342 340 339 339 337 337 335 336 336 335 336 339 340 341 341 343 343 344 344 344 344 344 344 344 345 345 345 345 345 343 342 341 341 341 340
336 339 339 337 338 342 342 341 340 341 339 338 341 343 343 337 335 337 340 341 342 343 344 344 345 344 344 344 345 345 346 347 347 347 346 346 347 346 345 344 341 341 341
337 340 339 339 340 339 340 340 340 341 340 338 339 342 344 345 340 340 341 341 342 343 343 343 343 343 343 344 343 345 345 344 344 344 344 345 345 347 346 345 345 342 341
339 338 339 340 341 341 342 341 340 342 342 341 339 341 344 344 343 345 348 348 347 348 349 349 346 343 342 342 342 342 342 344 343 344 342 344 344 342 344 347 346 345 344
339 339 338 342 342 343 345 343 343 343 343 344 344 343 344 344 342 345 346 345 345 347 349 349 347 345 344 344 344 343 342 345 347 345 345 345 346 346 341 345 347 347 345
341 341 338 341 344 343 345 345 343 344 344 344 345 344 344 344 343 342 343 343 347 348 347 347 347 346 346 347 347 346 345 347 347 349 349 348 347 346 346 339 346 347 345
342 341 339 339 343 345 343 345 344 344 344 345 345 344 344 344 344 342 343 346 346 346 347 347 348 348 349 348 349 348 346 346 347 348 349 348 348 346 343 338 340 344 343
342 342 341 342 343 343 342 345 342 342 343 343 343 343 344 344 344 345 345 346 347 346 346 346 346 347 346 346 348 349 345 345 340 343 348 348 345 343 339 333 335 341 341
340 344 341 341 344 343 341 345 344 342 344 346 345 345 345 347 344 344 344 345 344 344 345 344 345 346 346 345 346 348 347 341 337 337 345 348 346 347 339 328 334 337 331
340 343 341 341 341 342 342 343 345 343 341 344 345 345 345 344 349 348 344 343 343 344 345 344 344 345 344 345 346 346 344 339 337 342 346 345 347 345 337 327 325 326 326
342 343 344 344 343 343 341 342 345 345 344 344 343 344 344 344 344 345 347 347 343 343 343 343 342 341 341 343 342 341 341 338 338 344 346 345 345 348 339 339 337 325 327
342 343 343 343 341 343 340 341 345 344 344 345 344 343 344 343 342 343 344 344 341 341 341 339 341 341 342 341 343 343 342 339 340 344 346 345 344 343 342 339 342 341 339
344 344 343 342 344 343 342 339 343 344 343 342 344 344 344 344 341 341 342 344 344 344 343 343 343 344 344 343 343 340 339 341 343 344 344 345 343 343 344 343 343 342 342
345 346 345 344 343 343 344 342 343 343 342 342 341 342 342 344 344 344 344 345 348 348 343 343 344 345 344 345 342 342 341 337 344 344 346 346 345 345 344 345 345 344 343
345 345 345 345 345 346 346 344 341 341 340 343 343 343 342 341 342 344 344 344 345 345 345 346 344 344 345 344 342 343 341 339 344 346 346 347 345 344 341 340 343 345 345
344 345 346 345 345 346 345 345 343 340 342 343 342 341 343 343 343 343 343 343 344 347 346 347 346 341 344 344 344 344 343 345 344 343 342 341 338 337 334 335 339 342 340
345 345 345 345 345 345 345 344 344 343 344 343 343 342 343 343 341 342 344 344 344 343 347 345 344 342 339 340 343 343 344 345 346 341 339 338 337 338 340 345 349 346 348
345 344 345 344 343 343 343 345 344 344 341 342 342 342 345 343 344 343 343 342 342 343 346 349 347 347 343 342 342 343 344 346 341 341 338 338 338 344 348 350 349 347 346
343 344 342 342 343 344 345 344 342 342 342 343 343 343 342 342 342 343 342 344 343 346 344 344 347 344 343 340 339 339 340 341 342 340 340 343 344 346 345 345 346 345 345
341 341 341 341 343 343 341 342 343 344 343 344 344 343 343 343 343 342 343 343 344 342 343 343 345 348 342 340 339 339 342 340 340 342 345 345 344 341 341 340 340 340 340
340 338 340 342 342 342 341 341 342 343 344 344 344 344 344 344 344 344 343 343 342 340 340 340 340 342 341 344 339 343 341 340 342 340 345 345 340 337 336 338 340 340 337
339 341 343 342 343 341 342 342 343 341 343 343 342 343 343 344 344 341 341 342 339 340 341 340 340 341 341 340 340 340 340 343 345 341 344 341 338 334 336 336 336 334 331
341 342 342 343 343 343 340 343 343 341 340 341 341 343 344 342 342 341 341 340 340 339 340 341 341 340 340 339 339 338 338 341 344 341 341 343 336 337 334 335 334 333 332
342 342 342 343 341 339 339 342 342 341 336 334 340 343 341 339 339 337 336 335 338 340 340 340 340 339 339 337 335 335 336 337 338 338 339 338 335 332 336 330 331 331 331
342 342 341 341 341 341 341 341 339 338 338 338 337 337 336 339 338 338 336 338 339 337 336 336 335 334 333 332 332 333 333 336 339 338 334 332 329 326 327 330 328 328 314
342 342 342 341 341 339 338 336 336 336 336 339 339 340 340 340 340 339 338 336 334 334 334 334 332 331 329 328 328 329 329 332 334 330 329 326 319 313 320 319 321 313 306

GFSMA_850_thetae_123.txt.gz
Theta_e
344 345 345 345 346 342 343 344 346 348 346 346 343 341 340 340 341 341 338 338 338 338 339 341 342 343 344 344 345 345 344 344 344 343 344 344 344 344 344 345 344 343 339
346 345 347 345 344 346 344 345 348 348 344 344 343 341 340 341 342 343 340 339 339 340 341 342 342 343 343 343 343 343 343 343 344 342 343 344 344 344 343 343 345 346 344
345 345 345 347 344 347 347 345 348 347 344 342 345 344 343 342 344 345 344 344 339 338 339 340 340 341 341 342 342 342 345 345 345 346 347 347 346 345 344 341 344 346 346
348 346 346 345 346 347 346 345 346 346 344 342 343 344 344 344 346 346 345 346 346 346 344 341 342 342 343 344 344 344 344 346 345 347 348 348 347 347 346 344 341 347 347
347 348 347 348 349 346 347 346 346 345 345 343 343 343 344 345 346 346 347 348 346 346 349 348 345 346 346 346 347 346 346 345 345 345 345 344 345 344 346 345 339 344 346
349 349 348 349 353 347 347 354 350 349 347 345 344 344 344 344 346 346 348 348 347 348 350 351 353 354 351 349 348 348 348 345 342 343 340 341 344 347 346 340 336 340 343
350 347 349 348 346 352 352 350 349 349 348 346 346 345 346 345 345 345 345 345 348 346 349 349 354 356 354 353 354 349 346 348 347 341 336 343 343 347 345 334 333 336 338
351 350 350 348 349 350 353 353 353 353 348 348 354 346 345 343 342 343 345 346 346 347 346 349 353 354 355 356 355 350 347 348 347 342 339 343 344 345 341 328 326 327 327
350 352 351 352 346 351 353 353 352 348 352 349 348 352 350 349 345 343 345 346 349 348 348 349 351 354 356 354 355 354 346 340 339 339 341 345 344 344 340 338 324 327 331
351 351 350 352 347 352 350 351 350 354 346 353 348 347 346 349 350 345 343 345 350 349 351 350 350 351 353 352 350 349 342 340 339 338 340 346 343 345 342 339 340 334 336
351 349 350 352 353 347 348 349 351 351 354 350 349 351 351 348 347 347 346 345 348 347 347 348 348 349 350 349 351 347 341 338 340 343 345 346 344 344 344 342 342 343 343
350 349 350 351 352 351 349 351 354 354 348 353 351 350 347 349 347 347 345 346 345 346 348 347 348 349 350 350 350 347 340 340 335 343 343 346 345 345 345 345 345 344 344
347 348 348 353 351 346 353 353 354 351 354 353 355 352 351 348 348 347 346 345 346 345 344 345 343 347 348 348 351 347 343 347 338 344 345 346 346 346 344 341 341 343 345
347 350 353 352 350 354 351 353 351 350 347 350 353 353 351 350 348 347 347 346 344 342 343 348 345 347 347 348 348 344 349 350 341 344 346 346 343 338 336 336 339 340 339
350 349 352 353 353 352 352 352 351 350 349 353 350 350 350 346 344 345 345 344 343 342 340 343 345 347 346 346 348 351 347 351 340 342 344 343 339 336 338 343 346 346 347
350 351 352 352 353 353 353 351 350 351 350 351 350 349 350 349 348 348 345 346 346 346 344 343 343 346 347 346 344 348 348 343 348 348 342 341 336 337 339 343 346 346 345
349 347 350 351 352 352 350 349 346 349 352 352 352 350 353 351 350 347 348 348 346 343 344 346 347 346 349 349 349 350 345 348 348 348 345 338 338 339 342 344 345 346 345
350 349 351 351 353 352 352 350 350 351 351 352 350 352 351 350 351 353 348 346 347 349 351 347 348 346 346 351 350 341 352 348 350 346 345 339 341 343 343 342 342 342 341
349 353 350 350 350 351 350 352 351 351 352 351 352 351 350 351 349 348 348 349 349 349 348 348 342 347 347 348 350 348 348 348 346 348 346 344 343 343 341 340 339 338 337
352 352 351 349 350 352 352 351 351 351 351 350 349 350 351 349 348 347 348 349 348 343 341 338 342 345 348 348 347 348 348 349 348 347 346 345 344 342 340 338 337 336 334
350 349 349 350 351 352 351 351 350 349 351 350 349 349 348 349 346 344 345 345 344 342 340 348 348 348 346 340 341 342 342 346 347 347 346 344 343 341 338 337 336 335 333
347 349 348 348 348 349 347 349 347 344 349 349 350 349 349 345 344 344 344 344 344 341 341 341 342 347 348 344 343 347 347 346 348 347 345 346 342 337 339 335 334 333 332
347 347 345 343 345 348 345 343 342 342 346 347 349 346 344 348 343 344 344 343 342 342 341 340 339 339 340 340 340 340 346 345 345 342 341 344 341 340 340 339 336 335 330
347 344 342 342 342 344 343 343 343 341 341 342 342 343 341 347 343 343 340 340 339 338 337 338 339 339 340 340 339 337 341 339 343 341 339 340 340 339 338 335 334 332 322
345 344 342 343 342 342 342 341 340 340 340 341 341 339 336 336 342 338 338 338 338 337 337 338 338 336 335 335 334 333 338 340 340 340 341 337 339 335 337 333 332 330 319
344 343 343 343 342 338 340 340 340 339 339 339 337 336 338 338 337 337 338 341 341 339 337 335 334 333 333 332 331 330 331 334 334 337 336 331 332 324 322 329 328 321 312

GFSMA_850_thetae_126.txt.gz
Theta_e
340 343 341 346 346 343 343 345 349 346 346 344 342 341 340 341 342 334 335 336 335 337 338 339 340 341 343 344 343 342 342 343 343 343 344 344 344 345 344 341 344 344 343
344 340 341 343 344 346 345 344 348 348 345 344 341 341 341 342 342 341 334 335 336 338 339 340 340 341 341 341 341 343 343 343 345 346 348 347 347 346 344 342 341 344 344
345 344 347 346 345 346 345 345 345 347 344 344 343 342 342 339 344 344 345 342 339 336 337 338 340 341 342 342 343 343 344 344 344 345 347 346 347 347 345 344 339 344 346
341 347 343 344 343 340 345 346 347 347 344 343 344 344 344 344 340 343 346 346 346 347 347 340 341 343 344 345 345 345 345 344 344 345 345 340 347 345 346 342 339 342 346
346 348 346 350 341 348 346 345 347 346 345 342 344 344 344 346 344 347 346 346 345 346 350 349 344 350 351 349 348 348 348 347 345 342 342 339 346 346 347 340 335 339 342
345 347 345 345 345 353 349 346 348 346 344 344 344 344 343 345 346 347 346 347 348 338 347 350 346 352 353 354 354 353 350 346 348 347 340 339 344 346 346 334 331 335 336
341 349 348 342 348 347 343 349 347 350 350 346 348 345 344 345 345 346 346 347 348 346 347 351 349 355 355 352 355 354 351 347 348 347 340 343 344 345 346 330 326 328 330
346 348 350 351 347 331 347 349 342 351 340 349 347 348 349 345 345 345 344 346 346 347 348 348 351 352 354 355 355 354 348 339 337 337 340 343 345 345 345 337 324 330 334
342 347 347 350 345 351 351 349 340 348 349 347 349 351 351 345 338 342 343 344 343 346 346 350 350 342 356 350 355 352 341 339 338 339 340 344 344 344 344 340 337 331 332
349 348 343 346 348 349 346 353 355 349 343 338 349 349 350 343 340 334 337 336 336 342 335 347 347 350 350 352 350 348 341 339 337 340 341 345 344 343 344 341 341 342 342
346 347 350 346 343 340 351 346 352 349 348 349 353 345 337 350 349 347 338 343 343 338 338 345 348 348 351 350 348 349 342 341 340 336 342 345 345 345 345 345 345 345 344
343 346 349 348 348 343 349 349 345 345 342 345 347 350 353 350 345 346 348 347 346 347 346 348 349 345 349 347 351 349 344 341 343 336 343 345 345 346 345 343 339 342 344
351 350 346 349 346 347 343 350 347 347 350 349 347 344 352 352 350 346 346 346 346 347 347 343 341 345 347 351 350 348 344 345 344 339 345 345 345 342 337 335 335 337 337
348 346 350 350 348 348 350 347 346 345 345 347 350 348 343 346 349 345 347 344 342 341 340 346 347 349 346 350 349 347 348 346 349 340 342 344 343 338 336 341 346 346 347
350 351 352 352 348 350 348 348 351 348 350 349 353 347 350 344 342 348 349 346 346 346 347 343 348 349 348 347 346 343 344 351 348 342 340 342 340 336 337 342 346 346 345
349 350 350 347 352 351 350 349 347 348 349 347 348 349 349 350 346 349 349 346 346 347 346 345 347 348 346 348 347 348 347 349 346 347 347 344 338 336 339 342 344 346 345
347 350 346 348 350 350 349 350 350 346 350 351 349 347 349 352 350 342 348 348 350 349 348 348 347 347 347 349 347 344 343 347 347 347 347 343 338 338 341 342 343 342 342
344 346 345 346 347 349 350 350 347 346 347 348 347 347 346 348 351 349 348 344 347 346 343 345 344 340 343 346 345 341 348 350 348 347 347 344 341 340 342 341 339 338 337
346 348 348 347 347 349 350 350 349 348 347 347 350 349 350 347 347 346 347 346 349 347 348 347 345 340 342 343 344 344 346 348 348 347 347 345 343 343 341 340 338 337 335
349 348 348 347 345 347 349 350 348 348 348 348 349 346 348 349 348 347 347 346 344 345 345 343 341 340 347 348 344 344 344 342 344 345 340 345 344 343 340 338 336 335 334
350 347 347 351 349 347 347 348 350 350 347 347 347 347 347 346 343 344 345 344 345 344 344 343 341 346 344 342 341 341 340 346 348 346 345 345 343 343 339 337 336 334 333
347 348 346 345 348 349 349 347 348 344 346 347 348 348 348 348 345 344 344 344 344 344 344 341 341 342 342 341 340 341 344 343 346 347 345 345 340 341 340 339 339 337 334
345 345 344 345 345 345 344 345 344 343 344 342 343 344 345 345 344 343 343 344 344 343 342 341 339 339 339 339 340 340 339 339 342 342 340 344 343 342 341 340 338 334 331
347 347 347 347 344 342 343 344 342 341 343 342 342 342 341 341 342 342 343 342 341 340 339 337 337 338 339 339 339 338 337 338 338 341 341 339 340 340 340 337 336 332 331
346 344 347 346 343 342 343 343 342 342 342 341 340 341 340 338 336 338 342 338 337 337 338 335 337 338 336 334 335 334 333 337 338 337 337 339 337 337 335 333 331 330 328
345 344 343 344 343 343 343 341 339 340 340 340 338 336 337 338 339 338 337 337 338 341 340 337 334 334 335 334 333 333 332 331 335 332 336 337 333 329 323 325 330 331 322

GFSMA_850_thetae_129.txt.gz
Theta_e
340 342 343 343 342 343 344 345 347 345 344 342 341 341 342 341 341 333 333 332 333 335 337 338 340 341 342 341 342 343 343 344 345 346 347 346 346 345 344 342 340 343 344
337 340 344 344 346 347 343 345 346 348 346 344 340 340 341 342 342 333 333 334 334 335 336 338 340 340 340 340 341 342 344 344 345 346 346 345 345 344 343 343 338 342 344
337 344 347 346 347 346 345 343 347 348 344 341 341 341 340 342 341 342 345 342 343 338 337 338 340 341 343 343 344 344 345 344 344 345 345 340 345 346 345 341 337 340 345
345 345 345 344 343 341 341 344 346 347 343 342 343 342 343 340 336 341 342 345 347 346 347 344 341 344 346 346 347 348 348 348 347 344 344 339 344 345 346 336 335 338 342
344 347 344 345 344 342 344 346 350 347 347 343 343 344 343 344 341 344 344 341 346 345 346 348 348 347 352 353 353 353 351 349 347 348 345 337 343 345 345 330 331 334 336
347 345 347 347 343 347 346 347 348 346 347 347 343 343 343 344 345 347 347 345 346 347 346 345 347 347 351 353 354 354 353 347 347 347 345 341 344 344 344 326 326 331 331
344 346 345 343 343 345 347 347 348 349 345 348 348 346 344 345 345 348 346 346 345 339 342 338 342 338 346 352 354 355 350 340 337 337 339 343 344 343 340 326 331 336 337
344 349 344 346 345 336 342 345 346 345 347 346 347 345 346 347 345 345 344 344 344 340 338 343 336 342 343 347 348 354 347 339 338 338 339 343 344 343 340 338 330 334 336
346 350 347 347 338 341 341 344 340 338 338 345 346 334 341 345 344 343 337 342 336 337 336 336 336 338 340 348 352 350 341 339 338 339 341 345 344 343 343 340 341 342 341
344 344 347 346 343 341 346 348 345 341 343 342 338 347 346 342 342 345 334 337 340 341 339 338 341 346 347 347 350 347 344 341 341 337 341 344 344 344 344 344 344 343 343
346 346 349 346 347 344 338 346 348 346 343 348 335 346 337 347 347 344 345 347 344 344 343 341 346 348 347 348 346 344 347 341 340 338 340 344 344 344 345 343 342 343 345
344 345 345 349 342 342 341 348 344 345 344 344 347 347 346 348 348 347 346 347 345 344 345 343 344 344 349 349 348 348 346 344 343 338 337 344 344 343 339 336 336 337 338
346 345 345 348 349 343 344 345 345 342 342 351 343 345 346 350 351 345 345 347 344 340 343 344 345 342 345 348 349 347 348 347 348 346 337 343 343 341 336 338 345 346 346
348 347 347 347 346 346 347 345 342 342 344 346 343 343 340 341 344 343 349 348 344 345 342 348 346 347 346 348 347 345 346 349 350 345 346 341 342 338 337 341 345 345 344
348 349 348 349 349 348 346 348 348 348 347 350 349 351 349 348 343 349 349 346 345 345 343 348 349 349 348 349 347 345 346 348 348 346 346 345 339 336 337 339 344 345 343
347 349 351 350 351 348 348 350 347 346 347 349 347 348 350 349 349 347 347 349 347 346 345 346 348 348 346 347 346 346 341 344 347 345 346 346 339 337 339 341 342 343 343
347 349 349 347 346 347 349 350 349 348 346 350 351 350 349 348 349 350 342 344 346 347 347 346 349 347 344 344 346 345 344 342 345 347 347 345 341 341 341 341 340 338 338
348 343 345 346 343 344 347 348 348 347 346 346 345 347 344 346 346 349 349 347 345 348 347 345 343 343 344 338 339 342 341 339 346 347 345 345 344 342 341 341 338 337 335
346 347 345 347 346 347 347 350 349 349 348 346 347 348 348 348 347 345 345 345 346 345 347 347 347 345 340 341 344 342 341 342 343 343 345 342 341 343 341 339 337 335 333
351 348 346 347 348 345 346 347 347 347 345 347 347 346 348 346 347 349 348 346 347 345 344 344 344 340 341 345 345 341 342 343 341 343 343 339 342 343 339 337 336 335 334
348 345 346 346 348 348 346 344 347 345 347 346 344 345 346 346 347 346 344 342 344 343 344 344 344 342 342 342 343 341 341 341 344 346 345 344 344 342 337 336 336 338 336
345 348 348 346 349 348 346 347 346 347 347 345 344 344 345 346 346 342 341 342 343 343 344 344 342 341 341 340 338 339 343 343 341 341 344 343 343 341 338 339 339 339 336
346 345 346 347 345 344 344 345 345 345 344 344 342 342 341 341 343 342 341 342 343 343 343 342 341 339 337 338 338 339 340 339 339 340 341 342 342 342 339 338 338 336 333
344 344 344 344 345 344 344 344 342 342 343 342 341 342 342 341 340 340 342 341 342 340 339 338 337 337 338 338 338 337 336 337 338 339 340 339 339 339 340 339 336 335 329
347 346 345 347 347 347 345 344 343 343 343 342 342 342 341 340 338 337 338 341 339 338 338 338 337 336 337 336 335 334 333 333 336 337 337 336 338 337 339 337 334 330 328
344 344 344 344 344 343 343 343 343 342 341 340 340 338 337 337 337 338 337 337 337 338 339 338 337 335 335 334 333 332 331 331 331 334 334 335 336 337 335 331 330 330 328

GFSMA_850_thetae_132.txt.gz
Theta_e
340 338 341 343 344 343 344 346 344 345 343 341 340 342 341 340 340 333 332 331 332 334 337 339 340 341 341 341 342 343 344 344 344 345 343 345 344 343 343 342 338 341 343
340 342 344 344 344 346 344 345 346 347 346 341 340 340 341 342 341 336 334 335 335 336 337 339 340 341 341 341 342 342 343 344 344 345 344 339 345 345 342 339 338 340 342
339 340 345 346 345 345 345 346 345 347 346 341 337 338 340 340 340 342 344 344 343 340 340 340 341 342 343 344 344 345 346 346 345 344 344 340 343 345 342 333 335 339 344
341 345 346 346 345 343 345 343 345 347 344 341 343 342 342 341 336 342 345 345 346 345 344 345 345 343 344 345 346 347 348 349 347 347 345 339 343 344 341 326 332 336 339
343 345 343 343 344 339 341 345 347 347 344 343 343 343 343 343 340 344 345 343 343 345 342 343 342 343 342 346 347 349 350 351 348 348 347 340 343 344 341 323 329 331 331
343 344 343 345 344 341 345 345 346 350 347 345 342 344 344 343 344 346 346 346 345 345 346 342 336 333 339 342 346 349 351 349 343 343 345 340 344 344 339 326 336 337 336
344 346 345 342 342 344 345 345 347 349 349 348 347 347 344 344 345 345 347 347 344 343 341 337 337 335 334 336 345 346 350 341 339 338 339 340 344 343 338 327 335 337 337
343 345 344 342 339 344 341 344 345 344 345 345 346 345 346 346 345 345 343 343 343 339 338 337 336 336 337 339 344 346 341 339 338 339 340 343 343 344 339 340 338 340 340
342 347 345 344 340 340 342 344 344 341 343 341 344 340 339 340 343 343 343 338 339 339 341 341 334 338 340 344 344 345 341 340 340 338 339 344 343 343 343 341 341 341 342
345 348 346 345 342 339 342 342 337 339 342 343 342 345 344 343 344 344 341 346 342 341 342 342 342 344 344 344 343 343 344 340 341 340 339 343 344 344 344 344 343 343 343
347 345 347 341 345 340 343 346 345 341 342 346 343 338 341 343 345 346 345 344 345 344 344 342 344 346 346 345 344 346 345 342 343 339 339 344 344 343 343 340 336 336 340
346 343 348 346 343 342 341 346 346 345 346 342 343 347 346 342 345 347 345 347 347 342 340 344 344 344 344 347 345 346 344 345 345 346 338 342 343 342 340 335 339 343 342
345 341 345 347 348 341 341 343 342 344 344 341 341 337 340 345 348 344 348 348 347 345 341 345 345 344 345 346 347 347 347 344 348 347 345 341 343 340 336 336 344 345 343
343 343 344 344 343 342 339 342 340 342 341 342 347 345 344 347 346 345 347 346 346 346 345 346 346 346 346 346 346 348 345 346 349 346 345 346 344 338 336 338 342 344 343
347 347 346 347 347 347 347 344 343 344 342 344 348 348 350 348 349 345 345 348 347 345 345 346 344 348 346 347 346 345 347 341 346 347 343 346 343 337 338 340 341 343 343
348 348 348 348 347 348 347 346 346 346 345 347 348 347 348 347 347 348 348 347 347 347 346 345 345 347 345 345 345 345 345 343 340 345 346 346 342 338 340 341 340 340 341
349 349 348 350 348 347 348 348 347 349 348 345 345 348 348 348 348 348 349 348 346 344 345 346 346 345 344 343 341 342 345 344 342 345 346 346 343 340 341 340 338 337 336
348 349 346 347 349 347 345 346 348 349 349 348 345 345 346 348 345 346 345 345 347 345 347 342 345 345 345 341 340 343 342 341 341 343 345 345 344 342 341 339 337 335 333
347 347 349 346 345 343 344 344 346 347 348 347 346 345 345 346 346 348 347 344 345 346 345 344 345 345 343 340 341 344 341 341 344 343 342 344 340 342 341 338 335 334 333
346 347 345 345 345 346 346 346 347 348 347 348 347 347 346 346 347 345 346 347 347 345 345 345 344 343 342 342 344 342 340 341 341 342 342 342 340 343 339 336 334 335 337
345 345 349 346 347 346 344 346 347 348 347 346 345 343 345 345 345 345 346 345 344 343 344 343 344 343 343 342 341 342 341 341 341 343 344 344 343 343 339 335 336 339 338
346 346 346 347 346 348 348 346 343 344 345 346 346 343 342 343 342 341 344 342 341 342 343 343 343 342 341 340 339 338 339 342 342 340 339 341 343 342 341 336 336 337 336
350 348 346 346 347 346 344 343 345 346 346 345 343 344 343 341 340 340 342 341 341 341 343 343 342 341 339 337 337 339 340 340 339 339 339 341 341 341 340 338 336 336 335
345 343 346 345 344 346 345 344 344 344 342 342 343 342 341 342 342 341 340 342 342 342 341 340 339 337 337 338 338 336 335 336 338 338 339 341 340 339 339 338 337 334 334
346 344 345 345 344 344 345 345 345 343 342 343 342 342 342 342 340 338 337 340 340 338 338 338 337 336 335 336 336 333 332 332 334 336 339 340 339 337 338 338 336 334 331
343 343 343 345 345 344 344 344 342 343 343 342 342 341 339 338 337 337 338 337 337 337 337 339 337 336 335 334 331 331 329 328 327 331 333 335 336 336 337 337 335 332 330

GFSMA_850_thetae_135.txt.gz
Theta_e
338 340 341 343 343 344 345 344 344 343 341 340 340 341 340 340 334 333 333 334 336 338 339 340 341 341 342 342 343 343 343 343 343 343 344 339 343 343 343 341 339 339 342
337 340 343 344 346 346 344 345 346 346 346 340 340 340 339 339 340 337 339 338 338 338 338 339 340 340 341 343 344 345 345 345 344 343 343 343 339 344 343 337 337 337 341
341 342 343 344 345 346 344 344 344 347 346 341 339 335 337 338 338 343 344 344 344 343 345 345 343 342 343 345 346 346 347 348 347 345 344 343 339 344 344 334 333 336 340
338 342 345 346 344 344 345 343 344 346 343 340 340 340 340 339 340 341 343 343 344 342 342 342 341 341 340 341 342 342 349 349 348 347 346 346 341 343 344 329 330 332 335
340 344 345 345 343 341 342 342 345 346 342 342 343 342 342 342 341 343 345 345 344 344 345 345 340 341 336 334 337 340 346 343 341 344 345 345 342 343 342 325 332 334 331
340 344 344 343 343 340 342 345 345 348 346 345 343 343 343 343 343 344 345 345 344 343 343 339 337 336 336 336 333 334 343 339 338 338 338 339 343 343 339 329 335 335 335
341 343 342 343 344 341 345 345 345 349 349 347 344 343 344 344 344 344 345 346 344 342 340 338 337 337 338 338 340 342 344 340 338 339 339 339 344 343 339 328 332 333 335
339 344 346 344 341 342 344 343 345 345 346 346 347 346 345 344 345 345 345 344 341 337 339 341 338 337 337 338 341 342 341 340 339 338 339 343 343 343 342 339 340 340 340
343 344 343 343 341 339 343 340 345 343 343 344 344 342 339 341 342 342 343 342 343 339 340 341 341 340 341 342 342 343 344 341 340 341 339 342 344 344 343 343 343 342 342
342 341 345 343 345 338 340 342 343 341 340 341 341 339 341 343 341 343 343 344 344 344 343 344 342 343 342 343 341 340 344 343 342 340 339 342 344 343 343 343 343 340 341
348 345 345 343 344 339 341 344 341 341 339 342 342 341 339 340 343 344 345 344 342 344 340 342 343 342 344 345 343 345 345 343 344 342 341 341 344 342 341 338 335 336 336
347 345 344 344 343 343 343 344 344 345 347 343 342 344 345 342 343 346 347 344 343 343 342 342 345 344 344 344 344 347 346 346 345 345 342 340 342 342 339 335 339 343 343
345 347 345 346 341 347 341 341 342 341 343 340 342 343 341 343 345 346 343 344 344 345 344 344 344 344 344 345 346 347 346 344 344 347 344 345 344 341 337 335 339 343 343
343 344 344 344 344 346 344 340 340 342 344 342 343 347 345 344 345 345 344 345 346 346 343 344 344 342 345 346 346 346 346 344 341 343 345 344 345 340 336 336 338 342 343
343 345 345 343 344 343 346 345 346 345 343 342 343 345 347 347 347 349 347 346 346 347 345 344 344 344 344 343 344 345 344 344 343 341 344 345 345 339 338 339 340 340 342
345 345 346 346 346 346 347 347 347 343 344 345 346 345 347 349 348 346 349 348 347 344 347 346 345 343 344 345 345 344 344 345 345 343 343 346 346 340 340 340 339 338 338
345 345 347 347 348 346 347 348 347 346 347 346 345 344 347 346 346 347 347 347 346 345 345 344 344 345 346 345 344 341 340 341 342 343 343 344 344 342 341 340 338 336 335
344 344 345 346 347 347 346 346 346 347 347 348 348 347 344 346 348 348 344 345 344 345 345 344 345 345 346 345 345 341 342 342 341 342 343 345 344 343 342 339 337 333 332
345 346 346 348 347 345 347 347 345 344 346 347 348 347 345 345 344 345 346 348 347 345 347 347 347 345 344 343 341 341 344 342 341 344 343 342 344 340 341 339 336 334 334
344 345 346 346 347 347 344 344 345 345 347 348 348 348 347 346 346 345 345 345 345 345 346 345 344 343 343 343 342 343 342 341 340 341 342 342 341 340 342 338 335 334 338
346 346 347 347 346 345 344 346 346 346 347 347 346 345 345 344 345 345 344 343 344 344 344 344 344 343 343 343 341 341 342 341 340 341 342 343 344 343 342 337 334 337 338
345 345 346 346 344 346 344 346 344 345 346 347 346 346 346 343 342 341 342 342 342 342 341 343 343 343 343 341 340 339 339 339 341 342 340 339 341 343 341 337 333 336 337
343 345 345 345 345 346 344 345 345 344 344 345 345 344 342 342 342 341 340 340 342 341 341 342 343 342 341 339 338 338 338 340 341 340 340 340 340 341 340 338 332 334 335
345 346 345 345 345 346 345 345 342 343 344 344 343 342 342 342 341 341 342 341 340 341 341 340 340 339 338 338 337 333 332 332 333 335 338 338 338 338 339 338 335 333 334
344 344 344 347 343 345 345 344 344 344 344 343 343 342 342 342 341 341 339 339 341 341 339 338 338 337 336 336 335 335 331 329 328 330 334 335 336 337 336 337 335 331 329
345 344 345 343 343 343 343 343 343 344 344 343 343 342 341 340 338 338 338 337 336 337 337 337 339 336 336 335 332 330 330 329 326 319 324 330 331 332 334 334 334 333 331